     2              OBSERVATION DATA    GPS                 RINEX VERSION / TYPE
ASRINEXO V2.9.7 UX USGS/MENLO_PARK 07-MAR-00 16:19          PGM / RUN BY / DATE
                                                            COMMENT
BIT 2 OF LLI (+4) FLAGS DATA COLLECTED UNDER "AS" CONDITION COMMENT
BIT 2 OF LLI (+4) FLAGS DATA COLLECTED UNDER "AS" CONDITION COMMENT
BIT 2 OF LLI (+4) FLAGS DATA COLLECTED UNDER "AS" CONDITION COMMENT
BIT 2 OF LLI (+4) FLAGS DATA COLLECTED UNDER "AS" CONDITION COMMENT
BIT 2 OF LLI (+4) FLAGS DATA COLLECTED UNDER "AS" CONDITION COMMENT
BIT 2 OF LLI (+4) FLAGS DATA COLLECTED UNDER "AS" CONDITION COMMENT
BIT 2 OF LLI (+4) FLAGS DATA COLLECTED UNDER "AS" CONDITION COMMENT
Original Marker Name: cajo Cajon_1934_USC&GS                COMMENT
Campaign Name: Cajon Monit                                  COMMENT
4-Character Station Name: CAJO                              COMMENT
6-Character Antenna Code: DMRCHT                            COMMENT
Vertical Measurement Point: BCR                             COMMENT
Vertical Offset to Rinex Ref. Point: 0.0348                 COMMENT
Radial Measurement Point: ECF                               COMMENT
Radial Offset to Rinex Ref. Point: 0.1897                   COMMENT
Antenna Height from Field Measurement: 1.2080 m             COMMENT
Additional Antenna Identification Info.:                    COMMENT
Turborogue and Ashtech Choke Ring                           COMMENT
Original XYZ: -2430642.5250 -4678976.8013 3579050.4079      COMMENT
New XYZ position is based on association with SCEC monument COMMENT
E1F2A7V9+0011. Position of that monument is believed to be  COMMENT
valid to within 1 m horizontally; vertical accuracy         COMMENT
should be no worse than 3-times this value.                 COMMENT
                                                            COMMENT
Revised Rinex header created by UCSD GPS archive for        COMMENT
GSAC on 11-Jul-2000 (2000:193) 17:42:43 GMT                 COMMENT
For assistance contact dagnew@ucsd.edu                      COMMENT
or anderson@python.ucsd.edu                                 COMMENT
                                                            COMMENT
CAJON 1934                                                  MARKER NAME
GDH US GEOLOGICAL SURVEY                                    OBSERVER / AGENCY
O4582 ASHTECH Z-XII3 CC00                                   REC # / TYPE / VERS
CR519993703 DORNE-MARGOL. TYPE T                            ANT # / TYPE
 -2430670.9024 -4679025.4712  3579049.6426                  APPROX POSITION XYZ
        1.1582        0.0000        0.0000                  ANTENNA: DELTA H/E/N
     1     1     0                                          WAVELENGTH FACT L1/2
     5    C1    L1    L2    P1    P2                        # / TYPES OF OBSERV
    30                                                      INTERVAL
  2000     2    29    15    37   30.000000                  TIME OF FIRST OBS
  2000     2    29    23    58   30.000000                  TIME OF LAST OBS
                                                            END OF HEADER
 00  2 29 15 37 30.0000000  0  9 19 18 08 02 01 31 10 27 13
  20803516.668      141632.699 9    102496.78947  20803516.405    20803524.1414
  21122907.207      367359.436 9    265595.68647  21122907.046    21122915.1334
  21321078.878      -29947.716 9    -22094.88247  21321077.765    21321085.4354
  22891306.707    22891307.458                    22891306.9784
  23638266.714    23638259.763                                    23638275.7694
  21985406.250      201205.617 8    147580.82947  21985406.000    21985414.8964
  24140508.670       93777.718 8     64937.96745  24140508.454    24140518.1224
  21289226.111        7022.674 9      4967.27047  21289226.075    21289233.4104
  21455103.057      -32860.639 9    -23355.37547  21455103.391    21455109.4354
 00  2 29 15 38  0.0000000  0  9 19 18 08 02 01 31 10 27 13
  20590229.299     -979199.546 9   -770879.05947  20590229.171    20590236.9184
  20922655.130     -684973.438 9   -554404.06847  20922654.847    20922662.9284
  21097876.930    -1202883.772 9   -936071.06247  21097875.544    21097883.2114
  22666464.669    -1240315.53318   -920814.78056  22666464.463    22666473.6854
                       -94.785
  21775846.412     -900040.243 8   -710532.92347  21775845.985    21775854.8404
  23925627.342    -1035436.460 8   -814969.28745  23925626.374    23925636.1684
  21068164.777    -1154661.091 9   -900240.88847  21068165.013    21068172.3654
  21231898.527    -1205806.775 9   -937339.42947  21231899.182    21231905.2364
 00  2 29 15 38 30.0000000  0  9 19 18 08 02 01 31 10 27 13
  20590448.027     -978049.939 9   -769983.33447  20590447.969    20590455.7264
  20935947.025     -615124.683 9   -499976.60047  20935946.735    20935954.8054
  21088164.605    -1253920.350 9   -975839.87747  21088163.648    21088171.3154
  22655132.298    -1299868.360 8   -967219.59646  22655132.118    22655141.1284
  23462999.756     -828391.34153                  23462994.617    23463016.1394
  21779864.222     -878927.183 8   -694081.26747  21779863.744    21779872.6334
  23924305.719    -1042381.588 8   -820381.19345  23924304.838    23924314.3724
  21060595.498    -1194439.141 9   -931236.79747  21060595.503    21060602.8834
  21222236.545    -1256581.755 9   -976904.40147  21222237.061    21222243.1154
 00  2 29 15 39  0.0000000  0  9 19 18 08 02 01 31 10 27 13
  20590716.840     -976637.508 9   -768882.80947  20590716.793    20590724.5764
  20949328.137     -544806.640 9   -445183.46547  20949327.902    20949335.9634
  21078489.888    -1304760.757 9  -1015455.81847  21078489.145    21078496.7844
  22643857.174    -1359120.408 8  -1013390.05046  22643856.884    22643865.9494
  23482154.163     -494787.450 8   -749958.60345  23482154.503    23482167.6944
  21784008.078     -857151.618 8   -677113.37447  21784007.635    21784016.4894
  23923092.501    -1048758.124 8   -825350.02545  23923091.619    23923101.2124
  21053063.818    -1234018.938 9   -962078.24347  21053063.767    21053071.1864
  21212666.008    -1306875.864 9  -1016094.65847  21212666.457    21212672.4884
 00  2 29 15 39 30.0000000  0  9 19 18 08 02 01 31 10 27 13
  20591030.535     -974989.333 9   -767598.58647  20591030.506    20591038.2984
  20962792.163     -474053.052 9   -390050.94347  20962791.971    20962800.0334
  21068846.234    -1355438.168 9  -1054944.75947  21068845.572    21068853.2094
  22632632.856    -1418104.550 8  -1059351.74546  22632632.604    22632641.6184
  23501345.693     -393936.330 8   -671373.62545  23501345.956    23501359.0914
  21788270.358     -834753.347 8   -659660.26147  21788269.944    21788278.8224
  23921980.611    -1054600.911 8   -829902.93345  23921979.718    23921989.5694
  21045561.839    -1273442.401 9   -992797.88547  21045561.761    21045569.2204
  21203181.231    -1356718.995 9  -1054933.50947  21203181.683    21203187.6924
 00  2 29 15 40  0.0000000  0 10 19 18 03 08 02 01 31 10 27 13
  20591391.593     -973092.019 9   -766120.23047  20591391.606    20591399.4224
  20976341.625     -402850.655 9   -334568.68447  20976341.441    20976349.4914
  24287878.307    24287872.126                                    24287890.3264
  21059231.360    -1405964.573 9  -1094316.02547  21059230.778    21059238.3684
  22621456.154    -1476839.110 8  -1105118.96046  22621455.852    22621464.9314
  23520578.445     -292868.026 8   -592619.42845  23520578.692    23520591.8384
  21792651.083     -811732.632 8   -641722.13247  21792650.712    21792659.6224
  23920972.579    -1059898.140 8   -834030.73445  23920971.796    23920981.5664
  21038087.905    -1312718.613 9  -1023402.80547  21038087.795    21038095.2794
  21193782.819    -1406108.300 9  -1093418.72747  21193783.269    21193789.2914
 00  2 29 15 40 30.0000000  0 10 19 18 03 08 02 01 31 10 27 13
  20591798.512     -970953.924 9   -764454.25247  20591798.514    20591806.3514
  20989974.790     -331208.127 9   -278743.46547  20989974.643    20989982.7224
  24302501.914     -764313.55655                  24302502.628    24302512.9844
  21049646.416    -1456333.799 9  -1133564.80947  21049645.893    21049653.4604
  22610322.248    -1535348.475 8  -1150710.70046  22610321.890    22610331.0274
  23539851.098     -191590.815 8   -513702.44445  23539851.329    23539864.2724
  21797148.955     -788096.526 8   -623304.47547  21797148.578    21797157.5734
  23920064.793    -1064668.594 8   -837748.05945  23920063.924    23920073.7314
  21030641.039    -1351852.309 9  -1053896.66047  21030640.930    21030648.4214
  21184468.164    -1455057.442 9  -1131560.95847  21184468.577    21184474.6284
 00  2 29 15 41  0.0000000  0 10 19 18 03 08 02 01 31 10 27 13
  20592253.330     -968564.044 9   -762592.07547  20592253.339    20592261.2054
  21003697.049     -259097.614 9   -222553.59547  21003696.903    21003705.0214
  24317194.697     -876639.72717   -704149.29445  24317193.657    24317207.7144
  21040095.278    -1506525.440 9  -1172675.23047  21040094.795    21040102.3774
  22599235.495    -1593609.690 8  -1196109.07947  22599235.165    22599244.4374
  23559166.481      -90089.168 8   -434610.56845  23559166.617    23559179.4804
  21801763.872     -763845.321 8   -604407.53247  21801763.493    21801772.5354
  23919255.609    -1068920.157 7   -841061.06445  23919254.734    23919264.6304
  21023223.619    -1390831.496 9  -1084270.10647  21023223.485    21023231.0254
  21175236.447    -1503570.758 9  -1169363.58747  21175236.838    21175242.9324
 00  2 29 15 41 30.0000000  0 10 19 18 03 08 02 01 31 10 27 13
  20592760.302     -965900.194 9   -760516.41447  20592760.319    20592768.2044
  21017508.600     -186517.527 9   -165997.81447  21017508.481    21017516.6584
  24331959.828     -799048.421 8   -643688.71945  24331959.835    24331972.4424
  21030578.959    -1556534.009 9  -1211643.00547  21030578.523    21030586.1104
  22588198.073    -1651611.590 8  -1241305.38447  22588197.736    22588207.1294
  23578527.208       11650.682 8   -355333.10045  23578527.235    23578540.1464
  21806495.155     -738982.278 8   -585033.82747  21806494.798    21806503.9174
  23918545.298    -1072652.018 8   -843969.07145  23918544.556    23918554.7194
  21015839.062    -1429637.896 9  -1114508.89447  21015838.937    21015846.4814
  21166088.862    -1551641.488 9  -1206821.33947  21166089.291    21166095.4404
 00  2 29 15 42  0.0000000  0 10 19 18 03 08 02 01 31 10 27 13
  20593316.974     -962975.160 9   -758237.24347  20593316.983    20593324.9074
  21031409.271     -113469.464 9   -109077.37947  21031409.158    21031417.3884
  24346799.943     -721063.098 8   -582921.13145  24346799.562    24346812.5624
  21021096.543    -1606364.282 9  -1250471.86647  21021096.148    21021103.7534
  22577211.810    -1709344.789 8  -1286292.32647  22577211.482    22577220.9444
  23597930.194      113612.961 8   -275882.31145  23597930.212    23597943.2014
  21811344.260     -713500.304 8   -565177.84147  21811343.931    21811353.0784
  23917934.278    -1075863.937 8   -846471.95545  23917933.639    23917943.5324
  21008490.429    -1468255.343 9  -1144600.45047  21008490.305    21008497.8684
  21157029.160    -1599250.771 9  -1243919.52547  21157029.573    21157035.7344
 00  2 29 15 42 30.0000000  0 10 19 18 03 08 02 01 31 10 27 13
  20593919.807     -959807.613 9   -755769.09147  20593919.806    20593927.7454
  21045396.974      -39964.175 9    -51800.66247  21045396.855    21045405.1504
  24361715.029     -642684.375 8   -521847.00445  24361714.665    24361727.6194
  21011646.897    -1656022.592 9  -1289166.73847  21011646.500    21011654.1064
  22566278.535    -1766800.045 8  -1331062.67547  22566278.121    22566287.6424
  23617372.454      215781.234 8   -196271.01345  23617372.373    23617385.4904
  21816307.887     -687416.794 8   -544853.12247  21816307.545    21816316.6964
  23917419.955    -1078568.245 8   -848579.29945  23917419.345    23917428.8584
  21001176.637    -1506690.048 9  -1174549.62447  21001176.478    21001184.0534
  21148058.483    -1646392.476 9  -1280653.36647  21148058.893    21148065.0204
 00  2 29 15 43  0.0000000  0 10 19 18 03 08 02 01 31 10 27 13
  20594568.974     -956396.728 9   -753111.32547  20594568.976    20594576.9184
  21059470.467       33991.825 9      5827.24047  21059470.322    21059478.6544
  24376702.736     -563924.598 8   -460475.94145  24376702.529    24376715.1544
  21002227.461    -1705522.334 9  -1327738.03047  21002227.091    21002234.7044
  22555396.708    -1823984.381 8  -1375621.92847  22555396.324    22555405.8544
  23636852.298      318146.868 8   -116505.93545  23636852.097    23636865.2694
  21821385.368     -660734.965 8   -524062.17847  21821385.019    21821394.1904
  23917005.115    -1080748.965 8   -850278.65545  23917004.343    23917014.0114
  20993894.481    -1544958.289 9  -1204369.09247  20993894.319    20993901.8964
  21139179.622    -1693051.525 9  -1317011.11347  21139180.010    21139186.1044
 00  2 29 15 43 30.0000000  0 10 19 18 03 08 02 01 31 10 27 13
  20595264.018     -952744.603 9   -750265.58147  20595264.015    20595271.9594
  21073629.895      108399.473 9     63807.09847  21073629.749    21073638.1084
  24391758.753     -484805.324 8   -398824.75245  24391758.637    24391771.1064
  20992837.140    -1754869.151 9  -1366190.15447  20992836.781    20992844.4124
  22544564.542    -1880907.954 8  -1419977.98847  22544564.153    22544573.6524
  23656367.939      420700.817 8    -36594.10745  23656367.678    23656380.8454
  21826579.200     -633441.728 8   -502794.81147  21826578.874    21826588.0384
  23916693.768    -1082384.657 8   -851553.31245  23916693.098    23916702.8364
  20986642.577    -1583067.619 9  -1234064.72547  20986642.420    20986650.0094
  21130395.087    -1739214.973 9  -1352982.67447  21130395.471    21130401.5704
 00  2 29 15 45 30.0000000  0 10 01 02 03 18 27 19 31 08 10 13
  23877127.188    23877120.813                    23877146.4804   22644039.566
  22644040.707    22644100.2644   24594965.672    24594960.363    24594979.5654
  21273487.275      231196.484 9    161011.34247  21273487.161    21273495.8614
  21100245.625       -7282.126 9     -5158.03947  21100245.824    21100253.5254
  20740825.721       80009.401 9     56380.74747  20740825.615    20740833.6974
  21990875.651      132235.456 8     92957.06346  21990874.764    21990884.0174
  21097902.308      -33202.560 9    -23844.07847
  21097901.816                                                    21097909.6684
  24058832.809       39560.04844                  24058832.247    24058844.0674
  21238497.215      -23380.301 9    -16906.33947  21238497.684    21238504.0094
 00  2 29 15 46  0.0000000  0 10 01 02 03 18 27 19 31 08 10 13
  23903220.616    23903212.740    23903244.4204   22639829.592    22639830.452
  22639829.8914   24616737.979      256368.79954  24616737.587    24616751.4294
  21294473.987      341482.208 9    246948.12847  21294473.842    21294482.5064
  21099524.702      -11072.371 9     -8111.53847  21099524.563    21099532.3254
  20748140.619      118448.354 9     86333.11047  20748140.361    20748148.4094
  22003052.380      196225.438 8    142819.28646  22003051.684    22003060.9764
  21095053.971      -48170.402 9    -35507.39847
  21095053.558                                                    21095061.4134
  24065423.024       91952.311 8     66543.72345  24065421.685    24065432.3894
  21236544.746      -33642.804 9    -24903.14347  21236544.816    21236551.0974
 00  2 29 15 46 30.0000000  0 10 01 02 03 18 27 19 31 08 10 13
  23774234.602    23774229.553    23774364.9054
  22480553.743     -908645.76018   -652352.26056  22480553.297    22480562.7004
  24483464.402     -346026.10017   -289373.19445  24483462.632    24483475.4804
  21160425.832     -362949.372 9   -301959.74447  21160425.032    21160433.6844
  20943717.935     -829842.247 9   -646114.11047  20943717.866    20943725.6124
  20600389.213     -657989.800 9   -518683.70247  20600389.117    20600397.1424
  21860230.339     -554308.059 8   -442012.11246  21860229.948    21860239.2514
  20937124.907     -878093.037 9   -682200.42547  20937124.461    20937132.3374
  23916988.674     -688073.285 8   -541268.51345  23916988.113    23916998.5524
  21079563.082     -858588.191 9   -667717.77547  21079562.952    21079569.1774
 00  2 29 15 47  0.0000000  0 10 01 02 03 18 27 19 31 08 10 13
  23793999.712     -510462.17554  23793999.787                    23794015.0874
  22470044.095     -963875.167 8   -695388.19147  22470043.823    22470053.0434
  24498972.474     -264525.650 7   -225866.56345  24498971.705    24498984.9154
  21175172.368     -285454.970 9   -241574.62847  21175171.823    21175180.4614
  20936660.393     -866930.766 9   -675014.32447  20936660.202    20936667.9374
  20601403.506     -652659.879 9   -514530.58847  20601403.395    20601411.4134
  21866240.788     -522723.267 8   -417400.69046  21866240.386    21866249.7174
  20927946.567     -926325.250 9   -719784.03847  20927946.174    20927954.0504
  23917364.358     -686101.061 8   -539731.81445  23917363.963    23917374.0784
  21071388.282     -901546.225 9   -701191.61047  21071388.351    21071394.5354
 00  2 29 15 47 30.0000000  0 10 01 02 03 18 27 19 31 08 10 13
  23813802.843      -96871.440 8   -429372.44845  23813802.278    23813817.8704
  22459588.348    -1018820.931 8   -738203.09747  22459588.031    22459597.2514
  24514554.684     -182637.661 7   -162057.97045  24514554.357    24514567.4764
  21190000.003     -207535.103 9   -180857.97847  21189999.568    21190008.1994
  20929638.807     -903829.748 9   -703766.84147  20929638.583    20929646.3094
  20602468.202     -647064.900 9   -510170.93647  20602468.098    20602476.1334
  21872367.087     -490529.894 8   -392315.04646  21872366.675    21872375.9884
  20918803.929     -974370.211 9   -757221.74347  20918803.534    20918811.4084
  23917836.289     -683623.233 8   -537801.17145  23917835.517    23917845.5324
  21063310.982     -943992.354 9   -734266.56247  21063311.133    21063317.3314
 00  2 29 15 48  0.0000000  0 10 01 02 03 18 27 19 31 08 10 13
  23833638.524        7365.636 8   -348149.12645  23833638.445    23833653.3674
  22449185.039    -1073490.881 8   -780803.08147  22449184.703    22449193.9534
  24530206.021     -100389.200 7    -97968.45645  24530205.783    24530218.9434
  21204904.580     -129211.110 9   -119826.42147  21204904.230    21204912.8734
  20922649.950     -940556.539 9   -732385.18147  20922649.751    20922657.4784
  20603576.987     -641238.274 9   -505630.78047  20603576.910    20603584.9524
  21878608.601     -457730.556 8   -366757.22146  21878608.214    21878617.5484
  20909693.232    -1022247.095 9   -794528.47147  20909692.851    20909700.7404
  23918404.003     -680638.431 8   -535475.44845  23918403.374    23918413.4624
  21055329.714     -985934.030 9   -766948.43647  21055329.938    21055336.1554
 00  2 29 15 48 30.0000000  0 10 01 02 03 18 27 19 31 08 10 13
  23853504.809      111762.908 8   -266800.97645  23853504.942    23853519.7124
  22438831.871    -1127897.108 8   -823197.57547  22438831.550    22438840.8334
  24545924.435      -17788.104 7    -33604.20945  24545924.011    24545937.3854
  21219888.634      -50469.683 9    -58469.59447  21219888.327    21219896.9884
  20915694.822     -977106.301 9   -760865.57447  20915694.636    20915702.3694
  20604726.599     -635197.374 9   -500923.65347  20604726.545    20604734.5874
  21884965.760     -424323.845 8   -340726.12446  21884965.414    21884974.7374
  20900611.282    -1069973.416 9   -831717.87847  20900610.918    20900618.8144
  23919069.202     -677143.643 8   -532752.33845  23919068.603    23919078.5424
  21047443.316    -1027377.485 9   -799242.08647  21047443.588    21047449.8334
 00  2 29 15 49  0.0000000  0 10 01 02 03 18 27 19 31 08 10 13
  23873402.466      216324.570 7   -185324.72745  23873402.597    23873417.2514
  22428526.317    -1182052.907 8   -865396.92347  22428525.965    22428535.3344
  24561710.975       65170.762 7     31038.80645  24561710.771    24561724.1574
  21234951.654       28686.541 9      3210.44147  21234951.399    21234960.0904
  20908773.516    -1013478.244 9   -789207.38747  20908773.347    20908781.1034
  20605916.902     -628942.255 9   -496049.59947  20605916.870    20605924.9234
  21891438.480     -390309.575 8   -314221.61146  21891438.183    21891447.4884
  20891557.769    -1117550.555 9   -868791.04247  20891557.386    20891565.2604
  23919832.234     -673133.794 7   -529627.90745  23919831.615    23919841.5444
  21039649.994    -1068331.705 9   -831154.51347  21039650.293    21039656.5534
 00  2 29 15 49 30.0000000  0 10 01 02 03 18 27 19 31 08 10 13
  23893331.202      321049.699 8   -103721.11045  23893331.260    23893345.8754
  22418266.791    -1235966.968 8   -907407.91247  22418266.427    22418275.8324
  24577561.096      148463.522 7     95942.01445  24577560.829    24577574.4124
  21250092.475      108252.048 9     65209.39847  21250092.267    21250101.0254
  20901884.088    -1049682.589 9   -817418.61447  20901883.917    20901891.6794
  20607148.015     -622472.993 9   -491008.68047  20607147.998    20607156.0534
  21898025.109     -355696.849 8   -287250.75846  21898024.853    21898034.1664
  20882534.833    -1164967.006 9   -905738.99447  20882534.452    20882542.2984
  23920689.943     -668626.404 8   -526115.76445  23920689.341    23920699.3684
  21031947.432    -1108808.738 9   -862695.10347  21031947.765    21031954.0574
 00  2 29 15 50  0.0000000  0 10 01 02 03 18 27 19 31 08 10 13
  23913287.670      425919.840 8    -22004.49045  23913287.686    23913302.2324
  22408052.984    -1289640.901 8   -949231.78647  22408052.598    22408062.0444
  24593471.295      232071.737 7    161091.06045  24593471.084    24593484.4694
  21265312.583      188233.814 9    127532.69647  21265312.400    21265321.1664
  20895026.798    -1085718.009 9   -845498.23147  20895026.654    20895034.4124
  20608423.281     -615771.750 9   -485786.99847  20608423.265    20608431.3434
  21904727.246     -320477.356 8   -259807.11646  21904726.963    21904736.3144
  20873546.088    -1212203.650 9   -942546.81647  20873545.695    20873553.5424
  23921641.798     -663625.378 8   -522218.97745  23921641.262    23921651.3134
  21024334.397    -1148815.643 9   -893869.36347  21024334.746    21024341.0444
 00  2 29 15 50 30.0000000  0 10 01 02 03 18 27 19 31 08 10 13
  23933274.219      530947.997 7     59835.25345  23933274.078    23933288.6064
  22397883.811    -1343080.262 8   -990872.88047  22397883.428    22397892.8814
  24609444.557      316011.161 7    226498.15945  24609444.475    24609457.8594
  21280612.721      268636.191 9    190183.73447  21280612.558    21280621.3834
  20888201.010    -1121587.921 9   -873448.88647  20888200.869    20888208.6384
  20609748.166     -608809.636 9   -480362.05247  20609748.158    20609756.2754
  21911543.667     -284657.126 8   -231895.35746  21911543.364    21911552.7834
  20864593.374    -1259250.766 9   -979206.96947  20864592.983    20864600.8404
  23922688.382     -658126.846 8   -517934.53345  23922687.837    23922697.7144
  21016811.842    -1188347.128 9   -924673.16747  21016812.194    21016818.4874
 00  2 29 15 51  0.0000000  0 10 01 02 03 18 27 19 31 08 10 13
  23953293.676      636149.226 8    141809.84745  23953293.389    23953307.8924
  22387761.907    -1396271.393 8  -1032320.53547  22387761.515    22387770.9334
  24625479.554      400274.302 7    292157.54345  24625479.406    24625492.7284
  21295992.448      349456.456 9    253160.42747  21295992.271    21296001.1354
  20881406.623    -1157293.203 9   -901271.24147  20881406.473    20881414.2334
  20611126.398     -601567.269 9   -474718.71847  20611126.384    20611134.5024
  21918472.763     -248245.228 8   -203522.55446  21918472.427    21918481.8904
  20855678.713    -1306097.959 9  -1015711.31047  20855678.314    20855686.2234
  23923829.781     -652129.632 8   -513261.50345  23923829.167    23923839.0744
  21009383.320    -1227384.425 9   -955091.88247  21009383.686    21009389.9704
 00  2 29 15 51 30.0000000  0  9 01 02 18 27 19 31 08 10 13
  23973345.587      741521.280 8    223917.54045  23973345.278    23973359.8284
  22377691.056    -1449194.378 8  -1073559.25747  22377690.647    22377700.0334
  21311453.458      430703.946 9    316470.01547  21311453.298    21311462.1844
  20874644.721    -1192827.712 9   -928960.52547  20874644.544    20874652.3134
  20612559.042     -594039.081 9   -468852.67247  20612559.012    20612567.1464
  21925513.211     -211248.046 8   -174693.69146  21925512.893    21925522.3574
  20846804.682    -1352731.711 9  -1052049.35147  20846804.297    20846812.2014
  23925068.258     -645622.319 8   -508190.96945  23925067.670    23925077.6394
  21002052.066    -1265910.825 9   -985112.50047  21002052.402    21002058.6924
 00  2 29 15 52  0.0000000  0  9 01 02 18 27 19 31 08 10 13
  23993427.151      847049.073 7    306146.60145  23993426.727    23993441.3864
  22367672.588    -1501842.406 8  -1114583.72947  22367672.143    22367681.5244
  21326992.302      512360.492 9    380098.34547  21326992.120    21327001.0304
  20867916.091    -1228187.138 9   -956513.38347  20867915.912    20867923.6834
  20614044.269     -586234.340 9   -462771.12847  20614044.274    20614052.4014
  21932663.881     -173671.682 8   -145413.52146  21932663.543    21932672.9974
  20837966.893    -1399174.900 9  -1088238.89647  20837966.506    20837974.4204
  23926408.329     -638580.681 8   -502704.09445  23926407.653    23926417.7614
  20994817.110    -1303931.154 9  -1014738.77247  20994817.460    20994823.7554
 00  2 29 15 52 30.0000000  0  9 01 02 18 27 19 31 08 10 13
  24013543.341      952759.063 7    388517.61645  24013542.920    24013557.6714
  22357708.910    -1554202.236 8  -1155383.62347  22357708.421    22357717.8024
  21342609.349      594428.130 9    444047.01747  21342609.159    21342618.0934
  20861224.065    -1263354.388 9   -983916.49547  20861223.885    20861231.6404
  20615582.338     -578152.486 9   -456473.65347  20615582.329    20615590.4634
  21939924.633     -135516.774 8   -115682.53446  21939924.306    21939933.7394
  20829165.917    -1445424.628 9  -1124277.69547  20829165.519    20829173.4574
  23927853.320     -630987.316 8   -496787.31945  23927852.662    23927862.6454
  20987682.140    -1341425.888 9  -1043955.50047  20987682.480    20987688.7974
 00  2 29 15 53  0.0000000  0  9 01 02 18 27 19 31 08 10 13
  24033690.557     1058632.355 8    471015.88745  24033690.151    24033705.0474
  22347800.301    -1606272.502 8  -1195957.88447  22347799.820    22347809.1944
  21358302.305      676894.483 9    508306.37547  21358302.125    21358311.0774
  20854568.901    -1298327.773 9  -1011168.53947  20854568.712    20854576.4754
  20617168.969     -569815.032 9   -449977.01447  20617168.961    20617177.0934
  21947294.653      -96787.822 8    -85504.24246  21947294.304    21947303.7344
  20820400.202    -1491488.975 9  -1160172.03247  20820399.777    20820407.7064
  23929400.610     -622856.554 8   -490451.77845  23929399.871    23929410.0364
  20980646.848    -1378396.979 9  -1072764.18647  20980647.180    20980653.4964
 00  2 29 15 53 30.0000000  0  9 01 02 18 27 19 31 08 10 13
  24053865.384     1164650.069 8    553626.70345  24053865.055    24053879.8494
  22337944.299    -1658066.585 8  -1236316.95247  22337943.783    22337953.1004
  21374069.923      759753.359 9    572871.60247  21374069.759    21374078.7174
  20847951.550    -1333102.522 9  -1038265.80547  20847951.344    20847959.1234
  20618802.741     -561230.043 9   -443287.49747  20618802.690    20618810.8314
  21954775.079      -57478.662 8    -54873.84446  21954774.695    21954784.1364
  20811669.542    -1537369.255 9  -1195922.94547  20811669.111    20811677.0484
  23931048.792     -614195.507 7   -483703.05545  23931048.120    23931058.2344
  20973709.732    -1414851.985 9  -1101170.73547  20973710.072    20973716.3684
 00  2 29 15 54  0.0000000  0  9 01 02 18 27 19 31 08 10 13
  24074068.738     1270817.362 7    636354.08345  24074068.389    24074083.2904
  22328137.630    -1709601.126 8  -1276473.76647  22328137.132    22328146.4254
  21389913.056      843008.853 9    637745.88647  21389912.871    21389921.8714
  20841373.337    -1367671.512 9  -1065202.73947  20841373.137    20841380.9234
  20620487.010     -552379.360 9   -436390.93347  20620486.994    20620495.1354
  21962368.054      -17577.686 8    -23782.27946  21962367.679    21962377.1234
  20802972.173    -1583074.758 9  -1231537.66247  20802971.712    20802979.6644
  23932793.942     -605024.959 8   -476557.26745  23932793.281    23932803.5964
  20966869.220    -1450799.562 9  -1129181.88047  20966869.518    20966875.8114
 00  2 29 15 54 30.0000000  0  9 01 02 18 27 19 31 08 10 13
  24094302.715     1377145.862 7    719207.06145  24094302.392    24094317.2134
  22318378.888    -1760883.860 8  -1316434.37747  22318378.388    22318387.7164
  21405832.607      926666.152 9    702933.26047  21405832.430    21405841.4694
  20834834.969    -1402031.235 9  -1091976.61847  20834834.754    20834842.5624
  20622223.697     -543253.383 9   -429279.86347  20622223.671    20622231.8114
  21970076.912       22932.269 8      7783.81946  21970076.572    21970086.0194
  20794309.299    -1628598.694 9  -1267010.90747  20794308.859    20794316.8004
  23934631.848     -595366.846 8   -469031.59045  23934631.230    23934641.8394
  20960126.003    -1486235.673 9  -1156794.48147  20960126.306    20960132.5964
 00  2 29 15 55  0.0000000  0  9 01 02 18 27 19 31 08 10 13
  24114565.751     1483627.249 7    802179.16945  24114565.394    24114580.4634
  22308668.142    -1811914.433 8  -1356198.48747  22308667.641    22308676.9674
  21421829.152     1010728.083 9    768435.94147  21421828.966    21421838.0224
  20828336.693    -1436180.120 9  -1118586.21147  20828336.483    20828344.2964
  20624015.100     -533839.958 9   -421944.81247  20624015.041    20624023.1954
  21977904.776       64067.291 8     39836.98046  21977904.384    21977913.9034
  20785681.121    -1673940.340 9  -1302342.11247  20785680.673    20785688.6004
  23936561.396     -585229.081 8   -461132.16145  23936560.694    23936571.0554
  20953477.064    -1521176.413 9  -1184021.07847  20953477.359    20953483.6594
 00  2 29 15 55 30.0000000  0  9 01 02 18 27 19 31 08 10 13
  24134857.701     1590260.533 7    885269.63045  24134857.255    24134872.5484
  22299003.506    -1862702.575 9  -1395773.69447  22299002.991    22299012.3354
  21437904.022     1095201.546 9    834259.29047  21437903.868    21437912.9274
  20821878.064    -1470120.914 9  -1145033.65647  20821877.824    20821885.6354
  20625863.536     -524126.819 9   -414376.21347  20625863.492    20625871.6724
  21985850.484      105821.944 8     72372.97046  21985850.092    21985859.6004
  20777087.722    -1719099.276 9  -1337530.94447  20777087.262    20777095.1944
  23938582.762     -574607.475 8   -452855.71845  23938581.975    23938592.4014
  20946919.469    -1555637.102 9  -1210873.60447  20946919.779    20946926.1004
 00  2 29 15 56  0.0000000  0  9 01 02 18 27 19 31 08 10 13
  24155178.144     1697043.414 7    968476.66245  24155177.648    24155193.0264
  22289386.392    -1913241.176 8  -1435154.45447  22289385.889    22289395.1984
  21454054.210     1180070.488 9    900390.81947  21454054.007    21454063.0854
  20815457.546    -1503861.478 9  -1171325.06947  20815457.329    20815465.0884
  20627767.705     -514120.645 9   -406579.27547  20627767.653    20627775.8524
  21993913.079      148190.760 8    105387.52846  21993912.671    21993922.2454
  20768526.473    -1764089.313 9  -1372588.16447  20768526.019    20768533.9464
  23940698.602     -563489.699 8   -444192.63145  23940697.810    23940708.1154
  20940453.180    -1589618.016 9  -1237352.28147  20940453.476    20940459.7854
 00  2 29 15 56 30.0000000  0  9 01 02 18 27 19 31 08 10 13
  24175523.843     1803959.540 7   1051787.52945  24175523.463    24175538.8524
  22279817.188    -1963527.810 8  -1474338.87347  22279816.664    22279826.0364
  21470276.014     1265316.194 9    966815.89947  21470275.817    21470284.9174
  20809071.505    -1537420.764 9  -1197475.21947  20809071.270    20809079.0394
  20629720.398     -503859.519 9   -398583.66747  20629720.342    20629728.5504
  22002089.599      191158.084 8    138868.45546  22002089.201    22002098.7924
  20759996.946    -1808912.373 9  -1407515.26647  20759996.483    20760004.4434
  23942909.290     -551872.885 7   -435140.66745  23942908.440    23942918.7284
  20934080.877    -1623104.864 9  -1263445.97147  20934081.187    20934087.4834
 00  2 29 15 57  0.0000000  0  9 01 02 18 27 19 31 08 10 13
  24195892.578     1910996.529 8   1135192.54345  24195892.131    24195907.7354
  22270293.469    -2013575.404 8  -1513337.01747  22270292.937    22270302.3074
  21486569.971     1350940.822 9   1033536.23847  21486569.787    21486578.8874
  20802716.399    -1570817.335 9  -1223498.58247  20802716.169    20802723.9774
  20631718.218     -493361.294 9   -390403.30347  20631718.169    20631726.3974
  22010374.713      234696.263 8    172794.21246  22010374.314    22010383.9414
  20751501.269    -1853557.733 9  -1442303.90047  20751500.805    20751508.7834
  23945215.546     -539752.995 8   -425696.71045  23945214.812    23945225.1234
  20927803.220    -1656094.613 9  -1289152.30847  20927803.483    20927809.7914
 00  2 29 15 57 30.0000000  0  9 01 02 18 27 19 31 08 10 13
  24216285.987     2018162.593 7   1218698.15645  24216285.474    24216301.1474
  22260813.071    -2063395.418 9  -1552157.83447  22260812.550    22260821.8934
  21502935.351     1436940.646 9   1100548.92147  21502935.158    21502944.2594
  20796390.457    -1604060.515 9  -1249402.42147  20796390.249    20796398.0774
  20633758.102     -482642.058 9   -382050.73047  20633758.046    20633766.3014
  22018765.604      278790.267 8    207153.06846  22018765.196    22018774.8424
  20743040.447    -1898019.869 9  -1476949.77147  20743039.982    20743047.9584
  23947617.224     -527132.546 8   -415862.70845  23947616.550    23947626.6074
  20921624.701    -1688563.032 9  -1314452.41947  20921624.990    20921631.2894
 00  2 29 15 58  0.0000000  0  9 01 02 18 27 19 31 08 10 13
  24236704.406     2125460.505 7   1302306.49945  24236703.968    24236719.6314
  22251377.373    -2112980.470 8  -1590795.55247  22251376.822    22251386.2004
  21519371.389     1523311.951 9   1167851.07247  21519371.179    21519380.3144
  20790094.538    -1637146.306 9  -1275183.61947  20790094.307    20790102.1274
  20635837.472     -471715.013 9   -373536.21947  20635837.417    20635845.7034
  22027262.308      323440.499 8    241945.35646  22027261.924    22027271.5774
  20734613.337    -1942304.620 9  -1511457.42747  20734612.886    20734620.8664
  23950113.538     -514014.496 8   -405640.96545  23950112.852    23950122.8794
  20915547.902    -1720497.144 9  -1339336.18547  20915548.177    20915554.4684
 00  2 29 15 58 30.0000000  0  9 01 02 18 27 19 31 08 10 13
  24257150.091     2232901.706 8   1386026.47745  24257149.694    24257165.4374
  22241984.862    -2162338.530 9  -1629256.38947  22241984.355    22241993.6904
  21535882.377     1610077.127 9   1235460.13947  21535882.179    21535891.3474
  20783828.780    -1670073.508 9  -1300841.23747  20783828.525    20783836.3544
  20637957.002     -460577.203 9   -364857.47647  20637956.960    20637965.2544
  22035862.457      368633.947 8    277160.92046  22035862.070    22035871.7174
  20726222.901    -1986396.869 9  -1545815.08647  20726222.465    20726230.4724
  23952702.208     -500413.122 8   -395042.62545  23952701.519    23952711.1794
  20909571.886    -1751901.759 9  -1363807.36247  20909572.144    20909578.4534
 00  2 29 15 59  0.0000000  0  9 01 02 18 27 19 31 08 10 13
  24277623.770     2340489.467 7   1469860.70045  24277623.331    24277639.1074
  22232636.283    -2211465.717 9  -1667537.32947  22232635.777    22232645.1334
  21552469.654     1697243.200 9   1303381.59447  21552469.466    21552478.6524
  20777595.621    -1702829.162 9  -1326365.17747  20777595.390    20777603.2414
  20640121.094     -449205.275 9   -355996.29747  20640121.031    20640129.3444
  22044566.347      414372.688 8    312801.38746  22044565.904    22044575.6164
  20717868.576    -2030299.246 9  -1580024.77847  20717868.128    20717876.1244
  23955382.916     -486326.468 8   -384066.16745  23955382.213    23955391.8044
  20903693.005    -1782795.615 9  -1387880.54147  20903693.254    20903699.6034
 00  2 29 15 59 30.0000000  0  9 01 02 18 27 19 31 08 10 13
  24298125.690     2448226.066 7   1553810.88345  24298125.367    24298141.2214
  22223334.635    -2260346.400 9  -1705626.18547  22223334.146    22223343.5014
  21569130.532     1784796.170 9   1371604.53047  21569130.352    21569139.5834
  20771398.762    -1735394.103 9  -1351740.51847  20771398.540    20771406.4074
  20642333.133     -437581.059 9   -346938.53247  20642333.070    20642341.4144
  22053377.432      460674.653 8    348880.71846  22053377.015    22053386.7734
  20709546.923    -2074030.151 9  -1614100.84347  20709546.459    20709554.4774
  23958154.207     -471764.325 8   -372719.15145  23958153.396    23958162.6874
  20897913.031    -1813169.718 9  -1411548.72047  20897913.296    20897919.6464
 00  2 29 16  0  0.0000000  0  9 01 02 18 27 19 31 08 10 13
  24318652.217     2556093.208 7   1637862.73845  24318651.936    24318668.1314
  22214082.307    -2308967.797 9  -1743513.00247  22214081.851    22214091.1804
  21585862.973     1872725.093 9   1440120.41047  21585862.798    21585872.0844
  20765240.346    -1767757.129 9  -1376958.52247  20765240.113    20765247.9944
  20644594.414     -425698.406 9   -337679.39247  20644594.355    20644602.7154
  22062295.867      507541.087 8    385399.88546  22062295.470    22062305.2854
  20701257.616    -2117591.090 9  -1648044.47947  20701257.158    20701265.1804
  23961017.499     -456718.179 8   -360995.03545  23961016.724    23961026.0744
  20892230.355    -1843032.475 9  -1434818.45047  20892230.640    20892237.0034
 00  2 29 16  0 30.0000000  0  9 01 02 18 27 19 31 08 10 13
  24339202.300     2664083.138 8   1722010.31245  24339202.091    24339218.2004
  22204878.519    -2357334.091 9  -1781201.03847  22204878.063    22204887.3944
  21602665.621     1961022.931 9   1508923.75447  21602665.416    21602674.7604
  20759118.887    -1799925.542 9  -1402024.86847  20759118.681    20759126.5844
  20646907.476     -413543.549 9   -328208.13747  20646907.393    20646915.7844
  22071323.650      554981.873 8    422366.60846  22071323.241    22071333.0724
  20693003.292    -2160967.842 9  -1681844.58547  20693002.832    20693010.8674
  23963971.294     -441196.846 8   -348900.59345  23963970.468    23963979.7744
  20886647.952    -1872368.489 9  -1457677.73147  20886648.224    20886654.5984
 00  2 29 16  1  0.0000000  0  9 01 02 18 27 19 31 08 10 13
  24359774.033     2772186.215 7   1806246.08245  24359773.928    24359789.9404
  22195723.990    -2405441.604 9  -1818687.42347  22195723.510    22195732.8664
  21619533.996     2049666.098 9   1577996.18047  21619533.788    21619543.1864
  20753034.305    -1831900.691 9  -1426940.61747  20753034.093    20753042.0284
  20649273.156     -401111.962 9   -318521.24747  20649273.086    20649281.5004
  22080465.321      603021.167 8    459799.69146  22080464.912    22080474.7964
  20684783.660    -2204162.575 9  -1715502.85247  20684783.222    20684791.2604
  23967015.172     -425202.893 8   -336437.88645  23967014.142    23967024.0764
  20881168.183    -1901165.054 9  -1480116.66247  20881168.478    20881174.8494
 00  2 29 16  1 30.0000000  0  9 01 02 18 27 19 31 08 10 13
  24380366.644     2880400.001 8   1890568.05245  24380366.622    24380382.8384
  22186618.185    -2453292.712 9  -1855974.01947  22186617.764    22186627.1314
  21636467.314     2138650.640 9   1647334.60247  21636467.125    21636476.5194
  20746985.799    -1863686.188 9  -1451708.57747  20746985.581    20746993.5164
  20651691.697     -388402.692 9   -308617.98647  20651691.631    20651700.0824
  22089720.906      651658.882 8    497699.07246  22089720.495    22089730.3594
  20676600.698    -2247164.657 9  -1749011.01247  20676600.247    20676608.3054
  23970147.089     -408742.834 8   -323612.00045  23970146.242    23970156.9244
  20875792.432    -1929414.968 9  -1502129.63547  20875792.729    20875799.1114
 00  2 29 16  2  0.0000000  0  9 01 02 18 27 19 31 08 10 13
  24400978.393     2988713.246 7   1974967.57045  24400978.265    24400994.7404
  22177559.532    -2500896.592 9  -1893067.97047  22177559.055    22177568.4814
  21653466.107     2227979.267 9   1716941.14447  21653465.937    21653475.3614
  20740973.040    -1895283.582 9  -1476329.95847  20740972.833    20740980.7834
  20654164.312     -375409.244 9   -298493.28747  20654164.259    20654172.7354
  22099087.190      700878.380 8    536051.78046  22099086.781    22099096.6444
  20668458.267    -2289953.668 9  -1782353.14447  20668457.834    20668465.8784
  23973370.607     -391804.083 8   -310413.06645  23973369.721    23973380.7644
  20870518.104    -1957131.841 9  -1523727.25347  20870518.411    20870524.8254
 00  2 29 16  2 30.0000000  0  9 01 02 18 27 19 31 08 10 13
  24421610.876     3097135.872 7   2059452.29345  24421610.649    24421627.2104
  22168546.141    -2548262.272 9  -1929976.31247  22168545.705    22168555.1434
  21670530.135     2317650.618 8   1786814.75247  21670529.954    21670539.4544
  20734995.102    -1926697.941 9  -1500808.72347  20734994.922    20735002.8794
  20656693.207     -362120.133 9   -288138.20447  20656693.169    20656701.6504
  22108563.735      750677.473 8    574856.12846  22108563.320    22108573.1894
  20660357.807    -2332522.152 9  -1815523.42847  20660357.352    20660365.4364
  23976683.852     -374392.581 8   -296845.78945  23976683.048    23976694.2604
  20865343.411    -1984325.482 9  -1544917.15447  20865343.703    20865350.1184
 00  2 29 16  3  0.0000000  0  9 01 02 18 27 19 31 08 10 13
  24442264.364     3205669.320 7   2144023.41345  24442264.223    24442280.7574
  22159577.810    -2595391.402 9  -1966700.33647  22159577.354    22159586.7744
  21687659.392     2407664.975 8   1856955.62147  21687659.216    21687668.8114
  20729054.010    -1957918.793 9  -1525136.70647  20729053.815    20729061.8044
  20659276.644     -348544.541 9   -277559.89347  20659276.580    20659285.0694
  22118146.366      801034.189 8    614094.98546  22118145.986    22118155.9244
  20652297.756    -2374878.178 9  -1848528.16647  20652297.322    20652305.3984
  23980089.939     -356493.135 8   -282898.31345  23980089.120    23980100.2294
  20860263.422    -2011021.194 9  -1565719.05947  20860263.720    20860270.1474
 00  2 29 16  3 30.0000000  0  9 01 02 18 27 19 31 08 10 13
  24462937.113     3314303.354 7   2228672.89345  24462936.780    24462953.4884
  22150652.854    -2642292.384 9  -2003246.59047  22150652.372    22150661.8104
  21704854.665     2498026.090 8   1927366.70447  21704854.491    21704864.1474
  20723152.451    -1988932.046 9  -1549302.92147  20723152.260    20723160.2364
  20661913.619     -334687.334 9   -266762.14047  20661913.575    20661922.0834
  22127828.898      851915.544 8    653742.65246  22127828.493    22127838.4754
  20644277.659    -2417024.136 9  -1881369.21047  20644277.254    20644285.3484
  23983590.082     -338100.704 8   -268566.67745  23983589.287    23983600.2664
  20855278.489    -2037217.491 9  -1586131.80747  20855278.781    20855285.2194
 00  2 29 16  4  0.0000000  0  9 01 02 18 27 19 31 08 10 13
  24483630.209     3423043.930 7   2313405.36545  24483629.874    24483646.7114
  22141773.033    -2688956.237 9  -2039608.06947  22141772.550    22141782.0134
  21722116.417     2588736.504 8   1998049.96247  21722116.271    21722125.9284
  20717292.456    -2019726.579 9  -1573298.70847  20717292.277    20717300.2794
  20664602.590     -320556.941 9   -255751.51947  20664602.543    20664611.0734
  22137610.402      903317.596 8    693796.05646  22137610.031    22137620.0834
  20636296.909    -2458963.561 9  -1914049.32347  20636296.499    20636304.6104
  23987187.185     -319196.612 8   -253836.33445  23987186.536    23987197.8994
  20850390.875    -2062902.478 9  -1606146.13447  20850391.154    20850397.5894
 00  2 29 16  4 30.0000000  0  9 01 02 18 27 19 31 08 10 13
  24504344.972     3531898.636 8   2398226.80945  24504344.714    24504361.4874
  22132939.807    -2735375.537 9  -2075778.99447  22132939.285    22132948.7554
  21739447.063     2679808.921 8   2069015.30347  21739446.904    21739456.6064
  20711473.027    -2050308.215 9  -1597128.60747  20711472.836    20711480.8414
  20667340.211     -306171.139 9   -244541.88547  20667340.138    20667348.6954
  22147492.513      955247.738 8    734260.96346  22147492.160    22147502.2124
  20628351.884    -2500715.337 9  -1946583.20147  20628351.459    20628359.5824
  23990878.601     -299800.378 8   -238722.49345  23990877.931    23990889.1074
  20845602.871    -2088063.688 9  -1625752.32247  20845603.159    20845609.5984
 00  2 29 16  5  0.0000000  0  9 01 02 18 27 19 31 08 10 13
  24525079.008     3640854.668 7   2483127.24645  24525078.790    24525095.7574
  22124155.309    -2781538.495 9  -2111750.17547  22124154.826    22124164.2924
  21756849.548     2771259.067 8   2140274.97947  21756849.386    21756859.1504
  20705696.108    -2080666.289 9  -1620784.30247  20705695.915    20705703.9274
  20670126.351     -291530.199 9   -233133.43847  20670126.289    20670134.8824
  22157473.853     1007699.459 8    775132.29946  22157473.500    22157483.5584
  20620440.467    -2542290.487 9  -1978979.46147  20620440.006    20620448.1564
  23994662.294     -279916.063 8   -223228.36145  23994661.671    23994672.8544
  20840918.935    -2112678.280 9  -1644932.57647  20840919.232    20840925.6744
 00  2 29 16  5 30.0000000  0  9 01 02 18 27 19 31 08 10 13
  24545833.581     3749919.159 8   2568112.11245  24545833.301    24545850.3834
  22115422.406    -2827430.347 9  -2147510.10247  22115421.912    22115431.3934
  21774325.423     2863094.576 8   2211834.92047  21774325.248    21774335.0394
  20699963.138    -2110793.413 9  -1644260.03547  20699962.944    20699970.9784
  20672964.933     -276613.851 9   -221510.38547  20672964.874    20672973.4774
  22167558.212     1060692.457 8    816425.41446  22167557.859    22167567.9284
  20612567.042    -2583665.874 9  -2011220.05847  20612566.577    20612574.7234
  23998538.024     -259550.062 7   -207358.88145  23998537.369    23998548.3914
  20836343.191    -2136724.179 9  -1663669.68747  20836343.479    20836349.9394
 00  2 29 16  6  0.0000000  0  9 01 02 18 27 19 31 08 10 13
  24566610.025     3859098.408 7   2653186.48345  24566609.781    24566626.7144
  22106742.570    -2873043.246 9  -2183052.66347  22106742.111    22106751.6054
  21791874.766     2955316.036 8   2283695.62447  21791874.579    21791884.4394
  20694271.151    -2140705.175 9  -1667567.95547  20694270.984    20694279.0224
  20675856.726     -261417.571 9   -209669.20947  20675856.682    20675865.2874
  22177750.365     1114252.069 8    858160.04646  22177750.033    22177760.1424
  20604731.397    -2624842.535 9  -2043305.82247  20604730.941    20604739.0954
  24002504.037     -238708.379 8   -191118.76445  24002503.483    24002514.2064
  20831875.414    -2160202.698 9  -1681964.68747  20831875.712    20831882.1754
 00  2 29 16  6 30.0000000  0  8 02 18 27 19 31 08 10 13
  22098119.487    -2918358.160 9  -2218363.03047  22098119.020    22098128.5154
  21809500.401     3047938.783 8   2355869.01947  21809500.227    21809510.0994
  20688624.836    -2170377.092 9  -1690688.97147  20688624.643    20688632.6984
  20678809.250     -245902.266 9   -197579.43247  20678809.178    20678817.8144
  22188056.676     1168411.685 8    900362.22146  22188056.328    22188066.5034
  20596940.168    -2665785.549 9  -2075209.51747  20596939.745    20596947.9164
  24006563.174     -217380.894 7   -174500.03845  24006562.513    24006572.6454
  20827520.090    -2183090.191 9  -1699799.14147  20827520.408    20827526.9044
 00  2 29 16  7  0.0000000  0  8 02 18 27 19 31 08 10 13
  22089546.788    -2963408.220 9  -2253467.01647  22089546.305    22089555.8124
  21827192.309     3140909.542 8   2428313.57947  21827192.149    21827202.0354
  20683018.854    -2199837.158 9  -1713644.91847  20683018.624    20683026.6744
  20681816.076     -230101.367 9   -185267.11947  20681816.027    20681824.6644
  22198471.234     1223139.996 8    943007.53146  22198470.878    22198481.1404
  20589190.591    -2706510.201 9  -2106943.06447  20589190.150    20589198.3274
  24010711.214     -195582.332 7   -157514.33445  24010710.541    24010721.1334
  20823270.128    -2205424.077 9  -1717202.21547  20823270.440    20823276.9494
 00  2 29 16  7 30.0000000  0  8 02 18 27 19 31 08 10 13
  22081017.555    -3008229.731 9  -2288392.90747  22081017.070    22081026.6294
  21844941.431     3234181.285 8   2500992.68047  21844941.281    21844951.2304
  20677446.835    -2229118.516 9  -1736461.61247  20677446.631    20677454.6994
  20684869.238     -214057.207 9   -172765.25047  20684869.163    20684877.8264
  22208991.518     1278423.527 8    986085.49546  22208991.115    22209001.3814
  20581478.547    -2747037.527 9  -2138522.85547  20581478.109    20581486.2894
  24014942.532     -173345.065 7   -140186.74745  24014941.813    24014953.0514
  20819119.297    -2227237.149 9  -1734199.45847  20819119.593    20819126.1084
 00  2 29 16  8  0.0000000  0  8 02 18 27 19 31 08 10 13
  22072531.903    -3052822.541 9  -2323140.59047  22072531.395    22072540.9804
  21862747.230     3327750.688 8   2573903.73447  21862747.075    21862757.0714
  20671910.028    -2258214.764 9  -1759134.06947  20671909.825    20671917.9164
  20687965.630     -197785.717 9   -160086.24547  20687965.579    20687974.2594
  22219617.229     1334261.495 8   1029595.47946  22219616.879    22219627.1214
  20573802.061    -2787378.028 9  -2169957.07147  20573801.633    20573809.8224
  24019256.619     -150674.063 7   -122521.15245  24019255.985    24019267.2624
  20815069.308    -2248520.335 9  -1750783.80447  20815069.587    20815076.1144
 00  2 29 16  8 30.0000000  0  8 02 18 27 19 31 08 10 13
  22064089.330    -3097188.655 9  -2357711.62647  22064088.849    22064098.4284
  21880609.582     3421617.155 8   2647046.25447  21880609.419    21880619.4834
  20666411.477    -2287110.284 9  -1781650.11147  20666411.261    20666419.3484
  20691106.090     -181282.899 9   -147226.97747  20691106.035    20691114.7344
  22230346.436     1390643.298 8   1073529.23146  22230346.082    22230356.3904
  20566162.171    -2827526.200 9  -2201241.41947  20566161.722    20566169.9114
  24023653.164     -127571.465 8   -104519.28445  24023652.431    24023663.6734
  20811119.206    -2269278.493 9  -1766959.03147  20811119.482    20811126.0144
 00  2 29 16  9  0.0000000  0  9 02 18 27 19 31 08 10 07 13
  22055690.771    -3141323.865 9  -2392102.74047  22055690.263    22055699.8134
  21898528.670     3515781.577 8   2720420.94747  21898528.494    21898538.5444
  20660952.979    -2315795.181 9  -1804002.01947  20660952.750    20660960.8224
  20694292.688     -164537.725 9   -134178.86247  20694292.629    20694301.3154
  22241179.496     1447570.748 8   1117888.16046  22241179.082    22241189.4274
  20558559.292    -2867479.925 9  -2232374.24247  20558558.856    20558567.0224
  24028131.467     -104039.707 8    -86182.96345  24028130.720    24028141.6264
  24652776.586    -2574900.732 7  -1994526.15645  24652776.068    24652791.3794
  20807270.516    -2289503.762 9  -1782719.02247  20807270.796    20807277.3334
 00  2 29 16  9 30.0000000  0  9 02 18 27 19 31 08 10 07 13
  22047336.056    -3185228.462 9  -2426314.15247  22047335.517    22047345.0704
  21916507.789     3610261.516 8   2794041.48447  21916507.557    21916517.6274
  20655538.292    -2344249.817 9  -1826174.50147  20655538.058    20655546.1424
  20697531.853     -147516.514 9   -120915.65247  20697531.747    20697540.4234
  22252115.774     1505040.620 8   1162669.76246  22252115.341    22252125.7024
  20550993.461    -2907238.932 9  -2263355.33747  20550993.003    20551001.1944
  24032689.804      -80086.053 8    -67517.93345  24032688.995    24032700.3474
  24632588.560    -2680990.436 7  -2077193.48345  24632587.984    24632603.3074
  20803525.577    -2309183.776 9  -1798054.13847  20803525.849    20803532.3894
 00  2 29 16 10  0.0000000  0  9 02 18 27 19 31 08 10 07 13
  22039029.355    -3228880.653 9  -2460328.88347  22039028.798    22039038.3844
  21934551.991     3705083.706 8   2867928.71147  21934551.766    21934561.8654
  20650172.860    -2372445.669 9  -1848145.33847  20650172.623    20650180.7124
  20700831.149     -130178.851 9   -107405.86347  20700831.043    20700839.7254
  22263155.830     1563055.901 8   1207876.35146  22263155.398    22263165.7604
  20543468.256    -2946784.630 9  -2294170.21147  20543467.773    20543475.9684
  24037334.254      -55679.159 7    -48499.69045  24037333.570    24037344.9704
  24612407.689    -2787041.579 7  -2159830.78045  24612407.115    24612422.4714
  20799885.260    -2328313.897 9  -1812960.76647  20799885.539    20799892.0784
 00  2 29 16 10 30.0000000  0  9 02 18 27 19 31 08 10 07 13
  22030768.471    -3272292.162 9  -2494156.06347  22030767.937    22030777.5204
  21952660.482     3800243.496 8   2942078.99547  21952660.269    21952670.3614
  20644853.744    -2400398.183 9  -1869926.55947  20644853.495    20644861.5784
  20704195.411     -112499.894 9    -93630.12647  20704195.314    20704204.0134
  22274297.396     1621604.670 8   1253498.64446  22274296.955    22274307.3344
  20535984.486    -2986112.198 9  -2324815.11847  20535984.004    20535992.2134
  24042065.839      -30813.440 7    -29123.98345  24042065.185    24042077.1774
  24592233.750    -2893056.905 7  -2242440.17045  24592233.142    24592248.5554
  20796346.555    -2346910.161 9  -1827451.40147  20796346.819    20796353.3664
 00  2 29 16 11  0.0000000  0  9 02 18 27 19 31 08 10 07 13
  22022553.019    -3315464.632 9  -2527796.97447  22022552.504    22022562.0744
  21970833.129     3895740.327 8   3016491.90746  21970832.869    21970843.0204
  20639577.627    -2428124.610 9  -1891531.61147  20639577.368    20639585.4634
  20707623.364      -94486.270 9    -79593.61447  20707623.261    20707631.9674
  22285539.334     1680680.632 8   1299531.74246  22285538.872    22285549.2684
  20528542.915    -3025218.265 9  -2355287.42747  20528542.426    20528550.6324
  24046884.432       -5492.901 8     -9393.80045  24046883.888    24046895.7384
  24572064.260    -2999048.456 7  -2325031.04145  24572063.644    24572078.9724
  20792911.229    -2364963.149 9  -1841518.70347  20792911.497    20792918.0394
 00  2 29 16 11 30.0000000  0  9 02 18 27 19 31 08 10 07 13
  22014386.504    -3358380.147 9  -2561237.66347  22014385.978    22014395.5594
  21989072.147     3991586.138 8   3091176.74546  21989071.892    21989082.0804
  20634342.081    -2455637.729 9  -1912970.44247  20634341.822    20634349.9254
  20711112.960      -76148.734 9    -65304.70247  20711112.835    20711121.5554
  22296879.954     1740275.463 8   1345969.14046  22296879.481    22296889.9414
  20521143.979    -3064100.397 9  -2385585.24047  20521143.478    20521151.6874
  24051792.023       20295.833 7     10701.15945  24051791.341    24051803.4134
  24551897.978    -3105022.959 7  -2407608.64145  24551897.405    24551912.6684
  20789580.533    -2382466.368 9  -1855157.61347  20789580.783    20789587.3394
 00  2 29 16 12  0.0000000  0  9 02 18 27 19 31 08 10 07 13
  22006269.414    -3401036.170 9  -2594476.14947  22006268.867    22006278.4664
  22007372.801     4087756.014 8   3166114.10746  22007372.553    22007382.7994
  20629143.330    -2482957.612 9  -1934258.69747  20629143.061    20629151.1784
  20714659.153      -57513.625 9    -50783.91647  20714659.030    20714667.7624
  22308319.936     1800392.343 8   1392813.34246  22308319.442    22308329.8924
  20513788.510    -3102753.743 9  -2415704.77147  20513788.010    20513796.2054
  24056788.848       46553.887 8     31161.81845  24056788.182    24056800.5874
  24531733.744    -3210986.827 7  -2490177.93845  24531733.134    24531748.3994
  20786354.855    -2399417.800 9  -1868366.56047  20786355.096    20786361.6634
 00  2 29 16 12 30.0000000  0  9 02 18 27 19 31 08 10 07 13
  21998200.481    -3443438.847 9  -2627517.21747  21998199.943    21998209.5074
  22025732.234     4184234.577 8   3241292.00446  22025731.973    22025742.2744
  20623978.710    -2510098.149 9  -1955407.20847  20623978.427    20623986.5454
  20718257.732      -38603.561 9    -36048.87847  20718257.589    20718266.3434
  22319858.413     1861026.859 8   1440060.87846  22319857.903    22319868.3764
  20506476.631    -3141178.214 9  -2445645.95947  20506476.122    20506484.3424
  24061872.606       73267.482 8     51977.47445  24061871.952    24061883.8224
  24511571.582    -3316940.322 7  -2572739.16045  24511571.062    24511586.0274
  20783237.683    -2415798.962 9  -1881131.14447  20783237.914    20783244.4864
 00  2 29 16 13  0.0000000  0  9 02 18 27 19 31 08 10 07 13
  21990181.679    -3485578.351 9  -2660353.21047  21990181.114    21990190.6664
  22044150.114     4281020.561 8   3316709.45946  22044149.823    22044160.2164
  20618852.705    -2537035.576 9  -1976397.46247  20618852.425    20618860.5594
  20721904.429      -19440.376 9    -21116.60647  20721904.284    20721913.0404
  22331494.999     1922177.154 8   1487710.32746  22331494.508    22331505.0084
  20499206.270    -3179384.533 9  -2475417.15047  20499205.755    20499213.9774
  24067041.748      100429.089 7     73142.21445  24067040.855    24067052.4284
  24491412.517    -3422877.228 7  -2655287.45345  24491412.098    24491427.1094
  20780229.966    -2431604.829 9  -1893447.44947  20780230.186    20780236.7654
 00  2 29 16 13 30.0000000  0  9 02 18 27 19 31 08 10 07 13
  21982211.455    -3527462.118 9  -2692989.93947  21982210.892    21982220.4634
  22062626.150     4378112.126 8   3392365.03946  22062625.912    22062636.3544
  20613769.617    -2563747.694 9  -1997212.15347  20613769.324    20613777.4684
  20725601.332         -13.572 9     -5978.90847  20725601.165    20725609.9244
  22343228.874     1983838.578 8   1535758.06246  22343228.424    22343238.9054
  20491975.880    -3217380.878 9  -2505024.71247  20491975.341    20491983.5834
  24072297.326      128047.474 8     94662.88045  24072296.565    24072307.8584
  24471259.291    -3528782.905 7  -2737811.41545  24471258.810    24471273.9654
  20777329.847    -2446845.302 9  -1905323.18547  20777330.074    20777336.6414
 00  2 29 16 14  0.0000000  0  9 02 18 27 19 31 08 10 07 13
  21974285.205    -3569114.928 9  -2725446.68447  21974284.629    21974294.1954
  22081160.509     4475510.077 8   3468259.37446  22081160.251    22081170.7534
  20608732.580    -2590217.892 9  -2017838.33847  20608732.251    20608740.3834
  20729348.436       19677.376 9      9364.61647  20729348.281    20729357.0564
  22355060.312     2046012.685 8   1584205.28146  22355059.884    22355070.4044
  20484785.828    -3255165.024 9  -2534466.93047  20484785.298    20484793.5364
  24077638.542      156114.636 7    116533.22745  24077637.638    24077649.1644
  24451112.633    -3634654.968 7  -2820309.18845  24451111.977    24451127.2934
  20774535.359    -2461530.773 9  -1916766.45347  20774535.568    20774542.1384
 00  2 29 16 14 30.0000000  0  9 02 18 27 19 31 08 10 07 13
  21966401.882    -3610542.229 9  -2757727.70347  21966401.307    21966410.8904
  22099758.789     4573243.971 8   3544415.48346  22099758.565    22099769.1074
  20603742.757    -2616439.868 9  -2038271.09947  20603742.436    20603750.5884
  20733147.306       39640.176 9     24919.96947  20733147.151    20733155.9354
  22366987.182     2108688.279 8   1633043.27246  22366986.707    22366997.2774
  20477634.235    -3292747.135 9  -2563751.72647  20477633.689    20477641.9484
  24083062.683      184619.567 8    138744.69845  24083061.932    24083073.4824
  24430969.910    -3740505.598 7  -2902790.24045  24430969.262    24430984.7274
  20771844.906    -2475669.417 9  -1927783.62247  20771845.121    20771851.6794
 00  2 29 16 15  0.0000000  0  9 02 18 27 19 31 08 10 07 13
  21958562.770    -3651737.288 9  -2789827.76147  21958562.164    21958571.7284
  22118423.486     4671326.892 8   3620843.55346  22118423.244    22118433.8454
  20598801.922    -2642404.066 9  -2058502.99547  20598801.616    20598809.7864
  20737000.513       59888.557 9     40697.85147  20737000.353    20737009.1434
  22379010.541     2171870.749 8   1682276.23946  22379010.044    22379020.6294
  20470522.592    -3330119.237 9  -2592872.87647  20470522.052    20470530.2804
  24088569.525      213557.323 7    161293.44845  24088568.611    24088580.0444
  24410829.803    -3846342.248 7  -2985260.39645  24410829.225    24410844.5524
  20769258.662    -2489260.325 9  -1938373.98447  20769258.891    20769265.4644
 00  2 29 16 15 30.0000000  0  9 02 18 27 19 31 08 10 07 13
  21950766.733    -3692705.839 9  -2821751.32847  21950766.121    21950775.6944
  22137153.144     4769751.105 8   3697537.54246  22137152.898    22137163.5474
  20593907.361    -2668125.542 9  -2078545.76147  20593907.055    20593915.2034
  20740908.609       80425.500 9     56700.58647  20740908.448    20740917.2454
  22391132.200     2235569.891 8   1731911.79346  22391131.732    22391142.3454
  20463454.090    -3367264.552 9  -2621817.30347  20463453.546    20463461.7544
  24094159.527      242931.954 7    184182.57845  24094158.730    24094170.2934
  24390694.215    -3952155.794 7  -3067712.54145  24390693.645    24390708.9844
  20766780.119    -2502285.521 9  -1948523.53647  20766780.327    20766786.9074
 00  2 29 16 16  0.0000000  0  9 02 18 27 19 31 08 10 07 13
  21943013.364    -3733449.981 9  -2853500.02247  21943012.768    21943022.3554
  22155943.585     4868494.776 8   3774480.46946  22155943.329    22155954.0344
  20589056.814    -2693615.666 9  -2098408.24147  20589056.473    20589064.6394
  20744867.775      101230.644 9     72912.31147  20744867.607    20744876.4354
  22403354.213     2299796.522 8   1781958.38346  22403353.771    22403364.3994
  20456429.885    -3404177.173 9  -2650580.41347  20456429.349    20456437.5534
  24099828.928      272725.255 8    207397.95145  24099828.026    24099839.6124
  24370563.195    -4057945.347 7  -3150145.97745  24370562.550    24370577.8964
  20764410.043    -2514740.606 9  -1958228.84847  20764410.228    20764416.8344
 00  2 29 16 16 30.0000000  0  9 02 18 27 19 31 08 10 07 13
  21935304.026    -3773962.908 9  -2885068.54347  21935303.425    21935313.0124
  22174788.852     4967526.378 8   3851647.75146  22174788.563    22174799.2864
  20584251.301    -2718869.033 9  -2118086.22947  20584250.979    20584259.1654
  20748880.273      122316.220 9     89342.54947  20748880.109    20748888.9574
  22415676.373     2364549.345 8   1832414.97846  22415675.890    22415686.5434
  20449449.828    -3440857.646 9  -2679162.62247  20449449.281    20449457.5614
  24105578.002      302934.399 7    230937.39745  24105577.158    24105588.5054
  24350438.976    -4163699.122 8  -3232551.54045  24350438.322    24350453.7024
  20762151.423    -2526609.689 9  -1967477.53247  20762151.651    20762158.2454
 00  2 29 16 17  0.0000000  0  9 02 18 27 19 31 08 10 07 13
  21927638.462    -3814245.737 9  -2916457.76247  21927637.862    21927647.4674
  22193681.440     5066806.781 8   3929008.90546  22193681.164    22193691.9484
  20579493.454    -2743872.072 9  -2137569.15747  20579493.123    20579501.3434
  20752946.951      143686.192 9    105994.39347  20752946.784    20752955.6524
  22428099.566     2429833.100 8   1883285.30246  22428099.110    22428109.7524
  20442515.613    -3477297.479 9  -2707557.32247  20442515.061    20442523.3304
  24111408.332      333574.242 7    254812.42045  24111407.699    24111418.9034
  24330324.595    -4269400.631 7  -3314916.34445  24330323.997    24330339.5894
  20760004.188    -2537893.885 9  -1976270.46547  20760004.398    20760010.9844
 00  2 29 16 17 30.0000000  0  9 02 18 27 19 31 08 10 07 13
  21920015.917    -3854302.688 9  -2947670.97947  21920015.319    21920024.8924
  22212615.885     5166306.929 8   4006541.26746  22212615.566    22212626.3444
  20574782.209    -2768630.209 9  -2156861.25847  20574781.865    20574790.0854
  20757067.151      165337.776 9    122865.67547  20757066.991    20757075.8774
  22440621.436     2495635.212 8   1934559.53846  22440620.921    22440631.6694
  20435625.806    -3513503.530 9  -2735769.85247  20435625.261    20435633.5354
  24117323.336      364655.879 7    279031.70845  24117322.665    24117333.7344
  24310220.796    -4375046.765 7  -3397238.00745  24310220.433    24310235.8404
  20757964.619    -2548612.211 9  -1984622.46347  20757964.820    20757971.4114
 00  2 29 16 18  0.0000000  0  9 02 18 27 19 31 08 10 07 13
  21912437.189    -3894129.140 9  -2978704.60347  21912436.586    21912446.1884
  22231593.107     5266032.164 8   4084249.02446  22231592.808    22231603.6344
  20570119.240    -2793134.356 9  -2175955.45647  20570118.893    20570127.1324
  20761243.274      187283.055 9    139965.80447  20761243.120    20761252.0204
  22453237.968     2561934.791 8   1986221.39546  22453237.457    22453248.1704
  20428777.727    -3549490.579 9  -2763811.72847  20428777.192    20428785.4474
  24123320.844      396171.547 8    303589.21645  24123320.042    24123331.0344
  24290124.812    -4480652.612 7  -3479528.26145  24290124.337    24290139.5754
  20756028.701    -2558785.774 9  -1992549.97147  20756028.890    20756035.5184
 00  2 29 16 18 30.0000000  0  9 02 18 27 19 31 08 10 07 13
  21904904.447    -3933714.033 9  -3009549.99047  21904903.861    21904913.4834
  22250616.167     5365997.878 8   4162144.16646  22250615.859    22250626.7164
  20565505.346    -2817380.609 9  -2194848.68947  20565505.017    20565513.2904
  20765478.885      209540.935 9    157309.52947  20765478.718    20765487.6424
  22465945.522     2628712.796 8   2038256.06246  22465945.029    22465955.7514
  20421969.505    -3585268.253 9  -2791690.44547  20421968.955    20421977.2094
  24129402.426      428131.387 8    328492.79945  24129401.623    24129413.3264
  24270036.986    -4586214.837 8  -3561784.49045  24270036.594    24270051.8344
  20754195.035    -2568421.857 9  -2000058.66047  20754195.240    20754201.8664
 00  2 29 16 19  0.0000000  0  9 02 18 27 19 31 08 10 07 13
  21897418.689    -3973052.106 9  -3040203.05847  21897418.093    21897427.7064
  22269690.018     5466230.788 8   4240247.51946  22269689.664    22269700.6024
  20560938.931    -2841377.593 9  -2213547.68147  20560938.598    20560946.8694
  20769773.046      232106.574 9    174893.06547  20769772.905    20769781.8454
  22478742.649     2695961.637 8   2090657.59946  22478742.160    22478752.9164
  20415201.661    -3620833.611 9  -2819403.73447  20415201.110    20415209.4234
  24135568.219      460531.981 8    353739.88945  24135567.533    24135578.7974
  24249957.128    -4691735.333 7  -3644008.20345  24249956.695    24249971.8444
  20752461.338    -2577532.790 9  -2007158.14247  20752461.540    20752468.1614
 00  2 29 16 19 30.0000000  0  9 02 18 27 19 31 08 10 07 13
  21889979.725    -4012144.277 9  -3070664.51847  21889979.133    21889988.7324
  22288819.733     5566757.465 8   4318579.78446  22288819.451    22288830.4084
  20556417.686    -2865136.842 9  -2232061.42447  20556417.368    20556425.6654
  20774123.806      254969.801 9    192708.48447  20774123.653    20774132.6264
  22491628.808     2763678.064 8   2143423.49646  22491628.299    22491639.1284
  20408474.689    -3656184.240 9  -2846949.71147  20408474.127    20408482.4464
  24141813.932      493352.619 7    379314.24145  24141812.951    24141824.4494
  24229885.598    -4797211.899 7  -3726197.65245  24229885.080    24229900.3574
  20750831.102    -2586100.024 9  -2013833.96447  20750831.268    20750837.9274
 00  2 29 16 20  0.0000000  0  9 02 18 27 19 31 08 10 07 13
  21882586.568    -4050995.562 9  -3100938.26847  21882586.001    21882595.5894
  22308009.775     5667601.088 8   4397158.99846  22308009.496    22308020.4954
  20551943.233    -2888650.255 9  -2250383.60747  20551942.946    20551951.2564
  20778530.210      278125.260 9    210751.61047  20778530.053    20778539.0384
  22504605.364     2831870.219 8   2196560.10346  22504604.886    22504615.8224
  20401790.163    -3691311.786 9  -2874321.86247  20401789.595    20401797.9164
  24148135.609      526572.838 8    405199.93645  24148134.834    24148146.5744
  24209825.079    -4902631.070 8  -3808342.35745  24209824.527    24209839.8804
  20749307.560    -2594106.380 9  -2020072.74247  20749307.743    20749314.4424
 00  2 29 16 20 30.0000000  0  9 02 18 27 19 31 08 10 07 13
  21875238.205    -4089611.519 9  -3131028.64147  21875237.638    21875247.2174
  22327259.350     5768757.466 8   4475981.92546  22327259.050    22327270.1324
  20547514.560    -2911923.451 9  -2268518.60347  20547514.262    20547522.5664
  20782990.275      301562.804 9    229014.54647  20782990.125    20782999.1374
  22517675.903     2900555.726 8   2250081.13046  22517675.427    22517686.4004
  20395151.264    -3726199.708 9  -2901507.28747  20395150.691    20395159.0014
  24154531.832      560184.054 8    431390.36745  24154531.185    24154542.4894
  24189778.745    -5007975.268 8  -3890428.63345  24189778.205    24189793.5344
  20747893.925    -2601535.316 9  -2025861.57747  20747894.112    20747900.8254
 00  2 29 16 21  0.0000000  0  9 02 18 27 19 31 08 10 07 13
  21867934.595    -4127992.674 9  -3160936.03947  21867934.004    21867943.5824
  22346567.727     5870222.783 8   4555045.58346  22346567.463    22346578.6174
  20543129.888    -2934965.379 9  -2286473.39347  20543129.587    20543137.9014
  20787502.015      325271.646 9    247488.89447  20787501.862    20787510.8824
  22530841.778     2969742.121 8   2303992.45146  22530841.283    22530852.3204
  20388560.667    -3760833.617 9  -2928494.77447  20388560.094    20388568.4164
  24160999.594      594171.696 8    457874.01645  24160998.769    24161010.8344
  24169744.781    -5113253.930 8  -3972463.84845  24169744.145    24169759.5384
  20746592.893    -2608372.596 9  -2031189.38647  20746593.082    20746599.8114
 00  2 29 16 21 30.0000000  0  9 02 18 27 19 31 08 10 07 13
  21860676.905    -4166132.157 9  -3190655.13847  21860676.309    21860685.8974
  22365932.530     5971984.788 8   4634340.43446  22365932.286    22365943.4914
  20538790.996    -2957766.673 9  -2304240.68447  20538790.691    20538799.0204
  20792064.780      349248.715 9    266172.24747  20792064.613    20792073.6444
  22544104.478     3039437.509 8   2358300.39146  22544103.981    22544115.0374
  20382019.137    -3795209.742 9  -2955281.39847  20382018.572    20382026.8994
  24167538.329      628532.294 8    484648.36745  24167537.571    24167549.5654
  24149723.759    -5218464.816 8  -4054446.24045  24149723.154    24149738.3824
  20745406.284    -2614608.291 9  -2036048.42747  20745406.474    20745413.2424
 00  2 29 16 22  0.0000000  0  9 02 18 27 19 31 08 10 07 13
  21853467.402    -4204018.599 9  -3220177.05747  21853466.790    21853476.3534
  22385350.333     6074025.088 8   4713852.12346  22385350.084    22385361.3604
  20534499.240    -2980320.021 9  -2321814.77547  20534498.942    20534507.2684
  20796681.717      373510.613 9    285077.54047  20796681.547    20796690.5924
  22557463.909     3109641.052 8   2413004.29946  22557463.383    22557474.4484
  20375525.019    -3829336.709 9  -2981873.88047  20375524.448    20375532.8014
  24174149.668      663273.232 8    511719.04745  24174148.875    24174160.9384
  24129715.801    -5323607.279 8  -4136375.32345  24129715.236    24129730.3794
  20744330.898    -2620259.697 9  -2040452.18147  20744331.098    20744337.8824
 00  2 29 16 22 30.0000000  0  9 02 18 27 19 31 08 10 07 13
  21846305.975    -4241652.341 9  -3249502.07347  21846305.387    21846314.9034
  22404818.473     6176329.913 8   4793569.93646  22404818.227    22404829.5734
  20530254.359    -3002627.268 9  -2339197.09547  20530254.051    20530262.3804
  20801354.121      398063.854 9    304209.85147  20801353.942    20801363.0234
  22570917.678     3180340.775 8   2468094.83646  22570917.179    22570928.2534
  20369076.450    -3863224.290 9  -3008279.82547  20369075.892    20369084.2434
  24180835.692      698408.091 8    539096.71645  24180834.956    24180846.9314
  24109719.436    -5428688.207 8  -4218256.44145  24109718.819    24109734.1134
  20743366.107    -2625330.068 9  -2044403.17247  20743366.306    20743373.0754
 00  2 29 16 23  0.0000000  0  9 02 18 27 19 31 08 10 07 13
  21839194.019    -4279026.024 9  -3278624.43347  21839193.411    21839202.9684
  22424335.539     6278891.870 8   4873488.11346  22424335.306    22424346.6994
  20526058.293    -3024678.055 9  -2356379.57847  20526057.976    20526066.3184
  20806083.620      422917.118 9    323575.94547  20806083.438    20806092.5354
  22584461.763     3251514.701 8   2523554.89246  22584461.273    22584472.3804
  20362673.285    -3896873.529 9  -3034500.04147  20362672.705    20362681.0554
  24187601.672      733961.787 8    566800.73045  24187600.822    24187613.0854
  24089732.897    -5533717.974 8  -4300097.71945  24089732.245    24089747.4654
  20742512.508    -2629816.127 9  -2047898.85747  20742512.697    20742519.4714
 00  2 29 16 23 30.0000000  0  9 02 18 27 19 31 08 10 07 13
  21832129.498    -4316150.365 9  -3307552.50347  21832128.882    21832138.4464
  22443898.867     6381697.037 8   4953595.82346  22443898.662    22443910.0804
  20521913.169    -3046460.971 9  -2373353.31747  20521912.855    20521921.2214
  20810872.614      448083.140 9    343185.75347  20810872.423    20810881.5504
  22598094.653     3323155.447 8   2579378.68446  22598094.175    22598105.2934
  20356315.352    -3930284.822 9  -3060534.84647  20356314.777    20356323.1414
  24194449.140      769944.820 8    594839.27245  24194448.362    24194460.6374
  24069758.479    -5638684.274 7  -4381889.54445  24069757.614    24069772.9564
  20741769.455    -2633721.136 9  -2050941.77347  20741769.632    20741776.4444
 00  2 29 16 24  0.0000000  0  9 02 18 27 19 31 08 10 07 13
  21825109.693    -4353039.654 9  -3336297.41947  21825109.091    21825118.6824
  22463509.671     6484751.242 8   5033897.57846  22463509.395    22463520.8844
  20517818.924    -3067976.794 9  -2390118.92847  20517818.600    20517826.9614
  20815723.893      473576.398 9    363050.54647  20815723.704    20815732.8474
  22611814.833     3395254.904 8   2635559.92646  22611814.336    22611825.4434
  20350003.610    -3963453.277 9  -3086380.42947  20350003.056    20350011.4414
  24201380.767      806368.936 8    623221.59145  24201379.952    24201391.7374
  24049797.080    -5743581.258 8  -4463627.37845  24049796.372    24049811.7254
  20741138.045    -2637039.503 9  -2053527.56447  20741138.229    20741145.0354
 00  2 29 16 24 30.0000000  0  9 02 18 27 19 31 08 10 07 13
  21818134.196    -4389696.088 9  -3364860.87347  21818133.610    21818143.2054
  22483167.684     6588053.762 8   5114392.82646  22483167.397    22483178.8854
  20513775.842    -3089223.497 9  -2406674.84647  20513775.519    20513783.8764
  20820636.892      499393.987 9    383168.06247  20820636.703    20820645.8594
  22625621.127     3467806.524 8   2692093.50446  22625620.579    22625631.7594
  20343741.378    -3996362.023 9  -3112023.64447  20343740.801    20343749.1734
  24208396.827      843237.525 8    651950.17545  24208395.817    24208407.7724
  24029848.864    -5848409.229 8  -4545311.45145  24029848.172    24029863.5014
  20740623.017    -2639746.163 9  -2055636.70447  20740623.205    20740630.0194
 00  2 29 16 25  0.0000000  0  9 02 18 27 19 31 08 10 07 13
  21811204.050    -4426114.480 9  -3393238.83747  21811203.458    21811213.0524
  22502873.501     6691607.514 8   5195083.83446  22502873.235    22502884.7354
  20509785.516    -3110193.031 9  -2423014.78647  20509785.191    20509793.5644
  20825612.805      525542.050 9    403543.09547  20825612.628    20825621.7974
  22639516.455     3540826.405 8   2748991.94846  22639515.879    22639527.1534
  20337530.749    -4028999.266 9  -3137455.30947  20337530.171    20337538.5304
  24215495.375      880540.069 8    681016.97245  24215494.461    24215506.6244
  24009915.288    -5953160.204 7  -4626935.53245  24009914.712    24009929.8964
  20740223.660    -2641845.195 9  -2057272.37047  20740223.832    20740230.6464
 00  2 29 16 25 30.0000000  0  9 02 18 27 19 31 08 10 07 13
  21804317.586    -4462303.102 9  -3421437.77747  21804316.985    21804326.5864
  22522628.248     6795418.276 8   5275975.10146  22522627.938    22522639.5064
  20505846.685    -3130891.902 9  -2439143.81147  20505846.338    20505854.7224
  20830650.954      552017.081 9    424172.91347  20830650.750    20830659.9244
  22653503.452     3614327.857 8   2806265.64146  22653502.916    22653514.1444
  20331371.588    -4061366.068 9  -3162676.23747  20331371.025    20331379.3834
  24222672.574      918254.532 8    710404.65945  24222671.513    24222683.8114
  23989999.612    -6057817.369 7  -4708486.54145  23989999.029    23990014.2144
  20739936.956    -2643351.874 9  -2058446.45847  20739937.140    20739943.9914
 00  2 29 16 26  0.0000000  0  9 02 18 27 19 31 08 10 07 13
  21797474.404    -4498264.313 9  -3449459.48247  21797473.803    21797483.3934
  22542431.928     6899486.154 8   5357066.73046  22542431.629    22542443.1584
  20501956.923    -3151332.983 9  -2455071.96247  20501956.591    20501964.9934
  20835748.508      578804.236 9    445045.94147  20835748.281    20835757.4574
  22667580.852     3688304.102 8   2863909.30846  22667580.290    22667591.5584
  20325260.102    -4093482.294 9  -3187701.90547  20325259.525    20325267.8704
  24229925.104      956367.343 8    740102.85045  24229924.103    24229936.2404
  23970101.468    -6162382.893 8  -4789966.14045  23970100.935    23970116.0324
  20739760.645    -2644278.675 9  -2059168.69447  20739760.832    20739767.6954
 00  2 29 16 26 30.0000000  0  9 02 18 27 19 31 08 10 07 13
  21790674.762    -4533996.906 9  -3477303.05047  21790674.140    21790683.7264
  22562282.151     7003798.709 8   5438349.01546  22562281.817    22562293.4364
  20498115.754    -3171518.595 9  -2470801.04947  20498115.390    20498123.8174
  20840903.549      605893.793 9    466154.60447  20840903.313    20840912.4684
  22681748.488     3762754.661 8   2921922.56646  22681747.902    22681759.1864
  20319194.278    -4125358.786 9  -3212540.76847  20319193.685    20319202.0194
  24237250.688      994862.680 8    770099.05445  24237249.851    24237261.8664
  23950220.944    -6266856.026 8  -4871373.77545  23950220.238    23950235.2624
  20739690.808    -2644646.078 9  -2059455.03247  20739690.981    20739697.8414
 00  2 29 16 27  0.0000000  0  9 02 18 27 19 31 08 10 07 13
  21783914.685    -4569521.407 9  -3504984.46247  21783914.060    21783923.6444
  22582179.237     7108358.057 8   5519823.60346  22582178.913    22582190.5964
  20494321.874    -3191455.900 9  -2486336.64947  20494321.536    20494329.9364
  20846114.061      633274.902 9    487490.45247  20846113.836    20846122.9894
  22696005.102     3837673.346 8   2980300.61246  22696004.582    22696015.8754
  20313170.304    -4157015.183 9  -3237208.12947  20313169.705    20313178.0774
  24244646.503     1033728.586 8    800383.98045  24244645.679    24244658.3364
  23930358.612    -6371233.462 8  -4952706.84545  23930357.878    23930372.8194
  20739721.133    -2644486.899 9  -2059331.04747  20739721.300    20739728.1624
 00  2 29 16 27 30.0000000  0  9 02 18 27 19 31 08 10 07 13
  21777191.625    -4604851.100 9  -3532514.10147  21777191.034    21777200.5724
  22602120.966     7213151.596 8   5601480.67546  22602120.676    22602132.4234
  20490572.783    -3211157.785 9  -2501688.80947  20490572.432    20490580.8334
  20851377.920      660936.428 9    509044.80847  20851377.711    20851386.9054
  22710345.074     3913030.058 8   3039019.96546  22710344.605    22710355.9824
  20307185.820    -4188463.825 9  -3261713.60947  20307185.238    20307193.6324
  24252110.386     1072949.311 7    830945.43345  24252109.435    24252122.0884
  23910512.844    -6475523.786 8  -5033972.03245  23910512.047    23910527.0834
  20739851.389    -2643802.581 9  -2058797.86747  20739851.569    20739858.4474
 00  2 29 16 28  0.0000000  0  9 02 18 27 19 31 08 10 07 13
  21770507.326    -4639977.430 9  -3559885.25047  21770506.702    21770516.2574
  22622106.365     7318174.531 8   5683316.49746  22622106.062    22622117.8624
  20486871.604    -3230607.726 9  -2516844.64047  20486871.244    20486879.6394
  20856694.371      688874.191 9    530814.42147  20856694.151    20856703.3334
  22724767.523     3988819.305 8   3098076.35546  22724766.951    22724778.3724
  20301242.126    -4219698.562 9  -3286052.40247  20301241.533    20301249.9014
  24259640.189     1112519.772 8    861779.39745  24259639.331    24259652.2224
  23890683.697    -6579726.738 8  -5115169.16345  23890682.974    23890697.8264
  20740083.562    -2642582.902 9  -2057847.51647  20740083.719    20740090.6224
 00  2 29 16 28 30.0000000  0  9 02 18 27 19 31 08 10 07 13
  21763862.858    -4674894.395 9  -3587093.26447  21763862.232    21763871.7964
  22642133.211     7423415.098 8   5765321.90146  22642132.867    22642144.7214
  20483220.861    -3249792.748 9  -2531794.05047  20483220.501    20483228.9054
  20862063.520      717088.851 9    552799.78447  20862063.294    20862072.5014
  22739272.265     4065041.377 8   3157470.01346  22739271.670    22739283.0804
  20295342.660    -4250700.815 9  -3310210.04347  20295342.047    20295350.3864
  24267237.032     1152441.381 8    892886.98445  24267236.191    24267249.0984
  23870870.781    -6683844.736 8  -5196300.07945  23870870.050    23870885.0344
  20740418.320    -2640823.953 9  -2056476.96147  20740418.467    20740425.3904
 00  2 29 16 29  0.0000000  0  9 02 18 27 19 31 08 10 07 13
  21757260.657    -4709589.260 9  -3614128.22847  21757260.022    21757269.5954
  22662201.819     7528875.280 8   5847498.42046  22662201.434    22662213.3984
  20479622.876    -3268700.586 9  -2546527.47547  20479622.502    20479630.9294
  20867485.202      745579.671 9    575000.34347  20867484.981    20867494.2074
  22753857.980     4141689.320 8   3217195.51946  22753857.433    22753868.8384
  20289490.055    -4281456.406 9  -3334175.47947  20289489.449    20289497.8234
  24274901.358     1192717.810 8    924271.04245  24274900.526    24274913.4024
  23851073.918    -6787878.027 8  -5277364.99545  23851073.166    23851088.1774
  20740857.204    -2638517.880 9  -2054680.06647  20740857.353    20740864.2734
 00  2 29 16 29 30.0000000  0  9 02 18 27 19 31 08 10 07 13
  21750704.819    -4744040.395 9  -3640973.26147  21750704.191    21750713.7764
  22682309.507     7634541.393 8   5929835.40646  22682309.163    22682321.1654
  20476080.539    -3287315.852 9  -2561032.91947  20476080.165    20476088.5894
  20872962.110      774360.836 9    597427.14447  20872961.899    20872971.1674
  22768525.374     4218766.532 8   3277255.52146  22768524.818    22768536.3334
  20283688.856    -4311942.041 9  -3357930.55047  20283688.255    20283696.6664
  24282633.687     1233350.290 8    955932.56745  24282632.893    24282645.6574
  23831293.891    -6891821.907 8  -5358360.21745  23831293.239    23831308.3244
  20741403.871    -2635645.471 9  -2052441.88047  20741403.985    20741410.9144
 00  2 29 16 30  0.0000000  0  9 02 18 27 19 31 08 10 07 13
  21744197.421    -4778236.889 9  -3667619.88647  21744196.796    21744206.3584
  22702455.952     7740410.821 8   6012330.82546  22702455.617    22702467.6304
  20472595.748    -3305628.640 9  -2575302.66947  20472595.377    20472603.8264
  20878496.110      803441.988 9    620087.70847  20878495.918    20878505.2124
  22783276.267     4296282.225 8   3337657.19946  22783275.676    22783287.2454
  20277939.854    -4342153.396 9  -3381471.89647  20277939.265    20277947.6844
  24290435.873     1274350.885 8    987880.91045  24290435.071    24290448.0074
  23811531.556    -6995673.180 8  -5439283.27045  23811531.000    23811546.0394
  20742058.997    -2632202.906 9  -2049759.41047  20742059.151    20742066.0944
 00  2 29 16 30 30.0000000  0  9 02 18 27 19 31 08 10 07 13
  21737739.607    -4812172.721 9  -3694063.39447  21737739.006    21737748.5724
  22722642.934     7846492.827 8   6094991.88346  22722642.542    22722654.6534
  20469168.489    -3323639.075 9  -2589336.82247  20469168.140    20469176.5904
  20884090.172      832838.782 9    642994.22347  20884089.985    20884099.3184
  22798109.977     4374233.532 8   3398398.32046  22798109.417    22798120.9624
  20272243.957    -4372085.769 9  -3404795.85547  20272243.378    20272251.7874
  24298311.136     1315734.344 7   1020127.59445  24298310.211    24298323.2434
  23791785.715    -7099437.811 8  -5520138.77745  23791785.280    23791800.4284
  20742825.745    -2628173.805 9  -2046619.90047  20742825.910    20742832.8634
 00  2 29 16 31  0.0000000  0  9 02 18 27 19 31 08 10 07 13
  21731329.806    -4845856.577 9  -3720310.56247  21731329.224    21731338.7954
  22742874.537     7952809.757 8   6177836.00946  22742874.155    22742886.3194
  20465798.307    -3341349.597 9  -2603137.27447  20465797.973    20465806.4434
  20889746.995      862565.309 9    666157.67647  20889746.809    20889756.1794
  22813026.799     4452621.484 8   3459479.68746  22813026.270    22813037.8954
  20266602.103    -4401733.919 9  -3427898.34547  20266601.524    20266609.9764
  24306257.925     1357494.943 8   1052668.15545  24306257.127    24306270.3064
  23772058.546    -7203105.238 8  -5600918.55345  23772058.006    23772073.1704
  20743708.598    -2623534.678 9  -2043005.04747  20743708.749    20743715.7064
 00  2 29 16 31 30.0000000  0  9 02 18 27 19 31 08 10 07 13
  21724965.343    -4879302.145 9  -3746372.05047  21724964.720    21724974.2914
  22763152.725     8059371.612 8   6260870.97746  22763152.397    22763164.6954
  20462483.848    -3358767.478 9  -2616709.68847  20462483.517    20462491.9944
  20895468.865      892633.566 9    689587.40947  20895468.688    20895478.0914
  22828028.289     4531454.429 8   3520907.80846  22828027.795    22828039.5004
  20261015.604    -4431091.162 9  -3450774.15447  20261015.031    20261023.4914
  24314279.317     1399645.860 7   1085512.89745  24314278.405    24314291.2064
  23752353.840    -7306654.293 8  -5681606.08345  23752353.278    23752368.3204
  20744712.864    -2618257.456 9  -2038892.98147  20744713.014    20744719.9754
 00  2 29 16 32  0.0000000  0  9 02 18 27 19 31 08 10 07 13
  21718645.488    -4912513.197 9  -3772250.79747  21718644.875    21718654.4564
  22783482.454     8166204.125 8   6344116.84846  22783482.143    22783494.4464
  20459223.110    -3375902.929 9  -2630062.02447  20459222.795    20459231.2824
  20901253.941      923034.030 9    713276.00947  20901253.763    20901263.1934
  22843113.982     4610729.849 8   3582680.70246  22843113.482    22843125.2834
  20255482.968    -4460165.550 9  -3473429.55547  20255482.381    20255490.8544
  24322376.377     1442195.641 7   1118668.39445  24322375.420    24322388.3714
  23732674.072    -7410071.628 8  -5762190.93445  23732673.542    23732688.6554
  20745840.705    -2612330.756 9  -2034274.82547  20745840.883    20745847.8574
 00  2 29 16 32 30.0000000  0  9 02 18 27 19 31 08 10 07 13
  21712366.279    -4945510.704 9  -3797963.16147  21712365.662    21712375.2634
  22803863.391     8273305.715 8   6427572.37146  22803863.094    22803875.4504
  20456013.860    -3392767.785 9  -2643203.51047  20456013.526    20456022.0404
  20907100.708      953758.547 9    737217.11147  20907100.525    20907109.9864
  22858283.805     4690447.322 8   3644798.05546  22858283.299    22858295.1734
  20250003.632    -4488959.729 9  -3495866.61747  20250003.055    20250011.5654
  24330549.939     1485147.921 7   1152137.57645  24330549.191    24330562.0004
  23713021.732    -7513345.160 8  -5842663.70945  23713021.247    23713036.4324
  20747090.372    -2605763.899 9  -2029157.84947  20747090.548    20747097.5324
 00  2 29 16 33  0.0000000  0  9 02 18 27 19 31 08 10 07 13
  21706124.806    -4978310.138 9  -3823521.16947  21706124.173    21706133.7804
  22824290.097     8380647.673 8   6511215.20746  22824289.803    22824302.2214
  20452852.732    -3409379.658 9  -2656147.87647  20452852.415    20452860.9284
  20913008.200      984802.005 9    761406.74147  20913007.996    20913017.4764
  22873536.862     4770601.874 8   3707255.99046  22873536.360    22873548.2554
  20244574.811    -4517488.621 9  -3518096.96247  20244574.243    20244582.7454
  24338796.661     1528484.411 7   1185906.12245  24338795.794    24338808.6354
  23693399.718    -7616459.365 8  -5923012.35545  23693399.132    23693414.3404
  20748456.271    -2598586.252 9  -2023564.93947  20748456.452    20748463.4514
 00  2 29 16 33 30.0000000  0  9 02 18 27 19 31 08 10 07 13
  21699921.926    -5010906.560 9  -3848920.97547  21699921.277    21699930.8954
  22844756.584     8488199.000 8   6595021.16046  22844756.334    22844768.7924
  20449738.356    -3425746.093 9  -2668900.99647  20449738.041    20449746.5544
  20918972.805     1016145.821 9    785830.41647  20918972.586    20918982.0824
  22888871.371     4851184.912 8   3770047.80646  22888870.874    22888882.8444
  20239190.922    -4545781.083 9  -3540143.07547  20239190.330    20239198.8414
  24347115.105     1572197.406 7   1219968.01345  24347114.253    24347127.4134
  23673806.409    -7719422.348 8  -6003243.13845  23673805.826    23673821.1584
  20749930.691    -2590838.310 9  -2017527.64047  20749930.862    20749937.8784
 00  2 29 16 34  0.0000000  0  9 02 18 27 19 31 08 10 07 13
  21693758.010    -5043298.047 9  -3874161.08147  21693757.374    21693766.9894
  22865256.444     8595925.003 8   6678963.21846  22865256.133    22865268.6164
  20446671.157    -3441864.547 9  -2681460.88047  20446670.854    20446679.3864
  20924991.695     1047775.001 9    810476.45447  20924991.490    20925000.9994
  22904285.857     4932188.106 8   3833167.00846  22904285.373    22904297.4404
  20233848.252    -4573857.073 9  -3562020.49647  20233847.679    20233856.1834
  24355499.066     1616254.917 7   1254298.43345  24355498.239    24355511.2184
  23654235.826    -7822265.904 8  -6083380.87245  23654235.264    23654250.5304
  20751505.966    -2582560.515 9  -2011077.46747  20751506.141    20751513.1504
 00  2 29 16 34 30.0000000  0  9 02 18 27 19 31 08 10 07 13
  21687630.566    -5075498.079 9  -3899252.01947  21687629.936    21687639.5364
  22885781.377     8703783.032 8   6763008.16246  22885781.053    22885793.5244
  20443652.248    -3457729.409 9  -2693823.16047  20443651.914    20443660.4554
  20931065.153     1079690.871 9    835345.88747  20931064.945    20931074.4674
  22919780.711     5013613.099 8   3896614.90246  22919780.176    22919792.2144
  20228548.061    -4601710.069 9  -3583724.15847  20228547.488    20228555.9894
  24363944.763     1660636.414 7   1288881.23945  24363943.873    24363957.0614
  23634683.485    -7925013.970 8  -6163444.19145  23634682.919    23634698.1314
  20753176.874    -2573780.018 9  -2004235.58347  20753177.044    20753184.0694
 00  2 29 16 35  0.0000000  0  9 02 18 27 19 31 08 10 07 13
  21681541.709    -5107495.234 9  -3924184.87147  21681541.081    21681550.6894
  22906328.614     8811758.223 8   6847144.40746  22906328.279    22906340.8104
  20440683.578    -3473330.070 9  -2705979.56547  20440683.229    20440691.7754
  20937190.898     1111881.664 9    860429.54647  20937190.675    20937200.2194
  22935354.603     5095453.495 8   3960386.48846  22935354.065    22935366.1104
  20223290.708    -4629338.002 9  -3605252.44147  20223290.117    20223298.6274
  24372447.083     1705315.931 7   1323696.32545  24372446.216    24372459.2334
  23615148.112    -8027672.606 8  -6243437.80545  23615147.553    23615162.7594
  20754943.424    -2564497.063 9  -1997002.17047  20754943.601    20754950.6414
 00  2 29 16 35 30.0000000  0  9 02 18 27 19 31 08 10 07 13
  21675492.114    -5139286.106 9  -3948956.98747  21675491.499    21675501.0884
  22926900.426     8919863.034 8   6931381.65746  22926900.097    22926912.6804
  20437768.919    -3488646.981 9  -2717914.86747  20437768.577    20437777.1264
  20943368.942     1144347.278 9    885727.34647  20943368.747    20943378.2924
  22951007.887     5177711.484 8   4024483.45346  22951007.368    22951019.4724
  20218078.686    -4656727.480 9  -3626594.92447  20218078.106    20218086.6204
  24381007.637     1750301.411 7   1358749.78645  24381006.841    24381020.2754
  23595627.862    -8130251.999 8  -6323369.67445  23595627.298    23595642.5194
  20756809.008    -2554693.581 9  -1989363.16047  20756809.180    20756816.2144
 00  2 29 16 36  0.0000000  0  9 02 18 27 19 31 08 10 07 13
  21669479.643    -5170882.049 9  -3973577.20147  21669479.042    21669488.6164
  22947498.686     9028106.525 8   7015726.96946  22947498.387    22947511.0604
  20434910.407    -3503668.529 9  -2729620.01547  20434910.086    20434918.6644
  20949600.844     1177095.910 9    911245.68147  20949600.643    20949610.2024
  22966739.263     5260379.457 8   4088899.89146  22966738.727    22966750.8434
  20212917.970    -4683847.276 9  -3647727.26247  20212917.378    20212925.8964
  24389626.382     1795593.748 7   1394042.36245  24389625.542    24389638.9754
  23576123.799    -8232745.651 8  -6403234.72845  23576123.340    23576138.5434
  20758777.668    -2544348.672 9  -1981302.26047  20758777.827    20758784.8774
 00  2 29 16 36 30.0000000  0  9 02 18 27 19 31 08 10 07 13
  21663506.162    -5202273.097 9  -3998037.76347  21663505.537    21663515.0984
  22968128.971     9136518.292 8   7100203.40046  22968128.635    22968141.4024
  20432107.968    -3518395.742 9  -2741095.81047  20432107.646    20432116.2274
  20955889.582     1210143.039 9    936996.60847  20955889.360    20955898.9654
  22982546.125     5343444.274 8   4153625.54946  22982545.585    22982557.6834
  20207811.258    -4710683.161 9  -3668638.37347  20207810.694    20207819.2054
  24398307.735     1841213.050 7   1429589.77945  24398306.843    24398319.9514
  23556642.033    -8335122.866 8  -6483009.04945  23556641.517    23556656.6944
  20760854.122    -2533437.046 9  -1972799.76747  20760854.289    20760861.3494
 00  2 29 16 37  0.0000000  0  9 02 18 27 19 31 08 10 07 13
  21657576.317    -5233434.616 9  -4022319.46647  21657575.692    21657585.2714
  22988799.799     9245143.105 8   7184845.83246  22988799.414    22988812.2824
  20429362.694    -3532822.475 9  -2752337.46547  20429362.357    20429370.9454
  20962238.607     1243507.097 9    962994.49147  20962238.414    20962248.0244
  22998425.608     5426890.622 8   4218648.50946  22998425.031    22998437.1804
  20202757.917    -4737239.006 9  -3689331.26847  20202757.342    20202765.8444
  24407051.519     1887161.631 7   1465393.69545  24407050.740    24407064.0244
  23537184.922    -8437370.789 8  -6562682.61245  23537184.376    23537199.4984
  20763044.057    -2521929.042 9  -1963832.56347  20763044.224    20763051.2984
 00  2 29 16 37 30.0000000  0  9 02 18 27 19 31 08 10 07 13
  21651691.588    -5264359.087 9  -4046416.43647  21651690.966    21651700.5764
  23009514.607     9353999.056 8   7269668.37746  23009514.255    23009527.1864
  20426676.158    -3546940.359 9  -2763338.45847  20426675.836    20426684.4384
  20968652.109     1277209.882 9    989256.31847  20968651.904    20968661.5234
  23014377.733     5510718.644 8   4283968.87846  23014377.128    23014389.2564
  20197760.585    -4763500.406 9  -3709794.73047  20197760.011    20197768.5334
  24415860.696     1933453.440 7   1501465.12745  24415859.852    24415872.8554
  23517752.613    -8539487.908 8  -6642254.24845  23517751.980    23517767.0494
  20765350.305    -2509809.878 9  -1954389.12947  20765350.487    20765357.5674
 00  2 29 16 38  0.0000000  0  9 02 18 27 19 31 08 10 07 13
  21645854.435    -5295033.334 9  -4070318.44347  21645853.837    21645863.4394
  23030274.615     9463092.509 8   7354675.98346  23030274.303    23030287.2624
  20424050.956    -3560736.163 9  -2774088.47847  20424050.624    20424059.2484
  20975132.798     1311265.843 9   1015793.34347  20975132.598    20975142.2544
  23030403.845     5594935.697 8   4349592.36846  23030403.253    23030415.4634
  20192820.269    -4789462.204 9  -3730024.74247  20192819.682    20192828.2164
  24424735.729     1980090.749 7   1537805.72345  24424734.967    24424747.9284
  23498349.337    -8641452.122 8  -6721706.74845  23498348.762    23498363.6914
  20767775.952    -2497063.550 9  -1944456.99847  20767776.108    20767783.2154
 00  2 29 16 38 30.0000000  0  9 02 18 27 19 31 08 10 07 13
  21640067.895    -5325441.931 9  -4094013.45747  21640067.293    21640076.8794
  23051079.878     9572423.830 8   7439868.92646  23051079.529    23051092.6394
  20421489.095    -3574199.039 9  -2784579.06647  20421488.767    20421497.4044
  20981681.707     1345680.222 9   1042609.66447  20981681.504    20981691.1774
  23046506.473     5679554.879 8   4415529.21346  23046505.916    23046518.1084
  20187934.442    -4815137.571 9  -3750031.56247  20187933.844    20187942.3484
  24433676.523     2027074.808 7   1574416.49945  24433675.658    24433689.1854
  23478975.849    -8743260.165 8  -6801037.53645  23478975.194    23478990.1064
  20770322.299    -2483682.613 9  -1934030.36747  20770322.455    20770329.5744
 00  2 29 16 39  0.0000000  0  9 02 18 27 19 31 08 10 07 13
  21634329.108    -5355599.714 9  -4117513.03347  21634328.486    21634338.0344
  23071927.476     9681977.609 8   7525235.22646  23071927.117    23071940.3484
  20418993.699    -3587312.789 9  -2794797.60947  20418993.355    20419001.9914
  20988297.500     1380446.084 9   1069699.85947  20988297.304    20988306.9764
  23062690.370     5764601.133 8   4481798.81546  23062689.782    23062702.0064
  20183103.383    -4840525.328 9  -3769814.26347  20183102.779    20183111.2564
  24442682.485     2074400.272 7   1611293.34545  24442681.574    24442694.9134
  23459633.268    -8844905.659 8  -6880241.66745  23459632.564    23459647.5414
  20772988.234    -2469673.371 9  -1923114.14647  20772988.399    20772995.5204
 00  2 29 16 39 30.0000000  0  9 02 18 27 19 31 08 10 07 13
  21628632.632    -5385534.873 9  -4140839.13847  21628632.000    21628641.5654
  23092810.829     9791719.508 8   7610748.11046  23092810.439    23092823.7314
  20416563.014    -3600086.359 9  -2804751.07647  20416562.678    20416571.3034
  20994975.367     1415538.206 9   1097044.28347  20994975.171    20994984.8394
  23078956.304     5850078.516 8   4548404.36846  23078955.691    23078967.9634
  20178327.846    -4865621.173 9  -3789369.50647  20178327.235    20178335.7444
  24451754.038     2122070.896 7   1648439.11745  24451753.114    24451766.3614
  23440324.467    -8946373.450 8  -6959307.32945  23440323.812    23440338.7414
  20775771.379    -2455048.171 9  -1911717.95647  20775771.532    20775778.6934
 00  2 29 16 40  0.0000000  0  9 02 18 27 19 31 08 10 07 13
  21622975.995    -5415260.368 9  -4164001.87147  21622975.376    21622984.9644
  23113728.566     9901641.857 8   7696401.61346  23113728.168    23113741.4654
  20414193.997    -3612535.913 9  -2814452.06847  20414193.628    20414202.2614
  21001711.130     1450934.379 9   1124625.62747  21001710.918    21001720.6144
  23095301.838     5935974.161 8   4615335.84346  23095301.286    23095313.4604
  20173606.457    -4890432.332 9  -3808702.91447  20173605.853    20173614.3854
  24460890.229     2170081.614 7   1685849.92145  24460889.289    24460902.7154
  23421050.429    -9047658.539 8  -7038230.62045  23421049.805    23421064.6854
  20778668.233    -2439825.096 9  -1899855.88847  20778668.407    20778675.5934
 00  2 29 16 40 30.0000000  0  9 02 18 27 19 31 08 10 07 13
  21617357.390    -5444786.313 9  -4187009.10447  21617356.775    21617366.3664
  23134680.066    10011741.587 8   7782193.33746  23134679.664    23134693.0494
  20411881.118    -3624690.239 9  -2823923.01447  20411880.769    20411889.4294
  21008500.412     1486612.114 9   1152426.37347  21008500.218    21008509.9374
  23111723.223     6022268.996 8   4682578.37145  23111722.727    23111735.0234
  20168938.717    -4914961.696 9  -3827816.74047  20168938.105    20168946.6224
  24470089.121     2218422.772 7   1723518.20045  24470088.290    24470101.5094
  23401809.665    -9148769.062 8  -7117017.90645  23401809.015    23401823.8034
  20781674.262    -2424028.785 9  -1887547.13947  20781674.416    20781681.6274
 00  2 29 16 41  0.0000000  0  9 02 18 27 19 31 08 10 07 13
  21611774.147    -5474126.852 9  -4209871.86147  21611773.510    21611783.0664
  23155663.073    10122007.577 8   7868114.58446  23155662.737    23155676.2074
  20409619.134    -3636577.200 9  -2833185.62347  20409618.785    20409627.4384
  21015340.458     1522556.661 9   1180435.01947  21015340.262    21015350.0194
  23128215.355     6108935.596 8   4750110.56245  23128214.929    23128227.3104
  20164325.612    -4939204.087 9  -3846706.94747  20164324.988    20164333.5194
  24479348.846     2267082.265 7   1761434.50945  24479348.110    24479361.4654
  23382601.228    -9249709.686 8  -7195672.78645  23382600.563    23382615.2754
  20784787.239    -2407670.234 9  -1874800.28147  20784787.391    20784794.6124
 00  2 29 16 41 30.0000000  0 10 02 18 27 19 31 08 11 10 07 13
  21606227.550    -5503274.401 9  -4232584.25447  21606226.911    21606236.4804
  23176678.322    10232442.340 8   7954167.34346  23176677.989    23176691.4894
  20407405.974    -3648207.399 9  -2842248.16047  20407405.647    20407414.3114
  21022233.302     1558778.509 9   1208659.74647  21022233.111    21022242.8914
  23144772.411     6195942.282 8   4817907.77645  23144772.027    23144784.4724
  20159766.517    -4963162.349 9  -3865375.75247  20159765.894    20159774.4384
  24715630.078    -3313970.143 7  -2575609.60745  24715629.376    24715648.3774
  24488667.255     2316049.956 7   1799591.03445  24488666.378    24488679.8564
  23363422.155    -9350495.705 8  -7274207.20945  23363421.471    23363436.1494
  20788007.210    -2390749.463 9  -1861615.32747  20788007.362    20788014.5894
 00  2 29 16 42  0.0000000  0 10 02 18 27 19 31 08 11 10 07 13
  21600720.742    -5532212.775 9  -4255133.64547  21600720.123    21600729.6934
  23197726.477    10343049.582 8   8040354.53146  23197726.088    23197739.6804
  20405243.977    -3659569.016 9  -2851101.41647  20405243.634    20405252.3014
  21029183.666     1595302.722 9   1237120.07647  21029183.489    21029193.2914
  23161393.909     6283287.823 8   4885969.03545  23161393.460    23161406.0244
  20155259.831    -4986845.128 9  -3883829.89347  20155259.214    20155267.7724
  24705020.100    -3369724.612 7  -2619054.53545  24705019.431    24705038.4894
  24498043.743     2365321.978 7   1837984.67045  24498042.848    24498056.2214
  23344271.916    -9451130.750 8  -7352624.00745  23344271.178    23344285.7244
  20791332.014    -2373277.689 9  -1848001.01447  20791332.160    20791339.4204
 00  2 29 16 42 30.0000000  0 10 02 18 27 19 31 08 11 10 07 13
  21595254.415    -5560938.579 9  -4277517.40547  21595253.797    21595263.3644
  23218806.228    10453823.253 8   8126671.37546  23218805.875    23218819.4714
  20403135.855    -3670647.678 9  -2859734.18047  20403135.503    20403144.1764
  21036196.239     1632153.502 9   1265834.87747  21036196.054    21036205.8874
  23178081.547     6370981.384 8   4954301.45745  23178081.118    23178093.7254
  20150804.852    -5010256.439 9  -3902072.49447  20150804.228    20150812.8034
  24694442.997    -3425306.878 7  -2662365.29145  24694442.383    24694461.3604
  24507477.206     2414894.563 7   1876612.52045  24507476.337    24507489.6314
  23325150.889    -9551611.603 8  -7430920.63546  23325150.194    23325164.7454
  20794764.536    -2355240.111 9  -1833945.82247  20794764.694    20794771.9634
 00  2 29 16 43  0.0000000  0 10 02 18 27 19 31 08 11 10 07 13
  21589828.349    -5589452.754 9  -4299736.26247  21589827.743    21589837.2934
  23239915.135    10564750.310 8   8213107.74146  23239914.791    23239928.5374
  20401086.193    -3681418.811 9  -2868127.30247  20401085.852    20401094.5364
  21043274.520     1669349.626 9   1294818.77747  21043274.314    21043284.1704
  23194837.300     6459032.230 8   5022912.29345  23194836.837    23194849.4104
  20146403.478    -5033385.723 9  -3920095.33147  20146402.875    20146411.4784
  24683900.130    -3480710.200 7  -2705536.61245  24683899.482    24683918.2164
  24516967.341     2464766.513 7   1915473.62745  24516966.507    24516979.8904
  23306058.951    -9651940.099 8  -7509098.56546  23306058.242    23306072.8214
  20798304.975    -2336635.288 9  -1819448.61247  20798305.123    20798312.4134
 00  2 29 16 43 30.0000000  0 10 02 18 27 19 31 08 11 10 07 13
  21584443.761    -5617749.127 9  -4321785.41147  21584443.131    21584452.6934
  23261053.280    10675831.151 8   8299663.94045  23261052.967    23261066.8774
  20399098.960    -3691861.966 9  -2876264.86647  20399098.618    20399107.3264
  21050420.356     1706901.039 9   1324079.51547  21050420.167    21050430.0504
  23211664.656     6547459.598 8   5091816.52345  23211664.149    23211676.7754
  20142056.172    -5056231.082 9  -3937896.93647  20142055.575    20142064.1814
  24673393.438    -3535921.957 7  -2748558.66645  24673392.856    24673411.6404
  24526514.970     2514937.456 7   1954567.75645  24526514.137    24526527.2694
  23286996.607    -9752112.968 8  -7587155.21846  23286995.888    23287010.4434
  20801952.214    -2317469.036 9  -1804513.93547  20801952.378    20801959.6944
 00  2 29 16 44  0.0000000  0 10 02 18 27 19 31 08 11 10 07 13
  21579100.690    -5645827.011 9  -4343664.28447  21579100.060    21579109.6494
  23282217.078    10787046.311 8   8386324.81145  23282216.746    23282230.7274
  20397173.119    -3701982.543 9  -2884151.07447  20397172.771    20397181.4934
  21057629.407     1744784.667 9   1353599.12947  21057629.237    21057639.1544
  23228565.434     6636273.213 8   5161021.72545  23228564.929    23228577.6174
  20137763.456    -5078789.522 9  -3955474.97047  20137762.857    20137771.4634
  24662922.971    -3590944.058 7  -2791432.92645  24662922.524    24662941.2794
  24536119.838     2565411.624 7   1993898.12445  24536118.798    24536132.3384
  23267965.051    -9852123.798 8  -7665085.59546  23267964.344    23267978.8864
  20805704.918    -2297748.794 9  -1789147.57247  20805705.080    20805712.4034
 00  2 29 16 44 30.0000000  0 11 26 02 18 27 19 31 08 11 10 07 13
  24578673.222    -2174437.456 7  -1679738.27445  24578673.109    24578685.8284
  21573798.162    -5673691.891 9  -4365377.18447  21573797.561    21573807.1614
  23303404.179    10898384.125 8   8473081.24645  23303403.838    23303417.8334
  20395306.717    -3711790.732 9  -2891793.85947  20395306.363    20395315.0924
  21064898.794     1782985.221 9   1383365.70847  21064898.614    21064908.5624
  23245537.261     6725460.221 8   5230517.88445  23245536.800    23245549.5474
  20133526.618    -5101054.371 9  -3972824.22647  20133526.000    20133534.6264
  24652486.957    -3645785.555 7  -2834166.44645  24652486.508    24652505.2564
  24545779.393     2616171.709 7   2033451.29945  24545778.491    24545791.8794
  23248962.715    -9951981.145 8  -7742896.37446  23248962.009    23248976.5044
  20809563.213    -2277473.505 9  -1773348.70147  20809563.389    20809570.7194
 00  2 29 16 45  0.0000000  0 11 26 02 18 27 19 31 08 11 10 07 13
  24561021.204    -2267199.748 7  -1752020.65745  24561021.108    24561033.8964
  21568533.930    -5701355.815 9  -4386933.51447  21568533.315    21568542.9144
  23324611.887    11009829.995 8   8559921.87745  23324611.507    23324625.5884
  20393497.553    -3721298.056 9  -2899202.21247  20393497.206    20393505.9284
  21072226.423     1821491.670 9   1413370.64347  21072226.231    21072236.2004
  23262576.551     6815001.258 8   5300289.91045  23262576.103    23262588.7984
  20129345.923    -5123023.922 9  -3989943.38647  20129345.324    20129353.9694
  24642085.346    -3700446.394 7  -2876759.19045  24642084.800    24642103.4864
  24555491.750     2667210.263 7   2073221.44245  24555490.907    24555504.4334
  23229986.303   -10051702.524 8  -7820601.18446  23229985.586    23230000.0404
  20813523.333    -2256663.331 9  -1757133.04247  20813523.497    20813530.8314
 00  2 29 16 45 30.0000000  0 11 26 02 18 27 19 31 08 11 10 07 13
  24543412.895    -2359732.701 7  -1824124.31545  24543412.839    24543425.5154
  21563313.578    -5728789.249 9  -4408310.21047  21563312.939    21563322.5294
  23345845.614    11121412.405 8   8646868.88645  23345845.157    23345859.3634
  20391750.146    -3730481.042 9  -2906357.83347  20391749.785    20391758.5194
  21079618.089     1860334.571 9   1443637.74947  21079617.874    21079627.8734
  23279686.033     6904910.962 8   5370349.20745  23279685.509    23279698.2554
  20125225.622    -5144676.265 9  -4006815.36747  20125225.046    20125233.6784
  24631722.617    -3754902.312 7  -2919192.23145  24631722.274    24631740.7924
  24565263.941     2718562.243 7   2113235.89145  24565263.063    24565276.5414
  23211043.925   -10151245.183 8  -7898166.72346  23211043.129    23211057.5774
  20817591.732    -2235283.865 9  -1740473.77747  20817591.911    20817599.2524
 00  2 29 16 46  0.0000000  0 11 26 02 18 27 19 31 08 11 10 07 13
  24525849.211    -2452030.971 7  -1896045.11745  24525849.117    24525861.7714
  21558134.478    -5756005.405 9  -4429517.61147  21558133.874    21558143.4454
  23367104.012    11233124.396 8   8733916.88945  23367103.421    23367117.6804
  20390062.970    -3739347.445 9  -2913266.76147  20390062.613    20390071.3634
  21087074.396     1899517.325 9   1474169.67547  21087074.172    21087084.1974
  23296862.159     6995171.377 8   5440681.78745  23296861.617    23296874.4344
  20121164.775    -5166016.293 9  -4023443.99347  20121164.198    20121172.8474
  24621396.524    -3809165.567 7  -2961475.15545  24621396.252    24621414.6504
  24575095.549     2770228.075 7   2153494.80245  24575094.655    24575108.4194
  23192135.657   -10250608.136 8  -7975592.23246  23192134.890    23192149.3064
  20821769.369    -2213330.714 9  -1723367.48747  20821769.529    20821776.8804
 00  2 29 16 46 30.0000000  0 11 26 02 18 27 19 31 08 11 10 07 13
  24508330.407    -2544093.365 7  -1967782.09645  24508330.486    24508343.0354
  21552992.504    -5783026.745 9  -4450573.19647  21552991.884    21553001.4654
  23388387.422    11344968.586 8   8821067.90645  23388386.956    23388401.1964
  20388437.545    -3747889.132 9  -2919922.66347  20388437.199    20388445.9604
  21094598.103     1939054.392 9   1504977.68447  21094597.914    21094607.9434
  23314103.870     7085775.860 8   5511282.46845  23314103.311    23314116.2074
  20117163.812    -5187041.633 9  -4039827.40247  20117163.248    20117171.9224
  24611109.100    -3863226.190 8  -3003600.15345  24611108.843    24611127.1554
  24584985.087     2822196.701 7   2193989.72945  24584984.160    24584997.9844
  23173261.292   -10349793.136 8  -8052879.07846  23173260.486    23173274.8364
  20826056.544    -2190801.646 9  -1705812.43147  20826056.711    20826064.0794
 00  2 29 16 47  0.0000000  0 11 26 02 18 27 19 31 08 11 10 07 13
  24490856.241    -2635920.773 7  -2039335.94745  24490856.333    24490869.0154
  21547885.409    -5809864.905 9  -4471486.03547  21547884.790    21547894.3664
  23409696.678    11456948.267 8   8908324.48845  23409696.254    23409710.5954
  20386876.081    -3756094.838 9  -2926316.75747  20386875.760    20386884.5324
  21102186.525     1978931.411 9   1536050.60147  21102186.310    21102196.3504
  23331411.416     7176726.425 8   5582152.82045  23331410.880    23331423.7974
  20113222.726    -5207752.364 9  -4055965.66347  20113222.166    20113230.8384
  24600862.217    -3917074.020 7  -3045559.34545  24600861.938    24600880.1284
  24594932.495     2874470.984 7   2234722.80545  24594931.493    24594945.4314
  23154423.964   -10448783.118 8  -8130013.95146  23154423.206    23154437.5254
  20830454.593    -2167689.899 9  -1687803.33947  20830454.776    20830462.1474
 00  2 29 16 47 30.0000000  0 11 26 02 18 27 19 31 08 11 10 07 13
  24473427.757    -2727507.618 7  -2110702.35745  24473427.928    24473440.6194
  21542814.367    -5836513.340 9  -4492251.04147  21542813.770    21542823.3504
  23431032.060    11569065.127 8   8995687.96445  23431031.634    23431046.0314
  20385377.817    -3763968.513 9  -2932452.12247  20385377.507    20385386.2754
  21109836.262     2019130.482 9   1567374.46747  21109836.034    21109846.0594
  23348784.746     7268023.032 8   5653292.82745  23348784.223    23348797.2444
  20109339.320    -5228159.884 9  -4071867.64747  20109338.754    20109347.4334
  24590655.654    -3970709.221 7  -3087352.85345  24590655.373    24590673.4444
  24604935.196     2927034.913 7   2275681.55345  24604934.388    24604948.2774
  23135627.395   -10547558.999 8  -8206981.98446  23135626.689    23135640.9564
  20834965.677    -2143984.337 9  -1669331.53347  20834965.853    20834973.2414
 00  2 29 16 48  0.0000000  0 11 26 02 18 27 19 31 08 11 10 07 13
  24456046.500    -2818846.781 7  -2181875.78245  24456046.592    24456059.0364
  21537780.623    -5862965.866 9  -4512863.39247  21537780.025    21537789.6044
  23452393.249    11681317.727 8   9083157.20345  23452392.816    23452407.1864
  20383943.789    -3771504.680 9  -2938324.50347  20383943.450    20383952.2544
  21117543.734     2059633.104 9   1598934.85747  21117543.509    21117553.5614
  23366225.549     7359674.387 8   5724709.24845  23366224.999    23366238.1324
  20105511.538    -5248275.116 9  -4087541.88247  20105510.964    20105519.6874
  24580492.203    -4024117.888 7  -3128969.83645  24580491.950    24580509.9234
  24614988.938     2979867.495 7   2316849.70345  24614988.139    24615001.9664
  23116870.892   -10646124.066 8  -8283785.76346  23116870.255    23116884.4344
  20839590.103    -2119682.998 9  -1650395.49047  20839590.312    20839597.7184
 00  2 29 16 48 30.0000000  0 11 26 02 18 27 19 31 08 11 10 07 13
  24438712.672    -2909936.593 7  -2252854.87945  24438712.681    24438725.4074
  21532784.546    -5889220.331 9  -4533321.42247  21532783.934    21532793.5324
  23473779.245    11793700.557 8   9170727.92445  23473778.820    23473793.3644
  20382574.630    -3778699.837 9  -2943931.16047  20382574.297    20382583.1124
  21125305.496     2100421.270 9   1630717.76147  21125305.285    21125315.3764
  23383732.508     7451673.317 8   5796396.52745  23383732.029    23383745.1794
  20101739.195    -5268099.035 9  -4102989.11247  20101738.626    20101747.3564
  24570374.246    -4077287.871 7  -3170400.84245  24570373.954    24570391.9954
  24625090.830     3032952.553 7   2358214.49945  24625089.984    24625104.1784
  23098154.869   -10744476.289 8  -8360423.67346  23098154.301    23098168.3764
  20844325.404    -2094799.150 9  -1631005.54347  20844325.594    20844333.0314
 00  2 29 16 49  0.0000000  0 11 26 02 18 27 19 31 08 11 10 07 13
  24421427.625    -3000770.633 7  -2323634.66245  24421427.607    24421440.5394
  21527829.791    -5915257.760 9  -4553610.33647  21527829.174    21527838.7734
  23495189.707    11906212.696 8   9258399.38645  23495189.368    23495203.9554
  20381268.811    -3785562.010 9  -2949278.35147  20381268.481    20381277.3034
  21133120.034     2141486.894 9   1662716.86047  21133119.865    21133130.0024
  23401304.262     7544012.479 8   5868348.92145  23401303.774    23401317.0974
  20098021.032    -5287638.054 9  -4118214.34847  20098020.450    20098029.1934
  24560300.682    -4130223.496 7  -3211649.24245  24560300.398    24560318.5164
  24635238.315     3086276.811 7   2399765.76045  24635237.539    24635251.4334
  23079478.466   -10842620.695 8  -8436899.67946  23079477.860    23079491.9054
  20849170.843    -2069336.401 9  -1611164.51947  20849171.029    20849178.4774
 00  2 29 16 49 30.0000000  0 11 26 02 18 27 19 31 08 11 10 07 13
  24404192.910    -3091339.993 7  -2394208.23745  24404192.889    24404205.7374
  21522917.661    -5941071.269 9  -4573724.75847  21522917.045    21522926.6244
  23516622.118    12018839.852 8   9346160.46945  23516621.861    23516636.4814
  20380024.212    -3792102.531 9  -2954374.90447  20380023.903    20380032.7274
  21140991.907     2182853.603 9   1694950.57047  21140991.726    21141001.8894
  23418938.456     7636680.038 8   5940557.20045  23418937.976    23418951.3544
  20094355.921    -5306898.143 9  -4133222.22847  20094355.367    20094364.1224
  24550270.522    -4182931.390 7  -3252720.21845  24550270.252    24550288.3844
  24645433.174     3139850.688 8   2441511.54245  24645432.301    24645446.1354
  23060838.113   -10940575.457 8  -8513227.90746  23060837.545    23060851.6464
  20854124.529    -2043304.832 9  -1590880.24547  20854124.710    20854132.1664
 00  2 29 16 50  0.0000000  0 11 26 02 18 27 19 31 08 11 10 07 13
  24387008.857    -3181642.147 7  -2464573.58145  24387008.914    24387021.7424
  21518045.399    -5966675.275 9  -4593675.93147  21518044.778    21518054.3784
  23538074.467    12131571.481 8   9434002.96445  23538074.230    23538088.9014
  20378842.490    -3798312.708 9  -2959214.05047  20378842.171    20378851.0104
  21148923.576     2224534.318 9   1727428.96047  21148923.385    21148933.5594
  23436633.182     7729665.907 8   6013013.51645  23436632.747    23436646.1964
  20090746.571    -5325865.643 9  -4148002.11347  20090746.026    20090754.7954
  24540284.736    -4235406.010 7  -3293609.40545  24540284.575    24540302.6624
  24655677.514     3193684.450 7   2483459.76345  24655676.579    24655690.5814
  23042230.841   -11038356.656 8  -8589420.89746  23042230.286    23042244.3594
  20859184.644    -2016714.096 9  -1570160.26247  20859184.817    20859192.2964
 00  2 29 16 50 30.0000000  0 11 26 02 18 27 19 31 08 11 10 07 13
  24369872.508    -3271694.461 7  -2534744.21745  24369872.559    24369885.3784
  21513209.943    -5992085.675 9  -4613476.26247  21513209.325    21513218.9274
  23559549.099    12244419.784 8   9521936.35945  23559548.833    23559563.5124
  20377723.404    -3804193.834 9  -2963796.79247  20377723.076    20377731.9224
  21156917.765     2266543.652 9   1760163.40847  21156917.561    21156927.7734
  23454386.431     7822959.334 8   6085709.50245  23454386.046    23454399.4834
  20087197.743    -5344515.250 9  -4162534.30047  20087197.173    20087205.9564
  24530342.066    -4287654.611 7  -3334322.51945  24530341.908    24530359.9294
  24665974.559     3247795.569 7   2525624.19945  24665973.811    24665987.6974
  23023656.830   -11135963.330 8  -8665477.93046  23023656.294    23023670.3064
  20864351.774    -1989560.806 9  -1549001.93047  20864351.960    20864359.4684
 00  2 29 16 51  0.0000000  0 11 26 02 18 27 19 31 08 11 10 07 13
  24352783.753    -3361497.155 7  -2604720.39345  24352783.838    24352796.4374
  21508412.123    -6017298.341 9  -4633122.50747  21508411.507    21508421.1124
  23581044.791    12357378.998 8   9609956.19045  23581044.502    23581059.2954
  20376666.112    -3809750.095 9  -2968126.38847  20376665.808    20376674.6774
  21164977.305     2308896.371 9   1793165.43347  21164977.091    21164987.3244
  23472199.110     7916564.891 8   6158648.70945  23472198.635    23472212.0964
  20083708.410    -5362851.943 9  -4176822.65747  20083707.848    20083716.6244
  24520441.028    -4339684.866 7  -3374865.47545  24520440.912    24520458.9594
  24676327.496     3302200.191 7   2568017.31345  24676326.615    24676340.6764
  23005117.566   -11233387.290 8  -8741392.58046  23005117.009    23005130.9794
  20869629.698    -1961825.478 9  -1527390.05547  20869629.886    20869637.4074
 00  2 29 16 51 30.0000000  0 11 26 02 18 27 19 31 08 11 10 07 13
  24335739.073    -3451067.212 7  -2674515.24545  24335739.218    24335751.9094
  21503649.510    -6042326.008 9  -4652624.60747  21503648.934    21503658.5054
  23602562.181    12470452.260 8   9698064.88545  23602561.815    23602576.7454
  20375672.758    -3814970.146 9  -2972194.00747  20375672.455    20375681.3514
  21173102.608     2351594.805 9   1826436.84547  21173102.406    21173112.6514
  23490072.385     8010488.764 8   6231835.95845  23490071.951    23490085.4084
  20080279.538    -5380870.663 9  -4190863.24947  20080279.002    20080287.7914
  24510581.622    -4391495.980 7  -3415237.70245  24510581.537    24510599.6064
  24686738.202     3356908.661 8   2610647.17845  24686737.377    24686751.2514
  22986615.486   -11330615.888 8  -8817155.01146  22986614.878    22986628.9014
  20875019.045    -1933504.605 9  -1505321.91647  20875019.235    20875026.7524
 00  2 29 16 52  0.0000000  0 11 26 02 18 27 19 31 08 11 10 07 13
  24318737.557    -3540410.615 7  -2744133.49645  24318737.848    24318750.5394
  21498921.473    -6067172.090 9  -4671985.20747  21498920.907    21498930.4754
  23624105.852    12583663.576 8   9786281.15045  23624105.432    23624120.4794
  20374746.264    -3819839.049 9  -2975987.99747  20374745.977    20374754.8774
  21181291.763     2394628.809 9   1859969.74347  21181291.577    21181301.8264
  23508008.721     8104744.257 8   6305281.60345  23508008.354    23508021.9584
  20076913.432    -5398560.022 9  -4204647.19447  20076912.902    20076921.6834
  24500764.128    -4443086.177 7  -3455437.79745  24500763.994    24500782.0454
  24697201.169     3411890.815 7   2653490.33145  24697200.284    24697214.5144
  22968153.324   -11427634.783 8  -8892754.04146  22968152.729    22968166.7064
  20880517.890    -1904608.228 9  -1482805.32847  20880518.088    20880525.6234
 00  2 29 16 52 30.0000000  0 11 26 02 18 27 19 31 08 11 10 07 13
  24301780.148    -3629523.261 7  -2813571.95945  24301780.347    24301793.0534
  21494230.200    -6091825.009 9  -4691195.29147  21494229.644    21494239.2344
  23645676.326    12697016.322 8   9874607.62045  23645675.938    23645691.0774
  20373884.872    -3824366.042 9  -2979515.57047  20373884.553    20373893.4624
  21189544.599     2437997.270 9   1893763.24647  21189544.413    21189554.6744
  23526011.123     8199347.004 8   6378997.83845  23526010.811    23526024.3664
  20073609.457    -5415922.620 9  -4218176.53147  20073608.910    20073617.7264
  24490988.245    -4494458.060 7  -3495467.77245  24490988.152    24491006.0474
  24707714.174     3467136.927 7   2696539.07645  24707713.315    24707727.5014
  22949735.086   -11524422.693 8  -8968173.10046  22949734.459    22949748.4804
  20886123.794    -1875149.276 9  -1459850.37747  20886123.987    20886131.5494
 00  2 29 16 53  0.0000000  0 11 26 02 18 27 19 31 08 11 10 07 13
  24284869.716    -3718388.337 7  -2882817.51545  24284869.835    24284882.5864
  21489578.560    -6116269.658 9  -4710243.08547  21489577.975    21489587.5754
  23667269.564    12810488.112 8   9963026.85245  23667269.200    23667284.3624
  20373086.780    -3828560.223 9  -2982783.80547  20373086.476    20373095.3914
  21197859.647     2481692.866 9   1927811.66847  21197859.457    21197869.7134
  23544080.644     8294302.247 8   6452988.73845  23544080.322    23544093.9314
  20070363.380    -5432980.843 9  -4231468.68047  20070362.837    20070371.6394
  24481254.829    -4545606.690 7  -3535323.78845  24481254.870    24481272.6064
  24718271.686     3522616.413 7   2739769.83945  24718270.628    24718284.4374
  22931360.168   -11620983.365 8  -9043415.08746  22931359.520    22931373.4614
  20891833.050    -1845147.150 9  -1436472.17147  20891833.225    20891840.8164
 00  2 29 16 53 30.0000000  0 11 26 02 18 27 19 31 08 11 10 07 13
  24268007.317    -3807001.025 7  -2951866.38245  24268007.438    24268020.1894
  21484964.455    -6140516.855 9  -4729137.00947  21484963.889    21484973.5054
  23688886.531    12924084.770 8  10051543.38345  23688886.185    23688901.5144
  20372351.800    -3832422.761 9  -2985793.60847  20372351.465    20372360.4024
  21206235.011     2525705.134 9   1962106.84947  21206234.809    21206245.0914
  23562213.823     8389591.839 8   6527240.16545  23562213.499    23562227.0924
  20067176.513    -5449728.020 9  -4244518.45647  20067175.983    20067184.7804
  24471565.026    -4596527.185 7  -3575002.02645  24471564.918    24471582.7424
  24728868.392     3578301.692 8   2783160.80945  24728867.340    24728881.5784
  22913026.416   -11717327.263 8  -9118488.15046  22913025.782    22913039.6774
  20897639.702    -1814633.262 9  -1412695.19047  20897639.875    20897647.5084
 00  2 29 16 54  0.0000000  0 11 26 02 18 27 19 31 08 11 10 07 13
  24251197.155    -3895338.812 7  -3020701.06245  24251197.306    24251210.0514
  21480389.388    -6164559.207 9  -4747871.33247  21480388.826    21480398.4284
  23710523.560    13037786.992 8  10140142.16945  23710523.256    23710538.5634
  20371677.924    -3835964.269 9  -2988553.26347  20371677.581    20371686.5284
  21214669.594     2570028.797 9   1996644.66847  21214669.390    21214679.6974
  23580406.966     8485196.717 8   6601737.27445  23580406.604    23580420.3274
  20064048.184    -5466167.639 9  -4257328.57847  20064047.649    20064056.4424
  24461918.312    -4647220.757 7  -3614503.43045  24461918.057    24461936.0304
  24739501.733     3634178.678 7   2826701.22045  24739500.650    24739514.8674
  22894734.716   -11813450.423 8  -9193389.23046  22894734.095    22894747.9504
  20903542.600    -1783613.592 9  -1388524.09347  20903542.778    20903550.4244
 00  2 29 16 54 30.0000000  0 11 26 02 18 27 19 31 08 11 10 07 13
  24234439.365    -3983402.012 7  -3089321.74245  24234439.447    24234452.3204
  21475853.607    -6188395.077 9  -4766444.75947  21475853.036    21475862.6434
  23732173.809    13151558.427 8  10228794.88445  23732173.558    23732188.9194
  20371061.507    -3839203.644 9  -2991077.49647  20371061.178    20371070.1144
  21223161.599     2614654.186 9   2031417.59747  21223161.401    21223171.7584
  23598655.230     8581091.158 8   6676460.00945  23598654.831    23598668.6374
  20060976.702    -5482308.499 9  -4269905.90047  20060976.165    20060984.9714
  24452316.584    -4697678.018 7  -3653820.71245  24452316.294    24452334.1584
  24750173.242     3690258.840 7   2870399.88545  24750172.291    24750186.8464
  22876486.410   -11909345.720 8  -9268112.73446  22876485.799    22876499.5594
  20909547.348    -1752058.617 9  -1363935.87647  20909547.531    20909555.1914
 00  2 29 16 55  0.0000000  0 11 26 02 18 27 19 31 08 11 10 07 13
  24217732.830    -4071195.658 7  -3157732.40145  24217732.882    24217745.7104
  21471357.086    -6212024.333 9  -4784857.17447  21471356.519    21471366.1454
  23753836.247    13265393.815 8  10317497.43545  23753835.981    23753851.4814
  20370507.023    -3842117.684 9  -2993348.21947  20370506.711    20370515.6444
  21231712.797     2659590.588 9   2066432.87347  21231712.591    21231722.9674
  23616953.156     8677246.772 8   6751386.24745  23616952.674    23616966.6114
  20057961.479    -5498153.889 9  -4282252.99047  20057960.903    20057969.7104
  24442762.196    -4747886.672 7  -3692944.24945  24442761.728    24442779.7634
  24760885.407     3746550.726 7   2914263.60945  24760884.517    24760898.8694
  22858280.085   -12005019.886 8  -9342663.95446  22858279.512    22858293.2554
  20915659.519    -1719939.424 9  -1338908.00647  20915659.690    20915667.3734
 00  2 29 16 55 30.0000000  0 11 26 02 18 27 19 31 08 11 10 07 13
  24201078.356    -4158715.044 7  -3225929.32845  24201078.572    24201091.4124
  21466898.736    -6235453.112 9  -4803113.37447  21466898.146    21466907.7564
  23775511.306    13379295.698 8  10406251.80345  23775511.116    23775526.6454
  20370018.469    -3844685.226 9  -2995348.94247  20370018.140    20370027.1064
  21240325.125     2704848.357 9   2101698.57047  21240324.939    21240335.3274
  23635299.518     8773656.456 8   6826510.47045  23635299.082    23635312.9204
  20055007.399    -5513677.891 9  -4294349.64647  20055006.818    20055015.6194
  24433255.389    -4797845.196 7  -3731872.88345  24433254.869    24433272.9304
  24771642.913     3803081.265 7   2958313.29145  24771642.008    24771656.1194
  22840117.888   -12100462.866 8  -9417035.00246  22840117.266    22840130.9504
  20921883.546    -1687232.266 9  -1313421.98447  20921883.701    20921891.4124
 00  2 29 16 56  0.0000000  0 11 26 02 18 27 19 31 08 11 10 07 13
  24184477.667    -4245952.719 8  -3293906.74645  24184477.804    24184490.6984
  21462481.461    -6258666.061 9  -4821201.40047  21462480.894    21462490.4954
  23797196.523    13493250.877 8  10495047.70545  23797196.372    23797211.8644
  20369598.439    -3846892.595 9  -2997069.02047  20369598.121    20369607.0964
  21248999.885     2750434.018 9   2137219.76347  21248999.684    21249010.0854
  23653699.031     8870345.253 8   6901852.17845  23653698.535    23653712.2864
  20052115.327    -5528875.834 9  -4306192.22847  20052114.760    20052123.5754
  24423796.965    -4847549.019 7  -3770603.01945  24423796.508    24423814.5224
  24782450.268     3859873.279 7   3002566.74045  24782449.287    24782463.3904
  22822001.302   -12195665.505 8  -9491218.78446  22822000.717    22822014.3194
  20928223.684    -1653914.716 9  -1287460.32247  20928223.852    20928231.5724
 00  2 29 16 56 30.0000000  0 11 26 02 18 27 19 31 08 11 10 07 13
  24167929.872    -4332912.210 7  -3361667.37945  24167929.940    24167942.8484
  21458105.035    -6281664.401 9  -4839122.19747  21458104.463    21458114.0734
  23818894.336    13607272.531 8  10583895.39345  23818894.212    23818909.8564
  20369248.827    -3848729.981 9  -2998500.80047  20369248.513    20369257.5074
  21257740.554     2796366.435 9   2173011.16047  21257740.372    21257750.8024
  23672154.099     8967326.466 8   6977421.72045  23672153.599    23672167.3384
  20049285.662    -5543746.202 9  -4317779.55447  20049285.079    20049293.8854
  24414390.442    -4896980.466 7  -3809120.88745  24414389.940    24414407.8724
  24793310.292     3916945.268 7   3047038.17445  24793309.568    24793323.9874
  22803929.178   -12290635.005 8  -9565220.89346  22803928.609    22803942.1844
  20934680.065    -1619986.492 9  -1261022.81247  20934680.232    20934687.9654
 00  2 29 16 57  0.0000000  0 10 26 02 18 27 19 31 08 11 07 13
  24151436.527    -4419585.147 8  -3429204.72145  24151436.649    24151449.4724
  21453767.983    -6304455.879 9  -4856881.78847  21453767.396    21453777.0234
  23840606.993    13721372.156 8  10672803.84445  23840606.941    23840622.6934
  20368969.047    -3850200.427 9  -2999646.64747  20368968.726    20368977.7254
  21266548.043     2842649.851 9   2209076.06147  21266547.875    21266558.3224
  23690665.412     9064603.263 8   7053221.59945  23690664.974    23690678.8044
  20046517.844    -5558291.180 9  -4329113.32747  20046517.275    20046526.0794
  24405032.638    -4946156.301 7  -3847439.61145  24405032.118    24405049.8534
  22785896.716   -12385396.001 8  -9639060.51446  22785896.103    22785909.6674
  20941243.950    -1585493.357 9  -1234145.11347  20941244.118    20941251.8584
 00  2 29 16 57 30.0000000  0 10 26 02 18 27 19 31 08 11 07 13
  24135001.312    -4505953.548 8  -3496504.74245  24135001.286    24135014.1554
  21449470.555    -6327038.957 9  -4874478.99247  21449469.981    21449479.6234
  23862336.572    13835560.107 8  10761781.12145  23862336.518    23862352.1734
  20368757.410    -3851312.714 9  -3000513.41047  20368757.083    20368766.1064
  21275420.442     2889274.228 9   2245406.64347  21275420.263    21275430.7204
  23709239.786     9162211.877 7   7129280.02845  23709239.285    23709253.2604
  20043815.678    -5572491.166 9  -4340178.27647  20043815.106    20043823.9554
  24395723.063    -4995078.004 7  -3885560.28045  24395722.613    24395740.3744
  22767906.796   -12479933.099 8  -9712725.66946  22767906.197    22767919.7224
  20947912.145    -1550452.031 9  -1206840.25247  20947912.322    20947920.0844
 00  2 29 16 58  0.0000000  0 10 26 02 18 27 19 31 08 11 07 13
  24118622.138    -4592026.440 8  -3563574.49845  24118622.265    24118635.1114
  21445210.209    -6349427.241 9  -4891924.41047  21445209.620    21445219.2704
  23884082.303    13949833.057 8  10850824.63645  23884082.173    23884098.0164
  20368611.703    -3852078.406 9  -3001110.10447  20368611.384    20368620.4254
  21284356.377     2936232.275 9   2281997.22647  21284356.177    21284366.6574
  23727875.141     9260140.651 8   7205587.92745  23727874.664    23727888.7274
  20041175.124    -5586367.360 9  -4350990.91847  20041174.573    20041183.3864
  24386462.637    -5043740.867 7  -3923479.26945  24386462.214    24386480.2774
  22749960.840   -12574239.487 8  -9786211.05446  22749960.230    22749973.7034
  20954681.533    -1514878.954 9  -1179121.03947  20954681.696    20954689.4754
 00  2 29 16 58 30.0000000  0 10 26 02 18 27 19 31 08 11 07 13
  24102298.647    -4677806.799 8  -3630416.30145  24102298.786    24102311.6944
  21440983.312    -6371639.606 9  -4909232.75547  21440982.737    21440992.4064
  23905844.632    14064194.092 8  10939936.79145  23905844.558    23905860.5734
  20368530.209    -3852506.783 9  -3001443.95447  20368529.900    20368538.9464
  21293353.691     2983513.074 9   2318839.30347  21293353.508    21293364.0484
  23746565.830     9358359.661 8   7282121.98745  23746565.294    23746579.4264
  20038595.752    -5599922.157 9  -4361553.12447  20038595.169    20038604.0164
  24377251.345    -5092146.434 7  -3961197.76245  24377250.751    24377268.7884
  22732058.272   -12668317.655 8  -9859518.60446  22732057.654    22732071.1644
  20961551.012    -1478780.025 9  -1150992.07347  20961551.180    20961558.9744
 00  2 29 16 59  0.0000000  0 10 26 02 18 27 19 31 08 11 07 13
  24086031.004    -4763293.798 8  -3697029.52545  24086031.147    24086044.0054
  21436787.548    -6393688.599 9  -4926413.78747  21436786.991    21436796.6684
  23927621.110    14178628.987 8  11029106.48945  23927621.062    23927637.2424
  20368513.470    -3852594.935 9  -3001512.68447  20368513.182    20368522.2454
  21302408.341     3031095.203 9   2355916.19147  21302408.189    21302418.7554
  23765311.046     9456865.444 8   7358879.49645  23765310.517    23765324.7204
  20036078.698    -5613149.095 9  -4371859.85047  20036078.152    20036087.0144
  24368086.203    -5140308.673 7  -3998726.65845  24368085.755    24368103.5634
  22714200.874   -12762157.930 8  -9932640.77046  22714200.306    22714213.8264
  20968519.388    -1442161.158 9  -1122457.96047  20968519.566    20968527.3924
 00  2 29 16 59 30.0000000  0 10 26 02 18 27 19 31 08 11 07 13
  24069816.742    -4848499.992 7  -3763423.93645  24069816.943    24069829.7904
  21432620.039    -6415589.148 9  -4943479.16247  21432619.456    21432629.1564
  23949408.830    14293122.951 8  11118322.21945  23949408.749    23949425.1064
  20368563.296    -3852333.350 9  -3001308.90047  20368563.007    20368572.0794
  21311518.696     3078969.769 9   2393220.93747  21311518.522    21311529.1104
  23784109.271     9555650.107 8   7435854.31445  23784108.744    23784123.1244
  20033623.677    -5626050.480 9  -4381912.90447  20033623.141    20033632.0074
  24358969.741    -5188215.392 7  -4036056.42545  24358969.466    24358986.8384
  22696392.057   -12855743.249 8 -10005564.28046  22696391.525    22696405.0024
  20975590.889    -1405000.154 9  -1093501.40747  20975591.080    20975598.9464
 00  2 29 17  0  0.0000000  0 10 26 02 18 27 19 31 08 11 07 13
  24053656.305    -4933423.263 7  -3829597.86545  24053656.390    24053669.3764
  21428481.356    -6437338.246 9  -4960426.53047  21428480.771    21428490.4564
  23971209.203    14407683.215 8  11207589.61745  23971209.047    23971225.4384
  20368680.431    -3851717.940 9  -3000829.40847  20368680.146    20368689.2384
  21320687.879     3127153.618 9   2430766.68047  21320687.685    21320698.2944
  23802956.908     9654694.239 8   7513031.32145  23802956.415    23802970.7444
  20031230.838    -5638625.287 9  -4391711.48447  20031230.298    20031239.1454
  24349905.871    -5235845.726 7  -4073170.81745  24349905.262    24349922.9604
  22678632.835   -12949068.315 8 -10078284.99746  22678632.240    22678645.7084
  20982767.562    -1367286.869 9  -1064114.50647  20982767.742    20982775.6254
 00  2 29 17  0 30.0000000  0 10 26 02 18 27 19 31 08 11 07 13
  24037551.616    -5018053.790 8  -3895543.70945  24037551.820    24037564.6764
  21424374.146    -6458921.848 9  -4977244.93847  21424373.545    21424383.2244
  23993021.700    14522307.074 8  11296906.56045  23993021.517    23993038.0174
  20368864.101    -3850753.004 9  -3000077.55447  20368863.819    20368872.9234
  21329917.247     3175653.930 9   2468559.02447  21329917.056    21329927.6964
  23821855.513     9754006.129 8   7590416.96845  23821855.072    23821869.4824
  20028902.514    -5650860.961 9  -4401245.80347  20028901.960    20028910.8154
  24340895.021    -5283197.353 7  -4110068.05145  24340894.639    24340912.1284
  22660920.897   -13042144.791 8 -10150812.00046  22660920.301    22660933.8164
  20990049.548    -1329020.151 9  -1034296.36047  20990049.721    20990057.6124
 00  2 29 17  1  0.0000000  0 10 26 02 18 27 19 31 08 11 07 13
  24021502.326    -5102393.344 7  -3961262.81645  24021502.510    24021515.2654
  21420300.481    -6480329.036 9  -4993925.88447  21420299.875    21420309.5584
  24014845.003    14636988.342 8  11386268.25445  24014844.899    24014861.3744
  20369113.960    -3849440.322 9  -2999054.72147  20369113.656    20369122.7714
  21339208.966     3224482.062 9   2506606.80947  21339208.783    21339219.4374
  23840805.919     9853589.995 8   7668014.55645  23840805.483    23840819.9074
  20026637.663    -5662763.171 9  -4410520.27347  20026637.068    20026645.9174
  24331938.631    -5330263.609 7  -4146742.93045  24331938.249    24331955.6904
  22643256.104   -13134973.514 8 -10223145.95446  22643255.510    22643268.9694
  20997436.926    -1290199.394 9  -1004046.49847  20997437.087    20997445.0334
 00  2 29 17  1 30.0000000  0 10 26 02 18 27 19 31 08 11 07 13
  24005508.668    -5186440.200 7  -4026753.84545  24005508.882    24005521.7604
  21416261.494    -6501553.918 9  -5010464.78547  21416260.921    21416270.6064
  24036679.582    14751728.344 8  11475675.71945  24036679.403    24036695.9474
  20369429.657    -3847781.533 9  -2997762.20947  20369429.337    20369438.4734
  21348564.955     3273647.598 9   2544917.50447  21348564.776    21348575.4414
  23859805.432     9953432.030 8   7745813.29845  23859804.930    23859819.4564
  20024434.637    -5674340.160 9  -4419541.32747  20024434.053    20024442.9324
  24323037.368    -5377039.306 7  -4183191.37545  24323037.061    24323054.4104
  22625637.829   -13227557.592 8 -10295289.28246  22625637.237    22625650.6494
  21004931.337    -1250816.226 9   -973358.40447  21004931.518    21004939.4484
 00  2 29 17  2  0.0000000  0 10 26 02 18 27 19 31 08 11 07 13
  23989572.974    -5270182.822 7  -4092007.79145  23989573.174    23989586.1334
  21412258.908    -6522587.611 9  -5026854.71247  21412258.322    21412268.0314
  24058526.343    14866532.329 8  11565133.02745  24058526.087    24058542.8754
  20369811.304    -3845776.121 9  -2996199.60147  20369811.003    20369820.1484
  21357987.303     3323161.899 9   2583499.97147  21357987.093    21357997.7894
  23878853.430    10053528.897 8   7823810.64345  23878852.994    23878867.5524
  20022292.102    -5685599.488 9  -4428314.85547  20022291.516    20022300.3994
  24314189.637    -5423533.430 7  -4219420.46945  24314189.327    24314206.8444
  22608064.746   -13319904.421 8 -10367247.73746  22608064.133    22608077.5064
  21012530.490    -1210882.769 9   -942241.50747  21012530.648    21012538.6014
 00  2 29 17  2 30.0000000  0 10 26 02 18 27 19 31 08 11 07 13
  23973697.108    -5353611.603 8  -4157017.22545  23973697.185    23973710.1274
  21408294.497    -6543420.981 9  -5043088.53647  21408293.916    21408303.5944
  24080382.456    14981385.185 8  11654628.39845  24080382.207    24080398.9994
  20370262.011    -3843407.842 9  -2994354.23247  20370261.701    20370270.8564
  21367475.034     3373020.061 9   2622350.38047  21367474.825    21367485.5754
  23897949.750    10153880.408 8   7902006.39345  23897949.384    23897964.0844
  20020208.784    -5696547.600 9  -4436845.87747  20020208.198    20020217.0894
  24305393.353    -5469757.988 7  -4255439.49345  24305393.067    24305410.3654
  22590535.900   -13412018.729 8 -10439025.02346  22590535.318    22590548.6364
  21020233.497    -1170403.561 9   -910699.35847  21020233.645    21020241.6104
 00  2 29 17  3  0.0000000  0 10 26 02 18 27 19 31 08 11 07 13
  23957880.623    -5436727.751 7  -4221783.03645  23957880.644    23957893.5974
  21404366.827    -6564061.276 9  -5059171.92047  21404366.246    21404375.8954
  24102248.640    15096291.430 8  11744165.39245  24102248.361    24102265.1954
  20370784.479    -3840662.263 9  -2992214.86247  20370784.179    20370793.3644
  21377027.831     3423219.766 9   2661466.91547  21377027.611    21377038.3674
  23917094.753    10254486.912 8   7980400.83545  23917094.280    23917109.0884
  20018184.574    -5707184.930 9  -4445134.72847  20018183.980    20018192.8814
  24296649.258    -5515708.684 7  -4291245.13845  24296648.980    24296666.0834
  22573054.940   -13503881.021 8 -10510605.93246  22573054.380    22573067.7094
  21028037.487    -1129393.606 9   -878743.64447  21028037.652    21028045.6524
 00  2 29 17  3 30.0000000  0 10 26 02 18 27 19 31 08 11 07 13
  23942124.068    -5519528.343 8  -4286302.94845  23942124.162    23942137.1504
  21400474.145    -6584517.769 9  -5075112.07847  21400473.531    21400483.1704
  24124124.681    15211248.916 8  11833742.32545  24124124.386    24124141.2464
  20371380.747    -3837529.194 9  -2989773.55547  20371380.457    20371389.6374
  21386645.112     3473758.621 9   2700847.74047  21386644.914    21386655.6704
  23936288.006    10355346.997 8   8058992.87445  23936287.543    23936302.3784
  20016221.850    -5717499.091 9  -4453171.75447  20016221.288    20016230.1754
  24287956.772    -5561386.375 7  -4326838.03645  24287956.578    24287973.8514
  22555625.444   -13595473.268 8 -10581976.39846  22555624.846    22555638.1204
  21035938.666    -1087872.961 9   -846389.98147  21035938.832    21035946.8624
 00  2 29 17  4  0.0000000  0 10 26 02 18 27 19 31 08 11 07 13
  23926427.098    -5602016.558 8  -4350579.46645  23926427.109    23926440.0924
  21396616.712    -6604788.656 9  -5090907.60847  21396616.131    21396625.7704
  24146009.160    15326251.462 8  11923354.33345  24146008.895    24146025.8584
  20372050.091    -3834011.732 9  -2987032.72447  20372049.823    20372059.0244
  21396324.860     3524625.697 9   2740484.31147  21396324.672    21396335.4664
  23955530.313    10456464.850 8   8137785.78745  23955529.891    23955544.6524
  20014323.020    -5727477.685 9  -4460947.31147  20014322.433    20014331.3434
  24279319.447    -5606775.502 7  -4362206.09845  24279319.138    24279336.6964
  22538246.445   -13686799.901 8 -10653139.90946  22538245.867    22538259.0864
  21043935.013    -1045852.272 9   -813646.67947  21043935.177    21043943.2254
 00  2 29 17  4 30.0000000  0 10 26 02 18 27 19 31 08 11 07 13
  23910788.393    -5684197.866 8  -4414616.82945  23910788.436    23910801.4234
  21392795.592    -6624868.969 9  -5106554.64147  21392794.996    21392804.6494
  24167899.856    15441286.879 8  12012991.96745  24167899.630    24167916.6744
  20372792.369    -3830111.286 9  -2983993.46847  20372792.089    20372801.2904
  21406065.408     3575812.229 9   2780369.80947  21406065.239    21406076.0434
  23974819.601    10557830.124 8   8216771.47845  23974819.059    23974834.0414
  20012490.210    -5737109.038 9  -4468452.29347  20012489.662    20012498.5764
  24270739.473    -5651863.572 7  -4397339.60445  24270739.107    24270756.4164
  22520919.448   -13777853.480 8 -10724090.64246  22520918.862    22520932.0594
  21052027.662    -1003325.343 9   -780508.90747  21052027.844    21052035.8854
 00  2 29 17  5  0.0000000  0 10 26 02 18 27 19 31 08 11 07 13
  23895206.929    -5766079.217 8  -4478420.48445  23895206.992    23895219.8544
  21389009.535    -6644765.013 9  -5122058.08147  21389008.927    21389018.5854
  24189797.217    15556356.625 8  12102656.34245  24189796.921    24189814.0124
  20373606.659    -3825832.248 9  -2980659.20147  20373606.386    20373615.5864
  21415865.871     3627313.578 9   2820500.62947  21415865.694    21415876.5504
  23994156.077    10659443.397 8   8295950.43245  23994155.531    23994170.6234
  20010726.637    -5746376.765 9  -4475673.93047  20010726.083    20010735.0064
  24262219.160    -5696637.470 7  -4432228.32145  24262218.786    24262236.2484
  22503646.705   -13868622.177 8 -10794819.37646  22503646.120    22503659.2964
  21060219.089     -960279.578 9   -746966.84447  21060219.253    21060227.3294
 00  2 29 17  5 30.0000000  0 10 26 02 18 27 19 31 08 11 07 13
  23879685.414    -5847645.126 8  -4541978.29745  23879685.468    23879698.4164
  21385260.235    -6664467.827 9  -5137410.95147  21385259.643    21385269.3094
  24211700.001    15671455.374 8  12192343.33445  24211699.799    24211716.9954
  20374492.975    -3821174.913 9  -2977030.15847  20374492.702    20374501.9194
  21425725.491     3679125.822 9   2860873.70647  21425725.339    21425736.2474
  24013537.881    10761294.583 8   8375314.73045  24013537.324    24013552.5344
  20009033.435    -5755274.714 9  -4482607.42847  20009032.875    20009041.8224
  24253759.820    -5741091.497 7  -4466867.75345  24253759.561    24253776.8414
  22486426.231   -13959116.038 8 -10865333.95946  22486425.672    22486438.8404
  21068514.188     -916688.792 9   -713000.09247  21068514.361    21068522.4694
 00  2 29 17  6  0.0000000  0 10 26 02 18 27 19 31 08 11 07 13
  23864226.541    -5928882.197 8  -4605279.89345  23864226.610    23864239.4114
  21381550.634    -6683962.135 9  -5152601.34347  21381550.031    21381559.7124
  24233608.872    15786586.253 7  12282055.35245  24233608.771    24233625.9984
  20375449.679    -3816147.555 9  -2973112.78247  20375449.410    20375458.6244
  21435643.745     3731246.038 9   2901486.75147  21435643.553    21435654.4764
  24032963.661    10863377.416 7   8454859.53145  24032963.226    24032978.3954
  20007410.433    -5763803.736 9  -4489253.45447  20007409.888    20007418.8254
  24245361.694    -5785224.379 7  -4501256.98745  24245361.395    24245378.4314
  22469256.860   -14049341.418 8 -10935639.33946  22469256.288    22469269.4294
  21076916.699     -872533.576 9   -678593.52347  21076916.874    21076925.0194
 00  2 29 17  6 30.0000000  0 10 26 02 18 27 19 31 08 11 07 13
  23848831.511    -6009783.486 8  -4668319.82745  23848831.488    23848844.3844
  21377880.567    -6703248.599 9  -5167629.78247  21377879.982    21377889.6654
  24255524.546    15901752.577 8  12371794.97445  24255524.339    24255541.8784
  20376477.412    -3810747.098 9  -2968904.68047  20376477.118    20376486.3524
  21445622.588     3783684.822 9   2942348.03347  21445622.394    21445633.3404
  24052431.048    10965678.757 7   8534574.61345  24052430.658    24052445.9374
  20005857.663    -5771963.556 9  -4495611.78948  20005857.123    20005866.0674
  24237021.851    -5829050.018 7  -4535406.79745  24237021.560    24237038.5734
  22452141.418   -14139282.999 8 -11005723.56846  22452140.896    22452154.0154
  21085427.068     -827811.556 9   -643745.28747  21085427.252    21085435.4224
 00  2 29 17  7  0.0000000  0 10 26 02 18 27 19 31 08 11 07 13
  23833502.587    -6090337.663 8  -4731089.30445  23833502.670    23833515.3864
  21374247.679    -6722339.520 9  -5182505.84347  21374247.097    21374256.8064
  24277448.791    16016963.363 8  12461569.26545  24277448.501    24277466.0384
  20377576.123    -3804973.584 9  -2964405.88647  20377575.838    20377585.0654
  21455662.794     3836445.948 9   2983460.50247  21455662.614    21455673.5944
  24071942.169    11068209.206 7   8614468.22145  24071941.772    24071956.9204
  20004376.289    -5779748.457 9  -4501677.98648  20004375.749    20004384.7104
  24228740.977    -5872565.588 7  -4569315.00145  24228740.602    24228757.9394
  22435080.026   -14228940.680 8 -11075586.58046  22435079.508    22435092.5604
  21094043.782     -782530.674 9   -608461.57747  21094043.987    21094052.1794
 00  2 29 17  7 30.0000000  0 10 26 02 18 27 19 31 08 11 07 13
  23818240.455    -6170540.459 8  -4793584.93945  23818240.565    23818253.3194
  21370651.589    -6741237.035 9  -5197231.19747  21370650.986    21370660.7184
  24299382.369    16132224.020 8  12551382.41645  24299382.128    24299399.6784
  20378744.113    -3798836.193 9  -2959623.55047  20378743.789    20378753.0164
  21465765.574     3889535.930 9   3024829.22047  21465765.369    21465776.3974
  24091494.838    11170957.946 7   8694531.93645  24091494.425    24091509.6994
  20002964.155    -5787169.533 9  -4507460.67448  20002963.616    20002972.5784
  24220519.321    -5915770.388 7  -4602981.03845  24220518.974    24220536.3214
  22418072.442   -14318315.864 8 -11145229.46146  22418071.902    22418084.9484
  21102764.431     -736703.681 9   -572752.31847  21102764.630    21102772.8494
 00  2 29 17  8  0.0000000  0 10 26 02 18 27 19 31 08 11 07 13
  23803042.989    -6250403.707 8  -4855816.00345  23803043.136    23803055.8874
  21367089.998    -6759953.538 9  -5211815.50547  21367089.422    21367099.1424
  24321326.013    16247536.707 7  12641236.12545  24321325.736    24321343.2934
  20379980.897    -3792336.982 9  -2954559.28547  20379980.573    20379989.8034
  21475931.811     3942959.470 9   3066457.85747  21475931.612    21475942.6554
  24111089.267    11273926.273 7   8774766.74845  24111088.742    24111104.3164
  20001618.852    -5794239.360 9  -4512969.67048  20001618.298    20001627.2624
  24212357.524    -5958661.594 8  -4636402.74145  24212357.093    24212374.3404
  22401117.660   -14407413.481 8 -11214656.05746  22401117.119    22401130.1454
  21111585.514     -690349.035 9   -536631.91047  21111585.703    21111593.9294
 00  2 29 17  8 30.0000000  0 10 26 02 18 27 19 31 08 11 07 13
  23787908.616    -6329935.204 8  -4917788.56045  23787908.754    23787921.5964
  21363558.840    -6778510.245 9  -5226275.28147  21363558.236    21363567.9644
  24343277.270    16362889.655 7  12731121.19045  24343276.978    24343294.5734
  20381289.540    -3785460.271 9  -2949200.85947  20381289.187    20381298.4364
  21486163.535     3996727.018 8   3108354.54447  21486163.319    21486174.3804
  24130726.318    11377118.649 7   8855176.12345  24130725.856    24130741.5874
  20000339.006    -5800965.209 9  -4518210.62748  20000338.434    20000347.4044
  24204257.334    -6001227.970 7  -4669571.30945  24204257.081    24204274.1504
  22384214.114   -14496242.057 8 -11283873.01646  22384213.541    22384226.5234
  21120505.920     -643472.468 9   -500104.80647  21120506.108    21120514.3434
 00  2 29 17  9  0.0000000  0 10 26 02 18 27 19 31 08 11 07 13
  23772837.827    -6409132.919 8  -4979501.05445  23772837.956    23772850.7874
  21360056.881    -6796913.171 9  -5240615.22847  21360056.271    21360066.0324
  24365233.346    16478268.214 7  12821026.22045  24365232.920    24365250.6944
  20382670.675    -3778202.319 9  -2943545.36547  20382670.351    20382679.6184
  21496459.022     4050829.623 8   3150512.30847  21496458.831    21496469.8624
  24150408.584    11480548.571 8   8935770.61145  24150408.070    24150423.7164
  19999122.654    -5807357.319 9  -4523191.52448  19999122.086    19999131.0534
  24196221.728    -6043455.381 8  -4702475.73245  24196221.335    24196238.5654
  22367361.335   -14584803.520 8 -11352881.84146  22367360.779    22367373.7204
  21129524.991     -596077.249 9   -463173.55847  21129525.164    21129533.4294
 00  2 29 17  9 30.0000000  0 10 26 02 18 27 19 31 08 11 07 13
  23757830.279    -6487998.304 8  -5040954.58045  23757830.376    23757843.1644
  21356585.947    -6815152.884 9  -5254827.99447  21356585.354    21356595.1444
  24387191.063    16593655.353 7  12910937.91745  24387190.700    24387208.6424
  20384123.670    -3770567.228 9  -2937596.00247  20384123.355    20384132.6114
  21506817.227     4105262.170 9   3192927.17147  21506817.050    21506828.1154
  24170135.256    11584211.843 7   9016546.96545  24170134.764    24170150.4184
  19997969.209    -5813418.803 9  -4527914.79148  19997968.644    19997977.6294
  24188248.777    -6085353.720 7  -4735123.72845  24188248.364    24188265.4334
  22350558.402   -14673103.371 8 -11421686.81046  22350557.811    22350570.7434
  21138642.840     -548163.032 9   -425837.89847  21138643.002    21138651.3204
 00  2 29 17 10  0.0000000  0 10 26 02 18 27 19 31 08 11 07 13
  23742886.189    -6566530.075 8  -5102148.15445  23742886.202    23742899.0774
  21353145.363    -6833233.464 9  -5268916.76847  21353144.775    21353154.5514
  24409147.443    16709035.807 7  13000844.42345  24409147.039    24409165.0704
  20385649.561    -3762548.850 9  -2931347.97547  20385649.238    20385658.5174
  21517238.404     4160025.254 9   3235599.59347  21517238.215    21517249.3084
  24189907.581    11688115.094 8   9097510.31645  24189907.165    24189922.8544
  19996881.109    -5819136.980 9  -4532370.54848  19996880.548    19996889.5404
  24180337.577    -6126926.768 8  -4767518.22145  24180337.181    24180354.3764
  22333805.428   -14761140.560 8 -11490287.12146  22333804.809    22333817.7034
  21147859.454     -499729.666 9   -388097.70547  21147859.631    21147867.9744
 00  2 29 17 10 30.0000000  0 10 26 02 18 27 19 31 08 11 07 13
  23728005.765    -6644727.021 8  -5163080.81045  23728005.803    23728018.6574
  21349737.134    -6851143.886 9  -5282872.94247  21349736.535    21349746.3304
  24431101.389    16824403.103 7  13090740.68445  24431101.020    24431119.1444
  20387247.757    -3754150.337 9  -2924803.73447  20387247.452    20387256.7374
  21527722.006     4215117.005 8   3278528.12047  21527721.838    21527732.9884
  24209724.369    11792251.637 8   9178655.45245  24209723.797    24209739.6224
  19995861.748    -5824493.550 9  -4536544.53048  19995861.203    19995870.2034
  24172487.555    -6168179.090 8  -4799662.81945  24172487.185    24172504.4134
  22317106.010   -14848896.090 8 -11558667.96646  22317105.410    22317118.2414
  21157175.914     -450771.769 9   -349948.78847  21157176.092    21157184.4514
 00  2 29 17 11  0.0000000  0 10 26 02 18 27 19 31 08 11 07 13
  23713190.694    -6722580.473 8  -5223745.82645  23713190.779    23713203.6254
  21346364.405    -6868867.459 9  -5296683.52947  21346363.820    21346373.6284
  24453054.953    16939768.222 8  13180635.21945  24453054.572    24453072.6844
  20388915.609    -3745385.958 9  -2917974.40447  20388915.298    20388924.5914
  21538266.926     4270530.343 8   3321707.22947  21538266.758    21538277.9444
  24229585.581    11896621.840 8   9259982.64845  24229584.947    24229600.8594
  19994914.056    -5829473.849 9  -4540425.31648  19994913.479    19994922.5014
  24164696.878    -6209119.609 8  -4831564.41745  24164696.519    24164713.6124
  22300462.623   -14936357.519 8 -11626819.64346  22300461.972    22300474.7974
  21166590.794     -401296.539 9   -311396.75347  21166590.974    21166599.3744
 00  2 29 17 11 30.0000000  0 10 26 02 18 27 19 31 08 11 07 13
  23698441.772    -6800086.181 8  -5284139.87145  23698441.900    23698454.7764
  21343028.210    -6886399.285 9  -5310344.70147  21343027.629    21343037.4494
  24475010.138    17055142.074 8  13270536.56745  24475009.793    24475028.0714
  20390652.631    -3736258.167 9  -2910861.89747  20390652.315    20390661.6164
  21548874.319     4326271.925 8   3365142.11247  21548874.125    21548885.3304
  24249488.471    12001211.002 8   9341480.49745  24249487.819    24249503.6944
  19994039.175    -5834071.360 9  -4544007.83248  19994038.615    19994047.6484
  24156965.745    -6249746.750 8  -4863221.81745  24156965.321    24156982.4214
  22283874.984   -15023525.691 8 -11694742.81846  22283874.345    22283887.1434
  21176103.527     -351307.231 9   -272444.14347  21176103.718    21176112.1284
 00  2 29 17 12  0.0000000  0 10 26 02 18 27 19 31 08 11 07 13
  23683759.015    -6877244.276 8  -5344263.02045  23683759.155    23683772.0094
  21339726.477    -6903750.136 9  -5323864.84947  21339725.875    21339735.7084
  24496967.416    17170526.966 7  13360446.53245  24496967.202    24496985.3674
  20392460.893    -3726756.041 9  -2903457.69747  20392460.573    20392469.8824
  21559545.021     4382346.520 8   3408836.49047  21559544.817    21559556.0594
  24269431.900    12106013.378 8   9423144.46945  24269431.262    24269447.1814
  19993235.388    -5838295.634 9  -4547299.51148  19993234.832    19993243.8624
  24149296.026    -6290051.065 8  -4894627.65645  24149295.591    24149312.6654
  22267346.228   -15110384.281 8 -11762424.74946  22267345.598    22267358.3874
  21185713.029     -300809.263 9   -233095.17647  21185713.216    21185721.6424
 00  2 29 17 12 30.0000000  0 10 26 02 18 27 19 31 08 11 07 13
  23669143.334    -6954050.286 8  -5404111.83245  23669143.463    23669156.2594
  21336459.217    -6920919.598 9  -5337243.66947  21336458.627    21336468.4624
  24518925.800    17285917.500 7  13450360.87945  24518925.451    24518943.8864
  20394342.568    -3716867.743 9  -2895752.58147  20394342.261    20394351.5914
  21570279.437     4438755.765 8   3452791.62447  21570279.246    21570290.5254
  24289414.654    12211022.715 8   9504969.72345  24289414.028    24289430.0194
  19992498.623    -5842167.565 9  -4550316.63448  19992498.071    19992507.1134
  24141689.096    -6330025.491 8  -4925776.42945  24141688.607    24141705.6094
  22250876.897   -15196930.941 8 -11829863.62546  22250876.279    22250889.0574
  21195417.475     -249812.541 9   -193357.56747  21195417.648    21195426.0974
 00  2 29 17 13  0.0000000  0 10 26 02 18 27 19 31 08 11 07 13
  23654596.259    -7030495.158 8  -5463679.24845  23654596.444    23654609.2824
  21333224.219    -6937919.763 9  -5350490.56547  21333223.637    21333233.4564
  24540883.863    17401306.504 7  13540274.05645  24540883.409    24540901.8844
  20396300.781    -3706577.447 9  -2887734.22847  20396300.485    20396309.8284
  21581075.651     4495489.433 8   3496999.55047  21581075.452    21581086.7264
  24309435.846    12316234.039 7   9586952.36345  24309435.228    24309451.2474
  19991827.064    -5845696.814 9  -4553066.72648  19991826.516    19991835.5714
  24134144.987    -6369668.690 8  -4956667.08645  24134144.719    24134161.6804
  22234466.164   -15283169.500 8 -11897062.41246  22234465.560    22234478.3274
  21205215.337     -198324.870 9   -153237.40347  21205215.515    21205223.9634
 00  2 29 17 13 30.0000000  0 10 26 02 18 27 19 31 08 11 07 13
  23640116.090    -7106588.676 8  -5522972.84445  23640116.209    23640129.1144
  21330020.961    -6954753.016 9  -5363607.39947  21330020.364    21330030.1974
  24562838.449    17516677.006 8  13630172.79645  24562837.890    24562856.7104
  20398338.135    -3695871.022 9  -2879391.62147  20398337.874    20398347.2354
  21591935.197     4552556.253 9   3541467.07247  21591934.994    21591946.2964
  24329493.649    12421637.796 7   9669084.92545  24329493.132    24329509.2014
  19991218.522    -5848894.987 9  -4555558.84448  19991217.958    19991227.0104
  24126665.430    -6408973.885 8  -4987294.36245  24126665.018    24126681.9764
  22218114.877   -15369095.883 8 -11964017.96446  22218114.250    22218126.9854
  21215108.460     -146336.605 9   -112727.16847  21215108.646    21215117.1204
 00  2 29 17 14  0.0000000  0 10 26 02 18 27 19 31 08 11 07 13
  23625702.974    -7182329.788 8  -5581991.88145  23625703.116    23625716.0154
  21326849.647    -6971418.202 9  -5376593.27247  21326849.080    21326858.9254
  24584788.137    17632021.791 8  13720051.48845  24584787.595    24584806.4604
  20400455.659    -3684743.594 9  -2870720.96747  20400455.389    20400464.7604
  21602859.531     4609963.872 8   3586200.15147  21602859.351    21602870.7234
  24349588.002    12527233.373 7   9751366.97345  24349587.421    24349603.6524
  19990673.659    -5851758.381 9  -4557790.10348  19990673.115    19990682.1564
  24119250.515    -6447939.088 8  -5017656.70245  24119250.101    24119266.9954
  22201824.109   -15454703.922 8 -12030725.44647  22201823.497    22201836.2524
  21225098.389      -93839.426 9    -71820.38047  21225098.600    21225107.1064
 00  2 29 17 14 30.0000000  0 10 26 02 18 27 19 31 08 11 07 13
  23611358.630    -7257710.161 8  -5640729.81845  23611358.677    23611371.5684
  21323712.110    -6987906.370 9  -5389441.21247  21323711.532    21323721.3844
  24606733.769    17747345.453 7  13809913.71545  24606733.272    24606752.1224
  20402651.763    -3673203.208 9  -2861728.51047  20402651.468    20402660.8794
  21613846.804     4667701.821 8   3631190.62447  21613846.595    21613857.9874
  24369716.870    12633010.126 7   9833790.20345  24369716.356    24369732.5564
  19990196.529    -5854266.055 9  -4559744.16748  19990195.955    19990205.0024
  24111901.333    -6486558.479 8  -5047749.58245  24111901.019    24111917.8554
  22185593.524   -15539995.876 8 -12097186.62947  22185592.914    22185605.6674
  21235186.748      -40825.153 9    -30510.65747  21235186.936    21235195.4714
 00  2 29 17 15  0.0000000  0 10 26 02 18 27 19 31 08 11 07 13
  23597084.081    -7332723.338 8  -5699181.62645  23597084.148    23597097.0584
  21320609.494    -7004210.759 9  -5402145.95747  21320608.940    21320618.7824
  24628677.336    17862659.009 7  13899768.06445  24628677.131    24628695.9414
  20404921.229    -3661277.334 9  -2852435.68047  20404920.947    20404930.3654
  21624897.020     4725770.809 8   3676439.05147  21624896.835    21624908.2684
  24389879.950    12738966.870 7   9916353.65745  24389879.229    24389895.7334
  19989791.556    -5856394.173 9  -4561402.47948  19989791.016    19989800.0594
  24104618.192    -6524830.292 8  -5077571.63945  24104617.920    24104634.7244
  22169424.631   -15624963.497 8 -12163395.10347  22169424.027    22169436.7744
  21245374.411       12711.052 9     11205.76147  21245374.623    21245383.1954
 00  2 29 17 15 30.0000000  0 10 26 02 18 27 19 31 08 11 07 13
  23582879.783    -7407367.392 8  -5757345.78745  23582879.992    23582892.8624
  21317542.703    -7020326.940 9  -5414704.04947  21317542.133    21317552.0174
  24650618.820    17977961.341 7  13989613.68045  24650618.702    24650637.6824
  20407258.503    -3648994.930 9  -2842865.03347  20407258.239    20407267.6694
  21636011.494     4784177.058 8   3721950.27847  21636011.311    21636022.7534
  24410076.588    12845100.194 7   9999054.72045  24410075.927    24410092.4154
  19989459.715    -5858138.156 9  -4562761.47148  19989459.165    19989468.2204
  24097402.497    -6562747.901 8  -5107117.67745  24097402.236    24097419.0144
  22153317.511   -15709606.407 8 -12229350.55447  22153316.948    22153329.6354
  21255659.786       66760.461 9     53322.07547  21255659.973    21255668.5784
 00  2 29 17 16  0.0000000  0 10 26 02 18 27 19 31 08 11 07 13
  23568747.438    -7481633.116 8  -5815215.14345  23568747.616    23568760.4574
  21314509.416    -7036266.821 9  -5427124.76447  21314508.852    21314518.7534
  24672560.794    18093266.124 7  14079461.18845  24672560.729    24672579.6754
  20409660.973    -3636370.138 9  -2833027.59847  20409660.696    20409670.1524
  21647185.996     4842899.049 8   3767707.53647  21647185.825    21647197.3164
  24430306.443    12951408.008 7  10081891.68445  24430305.851    24430322.2354
  19989202.433    -5859490.295 9  -4563815.12648  19989201.884    19989210.9574
  24090253.309    -6600316.342 8  -5136391.62845  24090253.166    24090269.8424
  22137271.073   -15793930.743 8 -12295057.76147  22137270.507    22137283.1674
  21266039.118      121303.751 9     95823.22847  21266039.317    21266047.9144
 00  2 29 17 16 30.0000000  0 10 26 02 18 27 19 31 08 11 07 13
  23554686.984    -7555521.132 8  -5872790.16945  23554687.179    23554700.0634
  21311508.629    -7052036.078 9  -5439412.51847  21311508.070    21311517.9894
  24694502.952    18208571.703 7  14169309.32945  24694503.060    24694521.9904
  20412128.573    -3623403.203 9  -2822923.54647  20412128.278    20412137.7644
  21658418.086     4901923.814 8   3813700.71247  21658417.949    21658429.4884
  24450568.030    13057882.731 7  10164858.74945  24450567.354    24450583.9094
  19989018.794    -5860455.433 9  -4564567.22548  19989018.261    19989027.3494
  24083170.450    -6637535.743 8  -5165393.61645  24083170.299    24083187.2534
  22121283.975   -15877943.484 8 -12360522.16447  22121283.384    22121296.0254
  21276508.523      176320.326 9    138693.18047  21276508.699    21276517.3134
 00  2 29 17 17  0.0000000  0 10 26 02 18 27 19 31 08 11 07 13
  23540697.107    -7629038.307 8  -5930076.25245  23540697.245    23540710.1284
  21308539.697    -7067637.995 9  -5451569.88247  21308539.145    21308549.0494
  24716442.505    18323863.630 7  14259146.80645  24716442.722    24716461.6714
  20414664.115    -3610078.982 9  -2812541.09147  20414663.842    20414673.3194
  21669708.719     4961255.911 8   3859933.37547  21669708.543    21669720.1434
  24470862.053    13164527.948 7  10247958.65545  24470861.614    24470877.9644
  19988904.914    -5861054.162 9  -4565033.81148  19988904.359    19988913.4444
  24076153.919    -6674408.614 8  -5194125.59145  24076153.646    24076170.5604
  22105355.519   -15961647.457 8 -12425745.96147  22105354.951    22105367.5804
  21287064.933      231794.332 9    181919.57147  21287065.121    21287073.7634
 00  2 29 17 17 30.0000000  0 10 26 02 18 27 19 31 08 11 07 13
  23526776.721    -7702190.280 8  -5987077.74745  23526776.772    23526789.6914
  21305600.163    -7083085.564 9  -5463606.97647  21305599.590    21305609.5074
  24738377.956    18439134.266 7  14348967.69045  24738378.227    24738397.2934
  20417275.995    -3596353.952 9  -2801846.32047  20417275.694    20417285.1794
  21681057.198     5020891.895 8   3906402.82347  21681056.996    21681068.6544
  24491188.774    13271344.351 7  10331191.93945  24491188.232    24491204.8004
  19988859.721    -5861291.985 9  -4565219.17148  19988859.151    19988868.2464
  24069202.577    -6710938.126 8  -5222590.04145  24069202.248    24069219.2354
  22089485.295   -16045045.818 8 -12490731.62247  22089484.698    22089497.2994
  21297709.678      287732.379 9    225507.54447  21297709.872    21297718.5544
 00  2 29 17 18  0.0000000  0 10 26 02 18 27 19 31 08 11 07 13
  23512927.413    -7774968.993 8  -6043788.41745  23512927.409    23512940.3054
  21302689.255    -7098382.440 9  -5475526.64947  21302688.676    21302698.5984
  24760310.512    18554389.271 7  14438776.40545  24760310.854    24760330.1904
  20419971.091    -3582191.453 9  -2790810.65947  20419970.768    20419980.2824
  21692464.297     5080836.073 8   3953112.42247  21692464.089    21692475.7694
  24511550.403    13378344.128 7  10414568.11845  24511549.817    24511566.4994
  19988884.118    -5861163.945 9  -4565119.44048  19988883.554    19988892.6564
  24062318.728    -6747112.578 8  -5250777.81845  24062318.393    24062335.3454
  22073674.021   -16128134.477 8 -12555475.95847  22073673.424    22073686.0274
  21308445.775      344150.388 9    269469.51747  21308445.950    21308454.6514
 00  2 29 17 18 30.0000000  0  8 26 02 27 19 08 11 07 13
  23499153.270    -7847352.701 8  -6100191.28745  23499153.364    23499166.1014
  21299807.611    -7113525.613 9  -5487326.55347  21299807.040    21299816.9474
  20422752.592    -3567574.723 9  -2779421.05947  20422752.273    20422761.7974
  21703934.361     5141111.229 8   4000079.92147  21703934.159    21703945.8644
  19988978.723    -5860666.974 9  -4564732.23048  19988978.178    19988987.2774
  24055504.329    -6782921.746 8  -5278680.98545  24055503.962    24055520.9074
  22057924.226   -16210900.125 8 -12619968.59847  22057923.588    22057936.1864
  21319276.417      401065.523 9    313818.86147  21319276.612    21319285.3424
 00  2 29 17 19  0.0000000  0  8 26 02 27 19 08 11 07 13
  23485457.563    -7919324.592 8  -6156273.24145  23485457.566    23485470.2424
  21296955.947    -7128511.255 9  -5499003.70647  21296955.374    21296965.2464
  20425622.858    -3552491.622 9  -2767668.05247  20425622.566    20425632.1084
  21715470.933     5201735.632 8   4047319.57147  21715470.742    21715482.4904
  19989148.060    -5859777.156 9  -4564038.90048  19989147.521    19989156.6344
  24048762.654    -6818348.997 8  -5306286.54745  24048762.278    24048779.1874
  22042239.047   -16293326.287 8 -12684196.70147  22042238.406    22042250.9784
  21330206.397      458502.611 9    358574.92547  21330206.595    21330215.3794
 00  2 29 17 19 30.0000000  0  8 26 02 27 19 08 11 07 13
  23471840.144    -7990884.489 8  -6212034.16245  23471840.114    23471852.8124
  21294130.540    -7143359.140 9  -5510573.51047  21294129.970    21294139.8464
  20428575.754    -3536974.291 9  -2755576.69647  20428575.451    20428585.0094
  21727070.800     5262692.676 8   4094818.41147  21727070.582    21727082.3484
  19989391.217    -5858499.617 9  -4563043.45248  19989390.663    19989399.7964
  24042091.351    -6853406.918 8  -5333604.32745  24042090.907    24042107.7354
  22026614.891   -16375431.579 8 -12748174.77647  22026614.233    22026626.7844
  21341233.182      516448.420 9    403727.39247  21341233.371    21341242.2134
 00  2 29 17 20  0.0000000  0  8 26 02 27 19 08 11 07 13
  23458303.073    -8062021.889 8  -6267465.89445  23458303.174    23458315.8144
  21291333.688    -7158057.115 9  -5522026.49747  21291333.097    21291342.9694
  20431603.966    -3521061.117 9  -2743176.89047  20431603.665    20431613.2334
  21738733.056     5323977.427 8   4142572.59547  21738732.838    21738744.6544
  19989705.244    -5856849.533 9  -4561757.70748  19989704.685    19989713.8114
  24035491.368    -6888090.226 8  -5360630.20945  24035490.976    24035507.5854
  22011050.760   -16457221.316 8 -12811906.96747  22011050.117    22011062.6224
  21352353.302      574884.623 9    449261.99347  21352353.503    21352362.3774
 00  2 29 17 20 30.0000000  0  8 26 02 27 19 08 11 07 13
  23444841.940    -8132760.980 8  -6322587.29645  23444841.993    23444854.4544
  21288565.422    -7172604.622 9  -5533362.24047  21288564.823    21288574.6864
  20434702.685    -3504777.504 9  -2730488.43047  20434702.380    20434711.9724
  21750455.504     5385578.779 8   4190573.48847  21750455.303    21750467.1284
  19990087.726    -5854839.698 9  -4560191.64048  19990087.131    19990096.2844
  24028959.228    -6922416.386 8  -5387377.81145  24028958.898    24028975.4984
  21995545.230   -16538703.304 8 -12875399.35247  21995544.591    21995557.0424
  21363561.482      633783.495 9    495157.10747  21363561.664    21363570.5644
 00  2 29 17 21  0.0000000  0  8 26 02 27 19 08 11 07 13
  23431451.974    -8203125.889 8  -6377417.10345  23431452.033    23431464.5974
  21285829.367    -7186982.762 9  -5544566.01147  21285828.787    21285838.6434
  20437871.163    -3488127.373 9  -2717514.37147  20437870.856    20437880.4644
  21762237.184     5447491.399 8   4238816.92147  21762237.016    21762248.8564
  19990538.102    -5852472.903 9  -4558347.42048  19990537.509    19990546.6814
  24022497.287    -6956373.650 8  -5413837.94145  24022496.982    24022513.5814
  21980100.218   -16619866.750 8 -12938643.50847  21980099.614    21980112.0554
  21374856.093      693136.581 9    541406.15547  21374856.275    21374865.2064
 00  2 29 17 21 30.0000000  0  8 26 02 27 19 08 11 07 13
  23418132.574    -8273120.247 8  -6431958.17745  23418132.555    23418145.1004
  21283128.310    -7201177.097 9  -5555626.54747  21283127.707    21283137.5494
  20441108.214    -3471116.875 9  -2704259.50947  20441107.895    20441117.4994
  21774077.904     5509713.918 8   4287301.83947  21774077.719    21774089.5924
  19991054.213    -5849760.604 9  -4556233.97348  19991053.641    19991062.7994
  24016105.727    -6989960.535 8  -5440009.48545  24016105.496    24016122.0874
  21964717.075   -16700705.452 9 -13001634.61947  21964716.463    21964728.8854
  21386235.390      752934.746 9    588002.02647  21386235.567    21386244.5084
 00  2 29 17 22  0.0000000  0  8 26 02 27 19 08 11 07 13
  23404879.969    -8342762.918 8  -6486225.22645  23404879.969    23404892.5794
  21280462.966    -7215183.531 9  -5566540.66647  21280462.372    21280472.2514
  20444415.221    -3453738.819 9  -2690718.24247  20444414.896    20444424.5234
  21785979.554     5572256.768 8   4336036.35947  21785979.350    21785991.2554
  19991637.133    -5846697.599 9  -4553847.25548  19991636.548    19991645.7574
  24009784.246    -7023180.636 8  -5465895.21945  24009783.962    24009800.4244
  21949396.840   -16781213.730 8 -13064368.25947  21949396.209    21949408.6054
  21397700.054      813181.610 9    634947.52547  21397700.230    21397709.1844
 00  2 29 17 22 30.0000000  0  8 26 02 27 19 08 11 07 13
  23391694.893    -8412050.365 8  -6540215.48445  23391694.936    23391707.5614
  21277832.219    -7229008.389 9  -5577313.30148  21277831.624    21277841.5074
  20447796.246    -3435971.901 9  -2676873.96747  20447795.895    20447805.5294
  21797945.062     5635135.125 8   4385032.31047  21797944.837    21797956.7574
  19992290.800    -5843262.821 9  -4551170.84448  19992290.225    19992299.4454
  24003534.358    -7056023.984 8  -5491487.38345  24003534.039    24003550.4374
  21934141.460   -16861380.810 8 -13126836.02247  21934140.831    21934153.2064
  21409253.951      873897.182 9    682258.25347  21409254.122    21409263.0814
 00  2 29 17 23  0.0000000  0  8 26 02 27 19 08 11 07 13
  23378583.410    -8480951.952 8  -6593905.05345  23378583.443    23378595.9934
  21275232.669    -7242669.297 9  -5587958.18548  21275232.073    21275241.9594
  20451251.955    -3417812.271 9  -2662723.67547  20451251.613    20451261.2914
  21809975.048     5698352.555 8   4434292.48746  21809974.838    21809986.7724
  19993016.181    -5839451.172 9  -4548200.76948  19993015.603    19993024.8134
  23997357.587    -7088483.410 8  -5516780.35145  23997357.196    23997373.6774
  21918951.821   -16941202.633 8 -13189034.75247  21918951.176    21918963.5294
  21420900.429      935099.363 9    729948.15947  21420900.589    21420909.5994
 00  2 29 17 23 30.0000000  0  8 26 02 27 19 08 11 07 13
  23365548.927    -8549448.871 8  -6647279.31145  23365548.977    23365561.5614
  21272659.816    -7256189.820 9  -5598493.67448  21272659.224    21272669.1134
  20454784.678    -3399247.823 9  -2648257.92847  20454784.347    20454794.0324
  21822067.974     5761900.605 8   4483810.28746  21822067.736    21822079.6964
  19993815.303    -5835251.843 9  -4544928.60448  19993814.730    19993823.9574
  23991249.692    -7120579.911 8  -5541790.55945  23991249.324    23991265.7944
  21903825.648   -17020690.782 9 -13250973.47947  21903825.028    21903837.3454
  21432639.736      996789.333 9    778018.15847  21432639.892    21432648.9004
 00  2 29 17 24  0.0000000  0  8 26 02 27 19 08 11 07 13
  23352594.137    -8617526.732 8  -6700327.01545  23352594.245    23352606.7784
  21270111.876    -7269579.537 9  -5608927.24348  21270111.249    21270121.1554
  20458398.114    -3380259.403 9  -2633461.82947  20458397.786    20458407.4704
  21834223.197     5825776.126 8   4533583.26146  21834222.952    21834234.9534
  19994690.634    -5830652.216 9  -4541344.52148  19994690.054    19994699.2824
  23985211.925    -7152309.039 8  -5566514.49845  23985211.363    23985227.8514
  21888764.432   -17099837.791 9 -13312646.37847  21888763.824    21888776.1194
  21444472.406     1058970.000 9    826470.51047  21444472.560    21444481.5794
 00  2 29 17 24 30.0000000  0  8 26 02 27 19 08 11 07 13
  23339720.640    -8685178.126 8  -6753042.38645  23339720.638    23339733.2364
  21267588.068    -7282841.897 9  -5619261.56448  21267587.486    21267597.3944
  20462094.342    -3360836.042 9  -2618326.81447  20462094.017    20462103.7004
  21846438.198     5889965.821 8   4583601.05646  21846437.966    21846450.0254
  19995641.853    -5825653.838 9  -4537449.72148  19995641.266    19995650.4864
  23979247.948    -7183648.190 8  -5590934.51645  23979247.722    23979264.0264
  21873769.072   -17178638.536 8 -13374049.46147  21873768.455    21873780.7224
  21456396.692     1121632.094 9    875298.00647  21456396.865    21456405.8884
 00  2 29 17 25  0.0000000  0  8 26 02 27 19 08 11 07 13
  23326926.754    -8752410.602 8  -6805431.30545  23326926.675    23326939.3234
  21265090.570    -7295966.461 9  -5629488.52148  21265089.994    21265099.8904
  20465873.807    -3340975.119 9  -2602850.84147  20465873.471    20465883.1764
  21858711.794     5954463.460 8   4633858.79246  21858711.539    21858723.6384
  19996668.724    -5820257.612 9  -4533244.90448  19996668.155    19996677.3794
  23973358.653    -7214595.894 8  -5615049.55545  23973358.469    23973374.6714
  21858841.329   -17257083.908 9 -13435175.63047  21858840.720    21858852.9464
  21468409.534     1184759.562 9    924488.12347  21468409.689    21468418.7664
 00  2 29 17 25 30.0000000  0  8 26 02 27 19 08 11 07 13
  23314210.374    -8819235.193 8  -6857502.36846  23314210.318    23314223.0474
  21262624.900    -7308923.923 9  -5639585.27548  21262624.301    21262634.2094
  20469738.590    -3320665.839 9  -2587025.49047  20469738.255    20469747.9794
  21871045.257     6019275.892 8   4684361.82246  21871045.050    21871057.1654
  19997774.182    -5814448.587 9  -4528718.42848  19997773.599    19997782.8424
  23967546.771    -7245136.707 8  -5638847.48845  23967546.713    23967562.8404
  21843981.866   -17335170.744 9 -13496022.41847  21843981.217    21843993.4084
  21480509.041     1248342.459 9    974033.12047  21480509.193    21480518.3144
 00  2 29 17 26  0.0000000  0  8 26 02 27 19 08 11 07 13
  23301573.620    -8885642.046 8  -6909247.92246  23301573.527    23301586.2094
  21260195.223    -7321691.997 9  -5649534.44948  21260194.633    21260204.5624
  20473685.809    -3299923.422 9  -2570862.62447  20473685.472    20473695.1954
  21883440.746     6084413.519 8   4735118.26046  21883440.509    21883452.6524
  19998959.522    -5808219.904 9  -4523864.94348  19998958.939    19998968.1984
  23961818.181    -7275240.160 8  -5662304.63845  23961818.138    23961834.3834
  21829190.432   -17412899.498 9 -13556590.17447  21829189.816    21829201.9634
  21492696.409     1312387.083 9   1023937.91347  21492696.556    21492705.7234
 00  2 29 17 26 30.0000000  0  8 26 02 27 19 08 11 07 13
  23289017.210    -8951626.125 8  -6960664.05046  23289017.150    23289029.8694
  21257800.923    -7334274.478 9  -5659339.01348  21257800.311    21257810.2344
  20477710.702    -3278772.616 9  -2554381.53847  20477710.376    20477720.1104
  21895899.315     6149883.293 8   4786133.50746  21895899.104    21895911.2944
  20000223.955    -5801575.414 9  -4518687.46148  20000223.373    20000232.6254
  23956170.655    -7304920.086 8  -5685431.77045  23956170.119    23956186.5014
  21814466.221   -17490275.290 9 -13616882.90147  21814465.620    21814477.7414
  21504972.346     1376897.167 9   1074205.39247  21504972.477    21504981.6744
 00  2 29 17 27  0.0000000  0  8 26 02 27 19 08 11 07 13
  23276544.336    -9017171.170 8  -7011738.07046  23276544.334    23276557.0074
  21255440.109    -7346680.931 9  -5669006.40948  21255439.485    21255449.3924
  20481809.503    -3257233.657 9  -2537597.99747  20481809.178    20481818.9134
  21908420.555     6215682.091 8   4837405.14146  21908420.356    21908432.5574
  20001566.097    -5794522.433 9  -4513191.66848  20001565.514    20001574.8004
  23950597.367    -7334207.191 8  -5708252.80045  23950596.877    23950613.1524
  21799810.028   -17567294.054 9 -13676897.42347  21799809.406    21799821.5104
  21517336.700     1441871.852 9   1124834.90747  21517336.847    21517346.0584
 00  2 29 17 27 30.0000000  0  8 26 02 27 19 08 11 07 13
  23264156.869    -9082267.386 8  -7062462.35546  23264156.990    23264169.5814
  21253109.629    -7358927.996 9  -5678549.61148  21253108.989    21253118.9004
  20485979.722    -3235319.153 9  -2520521.83647  20485979.391    20485989.1364
  21921001.307     6281793.583 8   4888920.43946  21921001.047    21921013.2984
  20002985.010    -5787066.163 9  -4507381.63448  20002984.432    20002993.7234
  23945095.938    -7363116.608 8  -5730779.54145  23945095.466    23945111.8384
  21785219.973   -17643965.045 9 -13736640.95947  21785219.327    21785231.4154
  21529789.697     1507312.299 9   1175827.34947  21529789.837    21529799.0604
 00  2 29 17 28  0.0000000  0  8 26 02 27 19 08 11 07 13
  23251854.207    -9146918.072 8  -7112839.47546  23251854.306    23251866.8824
  21250805.638    -7371035.804 9  -5687984.29748  21250805.004    21250814.9134
  20490218.222    -3213045.950 9  -2503166.16447  20490217.887    20490227.6364
  21933641.296     6348216.368 8   4940678.30546  21933641.016    21933653.3114
  20004476.349    -5779229.393 9  -4501275.09648  20004475.759    20004485.0474
  23939664.895    -7391656.600 8  -5753018.40045  23939664.416    23939680.7674
  21770698.210   -17720277.060 9 -13796104.77547  21770697.580    21770709.6244
  21542330.230     1573213.039 9   1227178.46647  21542330.395    21542339.6614
 00  2 29 17 28 30.0000000  0  8 26 02 27 19 08 11 07 13
  23239630.320    -9211154.939 8  -7162894.11246  23239630.379    23239643.0394
  21248523.796    -7383027.116 9  -5697328.21048  21248523.144    21248533.0704
  20494526.469    -3190406.425 9  -2485525.05047  20494526.134    20494535.8994
  21946340.013     6414948.031 8   4992676.85046  21946339.785    21946352.0694
  20006035.077    -5771038.228 9  -4494892.41648  20006034.481    20006043.7904
  23934301.015    -7419843.650 8  -5774982.25545  23934300.588    23934317.0054
  21756246.864   -17796219.045 9 -13855280.26347  21756246.214    21756258.2484
  21554953.000     1639545.748 9   1278866.17147  21554953.186    21554962.4924
 00  2 29 17 29  0.0000000  0  8 26 02 27 19 08 11 07 13
  23227482.186    -9274993.670 8  -7212638.52746  23227482.248    23227494.8864
  21246265.740    -7394893.399 9  -5706574.70848  21246265.107    21246275.0294
  20498909.135    -3167375.685 9  -2467579.09347  20498908.771    20498918.5484
  21959095.564     6481978.171 8   5044907.97846  21959095.315    21959107.6664
  20007660.906    -5762494.780 9  -4488235.22648  20007660.295    20007669.6114
  23929009.126    -7447652.161 8  -5796651.13745  23929008.762    23929025.0794
  21741866.481   -17871788.431 9 -13914165.42247  21741865.800    21741877.8154
  21567653.137     1706284.712 9   1330870.44447  21567653.284    21567662.5824
 00  2 29 17 29 30.0000000  0  8 26 02 27 19 08 11 07 13
  23215408.335    -9338441.886 8  -7262078.65546  23215408.407    23215421.0224
  21244033.063    -7406626.389 9  -5715717.33848  21244032.382    21244042.3154
  20503369.740    -3143935.419 9  -2449314.01547  20503369.383    20503379.1674
  21971909.794     6549316.783 8   5097379.48146  21971909.523    21971921.9084
  20009355.273    -5753591.098 9  -4481297.33748  20009354.672    20009363.9844
  23923795.298    -7475050.773 8  -5818000.61545  23923794.932    23923811.3434
  21727553.368   -17947003.720 9 -13972774.65447  21727552.698    21727564.6814
  21580429.669     1773425.284 9   1383187.65447  21580429.789    21580439.1064
 00  2 29 17 30  0.0000000  0  8 26 02 27 19 08 11 07 13
  23203408.969    -9401499.117 8  -7311214.12846  23203409.014    23203421.6254
  21241828.153    -7418213.240 9  -5724746.09448  21241827.509    21241837.4554
  20507912.778    -3120061.817 9  -2430711.27547  20507912.418    20507922.2084
  21984785.061     6616976.126 8   5150100.91246  21984784.800    21984797.2044
  20011118.756    -5744324.113 9  -4474076.35748  20011118.151    20011127.4724
  23918660.693    -7502033.072 8  -5839025.67945  23918660.326    23918676.6914
  21713306.762   -18021869.784 9 -14031111.75947  21713306.101    21713318.0414
  21593282.732     1840968.005 9   1435818.23847  21593282.841    21593292.1974
 00  2 29 17 30 30.0000000  0  8 26 02 27 19 08 11 07 13
  23191487.878    -9464144.965 8  -7360029.08446  23191487.877    23191500.4844
  21239654.069    -7429638.175 9  -5733648.68848  21239653.424    21239663.3514
  20512545.653    -3095716.217 9  -2411740.75447  20512545.280    20512555.0884
  21997720.099     6684949.476 8   5203067.00946  21997719.845    21997732.2734
  20012956.251    -5734668.120 9  -4466552.25748  20012955.659    20012964.9784
  23913605.855    -7528595.787 8  -5859723.81145  23913605.515    23913621.9574
  21699125.619   -18096391.918 9 -14089180.86947  21699124.948    21699136.8884
  21606215.086     1908927.462 9   1488773.54247  21606215.188    21606224.5604
 00  2 29 17 31  0.0000000  0  8 26 02 27 19 08 11 07 13
  23179652.858    -9526338.515 8  -7408491.62646  23179652.830    23179665.4754
  21237514.720    -7440880.728 9  -5742409.16148  21237514.065    21237524.0374
  20517268.683    -3070896.839 9  -2392401.06247  20517268.321    20517278.1434
  22010715.525     6753240.249 8   5256280.45046  22010715.279    22010727.6984
  20014873.817    -5724591.620 9  -4458700.49548  20014873.192    20014882.5044
  23908634.179    -7554721.715 8  -5880081.58345  23908633.848    23908650.1874
  21685010.867   -18170565.002 9 -14146977.99947  21685010.220    21685022.1584
  21619230.810     1977325.096 9   1542070.27647  21619230.918    21619240.2894
 00  2 29 17 31 30.0000000  0  8 26 02 27 19 08 11 07 13
  23167905.623    -9588070.424 8  -7456594.41346  23167905.663    23167918.3024
  21235410.281    -7451939.896 9  -5751026.73648  21235409.632    21235419.5974
  20522079.074    -3045618.265 9  -2372703.55247  20522078.710    20522088.5534
  22023773.617     6821860.349 8   5309750.51246  22023773.349    22023785.8354
  20016873.018    -5714085.808 9  -4450514.19248  20016872.417    20016881.7624
  23903742.630    -7580426.209 8  -5900110.95645  23903742.313    23903758.7914
  21670963.246   -18244385.266 9 -14204500.20047  21670962.605    21670974.5144
  21632334.132     2046183.139 9   1595725.77647  21632334.236    21632343.6464
 00  2 29 17 32  0.0000000  0  8 26 02 27 19 08 11 07 13
  23156245.658    -9649343.773 8  -7504339.87346  23156245.715    23156258.3614
  21233341.338    -7462812.429 9  -5759498.88248  21233340.704    21233350.6594
  20526975.440    -3019888.035 9  -2352654.10647  20526975.071    20526984.9384
  22036894.457     6890810.181 8   5363477.49746  22036894.175    22036906.7004
  20018955.564    -5703142.016 9  -4441986.60148  20018954.976    20018964.3394
  23898931.388    -7605710.268 8  -5919812.73145  23898931.054    23898947.3114
  21656989.503   -18317817.661 9 -14261720.16747  21656988.839    21657000.7324
  21645526.171     2115507.297 9   1649744.48047  21645526.284    21645535.7084
 00  2 29 17 32 30.0000000  0  8 26 02 27 19 08 11 07 13
  23144672.114    -9710163.103 8  -7551731.55846  23144672.117    23144684.7714
  21231306.648    -7473505.034 9  -5767830.82748  21231306.003    21231315.9714
  20531952.280    -2993734.743 9  -2332274.99247  20531951.935    20531961.8174
  22050077.735     6960088.666 8   5417460.58246  22050077.519    22050090.0954
  20021122.987    -5691752.190 9  -4433111.45848  20021122.395    20021131.7714
  23894205.189    -7630546.705 8  -5939165.69745  23894204.756    23894221.0014
  21643093.717   -18390840.102 9 -14318620.69347  21643093.079    21643104.9204
  21658804.159     2185283.186 9   1704115.18447  21658804.302    21658813.7514
 00  2 29 17 33  0.0000000  0  8 26 02 27 19 08 11 07 13
  23133182.411    -9770541.875 8  -7598779.96946  23133182.431    23133195.0444
  21229303.131    -7484033.668 9  -5776035.00048  21229302.500    21229312.4604
  20537002.805    -2967194.527 9  -2311594.38347  20537002.429    20537012.3344
  22063324.248     7029699.181 8   5471702.39046  22063324.048    22063336.6544
  20023373.880    -5679924.004 9  -4423894.74248  20023373.277    20023382.6424
  23889565.174    -7654928.396 8  -5958164.35745  23889564.869    23889581.0754
  21629276.421   -18463450.199 9 -14375199.91147  21629275.804    21629287.6184
  21672166.086     2255500.155 9   1758829.58647  21672166.231    21672175.7014
 00  2 29 17 33 30.0000000  0  8 26 02 27 19 08 11 07 13
  23121772.159    -9830503.517 8  -7645503.31746  23121772.190    23121784.7654
  21227329.333    -7494406.343 9  -5784117.64248  21227328.686    21227338.6614
  20542128.499    -2940259.115 9  -2290605.82147  20542128.141    20542138.0634
  22076631.043     7099626.231 8   5526190.84246  22076630.826    22076643.4904
  20025705.296    -5667672.796 9  -4414348.39048  20025704.663    20025714.0294
  23885008.783    -7678872.450 8  -5976821.97845  23885008.553    23885024.5944
  21615537.353   -18535649.124 9 -14431458.73647  21615536.716    21615548.5304
  21685611.569     2326155.986 9   1813885.96047  21685611.703    21685621.2044
 00  2 29 17 34  0.0000000  0  8 26 02 27 19 08 11 07 13
  23110442.742    -9890039.953 8  -7691895.34746  23110442.804    23110455.3574
  21225384.550    -7504626.218 9  -5792081.22048  21225383.912    21225393.9004
  20547332.665    -2912911.189 9  -2269295.80847  20547332.298    20547342.2674
  22089997.358     7169866.028 8   5580922.98646  22089997.113    22090009.8044
  20028116.879    -5655000.122 9  -4404473.62248  20028116.244    20028125.6114
  23880538.683    -7702363.440 8  -5995126.56945  23880538.377    23880554.3774
  21601880.143   -18607418.113 9 -14487382.54847  21601879.500    21601891.2794
  21699140.147     2397248.710 9   1869282.76347  21699140.288    21699149.8334
 00  2 29 17 34 30.0000000  0  8 26 02 27 19 08 11 07 13
  23099201.247    -9949114.369 8  -7737927.34246  23099201.316    23099213.8364
  21223472.324    -7514675.003 9  -5799911.47348  21223471.706    21223481.7084
  20552620.469    -2885124.024 9  -2247643.52647  20552620.107    20552630.0744
  22103428.287     7240445.235 8   5635919.60246  22103428.025    22103440.7204
  20030611.077    -5641893.133 9  -4394260.41848  20030610.447    20030619.8294
  23876157.105    -7725388.566 8  -6013068.15145  23876156.820    23876172.8454
  21588304.761   -18678756.723 9 -14542971.00047  21588304.118    21588315.9014
  21712754.725     2468793.406 9   1925031.76247  21712754.892    21712764.4304
 00  2 29 17 35  0.0000000  0  8 26 02 27 19 08 11 07 13
  23088040.084   -10007766.423 8  -7783630.21946  23088040.162    23088052.6564
  21221583.699    -7524599.887 9  -5807645.17848  21221583.094    21221593.1104
  20557986.853    -2856923.764 9  -2225669.36547  20557986.482    20557996.4494
  22116915.499     7311320.298 8   5691146.75946  22116915.208    22116927.9774
  20033174.932    -5628420.294 9  -4383762.14748  20033174.302    20033183.6704
  23871849.580    -7748024.906 8  -6030706.80545  23871849.232    23871865.1904
  21574799.566   -18749726.791 9 -14598272.28347  21574798.928    21574810.7154
  21726447.813     2540750.623 9   1981102.19847  21726447.983    21726457.5174
 00  2 29 17 35 30.0000000  0  8 26 02 27 19 08 11 07 13
  23076964.561   -10065968.308 8  -7828982.30346  23076964.669    23076977.1074
  21219722.295    -7534381.844 9  -5815267.49648  21219721.682    21219731.7044
  20563436.693    -2828284.944 9  -2203353.46247  20563436.329    20563446.2964
  22130463.150     7382512.907 8   5746621.35146  22130462.839    22130475.6494
  20035809.441    -5614576.037 9  -4372974.45648  20035808.798    20035818.1744
  23867616.445    -7770269.093 8  -6048039.90045  23867616.173    23867632.1374
  21561365.480   -18820323.008 9 -14653282.25447  21561364.838    21561376.5804
  21740219.804     2613122.284 9   2037495.57447  21740219.959    21740229.4994
 00  2 29 17 36  0.0000000  0  8 26 02 27 19 08 11 07 13
  23065976.270   -10123712.443 8  -7873977.69746  23065976.337    23065988.7944
  21217885.110    -7544036.499 9  -5822790.61448  21217884.494    21217894.5264
  20568963.555    -2799241.499 9  -2180722.27747  20568963.173    20568973.1624
  22144070.736     7454020.838 8   5802341.64546  22144070.489    22144083.3534
  20038512.088    -5600373.571 9  -4361907.64348  20038511.437    20038520.8264
  23863458.461    -7792118.946 8  -6065065.74445  23863458.221    23863474.2014
  21547997.015   -18890574.562 9 -14708023.65647  21547996.373    21548008.1024
  21754065.328     2685880.436 9   2094190.11347  21754065.474    21754075.0434
 00  2 29 17 36 30.0000000  0  8 26 02 27 19 08 11 07 13
  23055078.121   -10180982.719 8  -7918603.85546  23055078.202    23055090.6464
  21216075.573    -7553545.745 9  -5830200.42548  21216074.947    21216084.9974
  20574566.853    -2769796.152 9  -2157777.91147  20574566.494    20574576.5054
  22157739.772     7525851.441 8   5858313.36446  22157739.526    22157752.4184
  20041286.511    -5585793.973 9  -4350546.95048  20041285.866    20041295.2734
  23859376.594    -7813569.971 8  -6081780.79445  23859376.198    23859392.1844
  21534692.685   -18960488.850 9 -14762502.24947  21534692.033    21534703.7534
  21767985.380     2759030.155 9   2151189.77147  21767985.517    21767995.0894
 00  2 29 17 37  0.0000000  0  8 26 02 27 19 08 11 07 13
  23044268.922   -10237785.473 8  -7962865.70846  23044269.005    23044281.4134
  21214292.747    -7562914.910 9  -5837501.08548  21214292.091    21214302.1294
  20580245.850    -2739952.950 9  -2134523.53247  20580245.482    20580255.5314
  22171466.895     7597987.562 8   5914523.15146  22171466.653    22171479.6054
  20044134.091    -5570830.065 9  -4338886.79848  20044133.435    20044142.8614
  23855370.063    -7834624.452 8  -6098186.85145  23855369.711    23855385.6034
  21521453.285   -19030061.913 9 -14816714.96147  21521452.629    21521464.3244
  21781978.189     2832562.366 9   2208487.47647  21781978.330    21781987.9264
 00  2 29 17 37 30.0000000  0  8 26 02 27 19 08 11 07 13
  23033549.432   -10294116.861 8  -8006760.26446  23033549.456    23033561.8784
  21212535.777    -7572148.062 9  -5844695.75748  21212535.117    21212545.1634
  20585999.148    -2709719.384 9  -2110964.97547  20585998.790    20586008.8414
  22185249.296     7670413.781 8   5970958.98646  22185249.041    22185262.0124
  20047059.754    -5555455.810 9  -4326906.89948  20047059.120    20047068.5244
  23851443.269    -7855259.768 8  -6114266.29345  23851442.820    23851458.7234
  21508280.349   -19099285.877 9 -14870655.64747  21508279.708    21508291.3774
  21796043.140     2906473.633 9   2266080.54147  21796043.263    21796052.9194
 00  2 29 17 38  0.0000000  0  8 26 02 27 19 08 11 07 13
  23022918.016   -10349985.499 8  -8050294.23846  23022918.016    23022930.4174
  21210803.600    -7581250.883 9  -5851788.86548  21210802.927    21210812.9644
  20591827.501    -2679091.398 9  -2087099.08047  20591827.145    20591837.2384
  22199083.707     7743113.275 8   6027607.76446  22199083.444    22199096.4514
  20050065.763    -5539659.453 9  -4314598.08648  20050065.129    20050074.5374
  23847600.027    -7875456.081 8  -6130003.66145  23847599.491    23847615.4984
  21495177.374   -19168142.486 9 -14924310.08047  21495176.709    21495188.3324
  21810180.502     2980765.475 9   2323970.16047  21810180.616    21810190.2854
 00  2 29 17 38 30.0000000  0  8 26 02 27 19 08 11 07 13
  23012374.951   -10405389.452 8  -8093466.11246  23012374.944    23012387.3504
  21209096.305    -7590222.988 9  -5858780.11748  21209095.639    21209105.6744
  20597737.415    -2648034.959 9  -2062899.31947  20597737.023    20597747.1334
  22212971.717     7816094.494 8   6084476.07046  22212971.479    22212984.5174
  20053155.160    -5523424.623 9  -4301947.60248  20053154.540    20053163.9724
  23843841.865    -7895204.654 8  -6145392.14245  23843841.402    23843857.5494
  21482147.915   -19236612.611 9 -14977663.35347  21482147.239    21482158.8484
  21824391.054     3055441.825 9   2382159.38347  21824391.168    21824400.8454
 00  2 29 17 39  0.0000000  0  8 26 02 27 19 08 11 07 13
  23001922.502   -10460317.314 8  -8136267.03446  23001922.520    23001934.8764
  21207412.985    -7599068.844 9  -5865672.99648  21207412.314    21207422.3624
  20603732.334    -2616531.659 9  -2038351.36347  20603731.963    20603742.0834
  22226914.778     7889365.042 8   6141569.80846  22226914.537    22226927.6034
  20056326.975    -5506756.773 9  -4288959.69548  20056326.354    20056335.7874
  23840171.052    -7914494.384 8  -6160423.09445  23840170.594    23840186.8394
  21469195.710   -19304676.825 9 -15030700.33847  21469195.026    21469206.6464
  21838674.880     3130503.185 9   2440648.60747  21838674.970    21838684.6904
 00  2 29 17 39 30.0000000  0  8 26 02 27 19 08 11 07 13
  22991561.269   -10514766.094 8  -8178694.62246  22991561.213    22991573.6644
  21205754.225    -7607785.599 9  -5872465.27548  21205753.552    21205763.6204
  20609812.214    -2584581.823 9  -2013455.45247  20609811.854    20609822.0024
  22240913.349     7962927.408 8   6198890.95346  22240913.106    22240926.2084
  20059577.442    -5489675.450 9  -4275649.61348  20059576.824    20059586.2564
  23836587.816    -7933323.603 8  -6175095.20245  23836587.375    23836603.7364
  21456322.298   -19372326.629 9 -15083414.40547  21456321.618    21456333.2314
  21853031.300     3205946.389 9   2499435.37447  21853031.411    21853041.1624
 00  2 29 17 40  0.0000000  0  8 26 02 27 19 08 11 07 13
  22981289.193   -10568745.990 8  -8220756.85546  22981289.155    22981301.6534
  21204119.064    -7616378.179 9  -5879160.79748  21204118.444    21204128.4964
  20615978.028    -2552180.486 9  -1988207.72747  20615977.665    20615987.8174
  22254970.052     8036795.053 8   6256449.95946  22254969.824    22254982.9724
  20062902.943    -5472200.060 9  -4262032.47648  20062902.322    20062911.7714
  23833088.525    -7951712.674 8  -6189424.34445  23833088.057    23833104.3674
  21443526.271   -19439569.852 9 -15135811.65647  21443525.606    21443537.1824
  21867457.496     3281755.745 9   2558507.45647  21867457.574    21867467.3524
 00  2 29 17 40 30.0000000  0  8 26 02 27 19 08 11 07 13
  22971106.792   -10622254.959 8  -8262452.12246  22971106.703    22971119.2264
  21202509.095    -7624838.696 9  -5885753.41148  21202508.459    21202518.5454
  20622231.154    -2519320.411 9  -1962602.54747  20622230.797    20622240.9554
  22269087.177     8110980.258 8   6314256.41146  22269086.932    22269100.1024
  20066300.296    -5454346.920 9  -4248120.98548  20066299.670    20066309.1574
  23829669.567    -7969679.780 8  -6203424.66245  23829669.153    23829685.1674
  21430807.611   -19506406.613 9 -15187892.18247  21430806.951    21430818.5144
  21881952.004     3357924.661 9   2617859.70947  21881952.129    21881961.9234
 00  2 29 17 41  0.0000000  0  8 26 02 27 19 08 11 07 13
  22961011.660   -10675305.013 8  -8303789.80446  22961011.593    22961024.1154
  21200927.335    -7633150.996 9  -5892230.52248  21200926.684    21200936.7814
  20628569.177    -2486014.280 9  -1936649.78847  20628568.809    20628579.0024
  22283263.593     8185477.009 8   6372305.64446  22283263.308    22283276.5274
  20069768.600    -5436121.041 9  -4233919.04348  20069767.969    20069777.4704
  23826329.922    -7987230.634 8  -6217100.63145  23826329.406    23826345.3704
  21418168.321   -19572826.192 9 -15239647.62547  21418167.671    21418179.2244
  21896515.035     3434453.141 9   2677492.15447  21896515.148    21896524.9704
 00  2 29 17 41 30.0000000  0  8 26 02 27 19 08 11 07 13
  22951003.403   -10727898.512 8  -8344771.70846  22951003.361    22951015.8594
  21199377.393    -7641296.282 9  -5898577.50748  21199376.737    21199386.8074
  20634994.007    -2452251.706 9  -1910341.36547  20634993.641    20635003.8614
  22297501.543     8260297.135 8   6430606.83646  22297501.231    22297514.5044
  20073311.687    -5417502.007 9  -4219410.75548  20073311.076    20073320.5904
  23823071.980    -8004351.939 8  -6230441.89345  23823071.441    23823087.2574
  21405608.556   -19638828.019 9 -15291077.55547  21405607.896    21405619.4334
  21911147.029     3511344.450 9   2737407.31547  21911147.148    21911157.0424
 00  2 29 17 42  0.0000000  0  8 26 02 27 19 08 11 07 13
  22941082.979   -10780030.519 8  -8385394.02046  22941082.949    22941095.5024
  21197859.977    -7649270.395 9  -5904791.11248  21197859.317    21197869.3844
  20641506.986    -2418026.170 9  -1883672.18547  20641506.632    20641516.8694
  22311801.997     8335445.643 8   6489163.91046  22311801.701    22311815.0144
  20076934.171    -5398465.923 9  -4204577.50848  20076933.548    20076943.0674
  23819898.821    -8021027.013 8  -6243435.42445  23819898.318    23819914.0884
  21393129.039   -19704408.177 9 -15342178.90947  21393128.376    21393139.8834
  21925850.262     3588609.823 9   2797613.95747  21925850.359    21925860.3074
 00  2 29 17 42 30.0000000  0  8 26 02 27 19 08 11 07 13
  22931254.192   -10831680.841 8  -8425640.97646  22931254.193    22931266.7304
  21196379.078    -7657052.503 9  -5910855.11548  21196378.423    21196388.5094
  20648107.823    -2383338.820 9  -1856643.15647  20648107.453    20648117.7154
  22326162.509     8410909.814 8   6547966.96046  22326162.199    22326175.6334
  20080638.808    -5378998.246 9  -4189407.94548  20080638.173    20080647.7124
  23816813.386    -8037240.718 8  -6256069.46245  23816812.874    23816828.6844
  21380731.971   -19769554.955 9 -15392942.56547  21380731.308    21380742.7824
  21940627.621     3666264.870 9   2858124.24047  21940627.719    21940637.6904
 00  2 29 17 43  0.0000000  0  8 26 02 27 19 08 11 07 13
  22921519.825   -10882834.969 8  -8465501.29546  22921519.792    22921532.3344
  21194934.185    -7664645.501 9  -5916771.75848  21194933.543    21194943.6124
  20654792.266    -2348212.028 9  -1829271.70347  20654791.905    20654802.1934
  22340580.776     8486677.789 8   6607006.72746  22340580.468    22340594.0144
  20084428.519    -5359083.566 9  -4173890.07048  20084427.870    20084437.4144
  23813818.855    -8052976.725 8  -6268331.26945  23813818.336    23813834.1714
  21368415.879   -19834276.189 9 -15443374.63647  21368415.224    21368426.6794
  21955482.830     3744328.857 9   2918953.17847  21955482.935    21955492.9454
 00  2 29 17 43 30.0000000  0  8 26 02 27 19 08 11 07 13
  22911881.558   -10933484.237 8  -8504968.19346  22911881.535    22911894.0334
  21193520.175    -7672076.094 9  -5922561.85448  21193519.532    21193529.5974
  20661557.377    -2312661.382 9  -1801569.97147  20661557.032    20661567.3314
  22355054.669     8562737.911 8   6666274.15046  22355054.408    22355067.9484
  20088302.436    -5338726.016 9  -4158027.09848  20088301.788    20088311.3534
  23810916.631    -8068227.555 8  -6280215.01945  23810916.196    23810931.9344
  21356176.863   -19898592.723 9 -15493491.35247  21356176.197    21356187.6114
  21970417.316     3822809.794 9   2980107.00447  21970417.436    21970427.5054
 00  2 29 17 44  0.0000000  0  8 26 02 27 19 08 11 07 13
  22902337.327   -10983639.179 8  -8544049.92046  22902337.342    22902349.7984
  21192133.212    -7679364.924 9  -5928241.49248  21192132.562    21192142.6194
  20668397.679    -2276715.706 9  -1773560.42447  20668397.336    20668407.6544
  22369579.616     8639066.434 8   6725750.72146  22369579.372    22369592.9854
  20092258.098    -5317938.929 9  -4141829.41648  20092257.509    20092267.0694
  23808104.159    -8083006.889 8  -6291731.36545  23808103.764    23808119.4914
  21344012.142   -19962518.370 9 -15543303.48447  21344011.478    21344022.8814
  21985429.635     3901699.376 9   3041579.25747  21985429.753    21985439.8234
 00  2 29 17 44 30.0000000  0  8 26 02 27 19 08 11 07 13
  22892886.206   -11033305.167 8  -8582750.63046  22892886.184    22892898.6044
  21190771.223    -7686522.339 9  -5933818.72948  21190770.565    21190780.6044
  20675309.371    -2240394.660 9  -1745258.37947  20675309.051    20675319.3954
  22384155.496     8715662.286 8   6785435.58746  22384155.301    22384168.9164
  20096292.750    -5296737.125 9  -4125308.57548  20096292.126    20096301.7124
  23805381.230    -8097316.204 8  -6302881.45745  23805380.848    23805396.5454
  21331919.146   -20026067.232 9 -15592822.02047  21331918.500    21331929.8734
  22000517.636     3980986.763 9   3103361.48547  22000517.758    22000527.8434
 00  2 29 17 45  0.0000000  0  8 26 02 27 19 08 11 07 13
  22883523.272   -11082507.630 8  -8621090.15146  22883523.246    22883535.6084
  21189426.402    -7693589.388 9  -5939325.54848  21189425.766    21189435.7944
  20682289.443    -2203714.464 9  -1716676.48547  20682289.129    20682299.4614
  22398782.132     8792524.866 8   6845328.30646  22398781.906    22398795.5954
  20100405.661    -5275123.865 9  -4108467.12648  20100405.029    20100414.6454
  23802747.765    -8111155.293 8  -6313665.15145  23802747.312    23802763.1074
  21319895.033   -20089254.385 9 -15642058.70447  21319894.374    21319905.7124
  22015676.489     4060646.633 9   3165433.95947  22015676.664    22015686.7844
 00  2 29 17 45 30.0000000  0  8 26 02 27 19 08 11 07 13
  22874246.824   -11131255.463 8  -8659075.40046  22874246.789    22874259.1134
  21188098.559    -7700567.431 9  -5944763.01848  21188097.895    21188107.9424
  20689341.080    -2166658.215 9  -1687801.55447  20689340.747    20689351.0924
  22413460.122     8869657.254 8   6905431.26046  22413459.874    22413473.5614
  20104596.075    -5253103.026 9  -4091308.08048  20104595.498    20104605.1194
  23800201.481    -8124536.363 8  -6324091.94745  23800200.974    23800216.8824
  21307939.959   -20152078.462 9 -15691012.47047  21307939.301    21307950.6334
  22030900.206     4140647.087 9   3227771.82147  22030900.345    22030910.5294
 00  2 29 17 46  0.0000000  0  8 26 02 27 19 08 11 07 13
  22865057.254   -11179546.210 8  -8696704.48346  22865057.291    22865069.7074
  21186789.599    -7707446.191 9  -5950123.12748  21186788.941    21186799.0294
  20696468.856    -2129201.796 9  -1658614.81247  20696468.523    20696478.8924
  22428191.338     8947069.367 8   6965752.16246  22428191.056    22428204.8014
  20108863.649    -5230677.055 9  -4073833.34848  20108863.074    20108872.7174
  23797740.839    -8137466.993 8  -6334167.73445  23797740.257    23797756.3904
  21296056.169   -20214527.928 9 -15739674.33847  21296055.508    21296066.8144
  22046186.813     4220978.246 9   3290367.37647  22046186.962    22046197.1754
 00  2 29 17 46 30.0000000  0  8 26 02 27 19 08 11 07 13
  22855956.257   -11227372.190 8  -8733971.40846  22855956.300    22855968.6794
  21185500.602    -7714219.995 9  -5955401.45548  21185499.964    21185510.0704
  20703677.535    -2091320.309 9  -1629096.85047  20703677.202    20703687.5914
  22442978.134     9024773.508 8   7026300.62946  22442977.819    22442991.6264
  20113209.163    -5207841.395 9  -4056039.37648  20113208.585    20113218.2204
  23795365.813    -8149947.600 8  -6343892.86845  23795365.272    23795381.4654
  21284244.641   -20276597.762 9 -15788040.39347  21284243.965    21284255.2704
  22061535.842     4301637.344 9   3353218.46347  22061535.976    22061546.2374
 00  2 29 17 47  0.0000000  0  8 26 02 27 19 08 11 07 13
  22846944.761   -11274727.653 8  -8770871.71146  22846944.849    22846957.1544
  21184235.496    -7720868.259 9  -5960581.95948  21184234.869    21184244.9724
  20710972.017    -2052987.781 9  -1599227.42847  20710971.663    20710982.0574
  22457820.780     9102771.447 8   7087078.03746  22457820.504    22457834.3504
  20117634.564    -5184585.941 9  -4037918.27648  20117633.982    20117643.6344
  23793073.876    -8161991.082 8  -6353277.37445  23793073.388    23793089.6234
  21272510.000   -20338263.440 9 -15836091.51947  21272509.318    21272520.5904
  22076948.504     4382630.634 9   3416329.96447  22076948.606    22076958.9344
 00  2 29 17 47 30.0000000  0  8 26 02 27 19 08 11 07 13
  22838026.229   -11321594.702 8  -8807391.42146  22838026.264    22838038.5734
  21183000.609    -7727357.911 9  -5965638.87348  21182999.974    21183010.0664
  20718356.520    -2014182.466 9  -1568989.58747  20718356.150    20718366.5614
  22472722.557     9181080.248 8   7148097.67646  22472722.308    22472736.2314
  20122139.359    -5160913.229 9  -4019472.04648  20122138.783    20122148.4544
  23790865.716    -8173594.923 8  -6362319.30445  23790865.187    23790881.4214
  21260857.794   -20399495.992 9 -15883805.14647  21260857.125    21260868.3744
  22092427.475     4463972.843 9   3479713.34647  22092427.610    22092437.9844
 00  2 29 17 48  0.0000000  0  8 26 02 27 19 08 11 07 13
  22829200.483   -11367973.929 8  -8843531.01946  22829200.533    22829212.8504
  21181796.466    -7733685.759 9  -5970569.70048  21181795.818    21181805.9064
  20725830.701    -1974905.471 9  -1538384.21247  20725830.366    20725840.8084
  22487685.106     9259708.148 8   7209365.96546  22487684.889    22487698.8064
  20126724.642    -5136817.787 9  -4000696.42548  20126724.049    20126733.7214
  23788743.352    -8184746.939 8  -6371009.15745  23788743.015    23788759.1534
  21249291.556   -20460276.638 9 -15931166.63447  21249290.882    21249302.1384
  22107975.357     4545676.781 9   3543378.58947  22107975.467    22107985.9094
 00  2 29 17 48 30.0000000  0  8 26 02 27 19 08 11 07 13
  22820469.986   -11413853.155 8  -8879280.99246  22820470.007    22820482.3024
  21180622.887    -7739852.899 9  -5975375.29248  21180622.260    21180632.3474
  20733392.985    -1935165.802 9  -1507418.31247  20733392.641    20733403.0884
  22502708.275     9338654.886 8   7270882.70346  22502708.069    22502722.0734
  20131392.481    -5112288.509 9  -3981582.74548  20131391.867    20131401.5554
  23786709.068    -8195436.751 8  -6379338.86245  23786708.734    23786724.9054
  21237815.001   -20520586.078 9 -15978160.94247  21237814.347    21237825.5714
  22123591.075     4627737.345 9   3607321.71947  22123591.186    22123601.6634
 00  2 29 17 49  0.0000000  0  8 26 02 27 19 08 11 07 13
  22811835.672   -11459226.693 8  -8914636.93346  22811835.695    22811847.9234
  21179477.683    -7745871.067 9  -5980064.80648  21179477.053    21179487.1654
  20741041.414    -1894973.387 9  -1476099.62447  20741041.076    20741051.5304
  22517791.247     9417915.641 8   7332644.11146  22517791.008    22517805.1004
  20136142.635    -5087326.456 9  -3962131.83748  20136142.019    20136151.7134
  23784764.571    -8205655.098 8  -6387301.20845  23784764.140    23784780.3214
  21226430.432   -20580412.383 9 -16024778.79147  21226429.769    21226440.9704
  22139273.946     4710150.542 9   3671539.61347  22139274.049    22139284.5384
 00  2 29 17 49 30.0000000  0  8 26 02 27 19 08 11 07 13
  22803298.017   -11504091.914 8  -8949596.79846  22803298.085    22803310.2604
  21178356.976    -7751760.536 9  -5984654.02248  21178356.349    21178366.4784
  20748776.005    -1854328.185 9  -1444428.11247  20748775.641    20748786.1334
  22532932.391     9497481.717 8   7394643.43846  22532932.115    22532946.2534
  20140974.357    -5061935.640 9  -3942346.81748  20140973.744    20140983.4384
  23782912.188    -8215390.222 8  -6394887.02545  23782911.682    23782927.7644
  21215133.501   -20639777.804 9 -16071037.49947  21215132.829    21215144.0294
  22155022.191     4792907.592 9   3736025.45647  22155022.297    22155032.8554
 00  2 29 17 50  0.0000000  0  8 26 02 27 19 08 11 07 13
  22794857.950   -11548444.162 8  -8984156.93246  22794858.028    22794870.2274
  21177258.640    -7757532.578 9  -5989151.74248  21177257.999    21177268.1374
  20756593.341    -1813248.245 9  -1412417.85847  20756592.959    20756603.4494
  22548128.241     9577335.603 8   7456867.03146  22548128.005    22548142.1324
  20145887.026    -5036119.541 9  -3922230.42148  20145886.413    20145896.1124
  23781150.236    -8224650.378 8  -6402102.72645  23781149.713    23781165.5804
  21203919.008   -20698710.153 9 -16116958.75347  21203918.333    21203929.5064
  22170834.809     4876002.788 8   3800774.79147  22170834.910    22170845.4994
 00  2 29 17 50 30.0000000  0  8 26 02 27 19 08 11 07 13
  22786515.306   -11592284.675 8  -9018318.32946  22786515.364    22786527.5934
  21176182.957    -7763185.648 9  -5993556.74948  21176182.304    21176192.4394
  20764490.889    -1771746.648 9  -1380079.03447  20764490.512    20764501.0114
  22563377.759     9657471.208 8   7519310.14346  22563377.538    22563391.7184
  20150880.032    -5009881.497 9  -3901785.23948  20150879.406    20150889.0964
  23779476.212    -8233447.681 8  -6408957.77045  23779475.642    23779491.4954
  21192783.029   -20757230.273 9 -16162558.78847  21192782.342    21192793.4854
  22186708.552     4959419.044 9   3865774.30847  22186708.651    22186719.2504
 00  2 29 17 51  0.0000000  0  8 26 02 27 19 08 11 07 13
  22778267.601   -11635626.176 8  -9052090.86846  22778267.704    22778279.9034
  21175134.646    -7768694.702 9  -5997849.53748  21175133.980    21175144.1094
  20772469.239    -1729820.504 9  -1347409.39847  20772468.859    20772479.3704
  22578681.480     9737891.471 8   7581975.06546  22578681.184    22578695.3674
  20155954.157    -4983217.169 9  -3881007.89348  20155953.534    20155963.2214
  23777890.109    -8241782.660 8  -6415452.57745  23777889.619    23777905.3244
  21181722.384   -20815353.905 9 -16207849.87347  21181721.680    21181732.8224
  22202643.285     5043155.753 8   3931023.53746  22202643.370    22202654.0184
 00  2 29 17 51 30.0000000  0  8 26 02 27 19 08 11 07 13
  22770116.067   -11678462.709 8  -9085469.93346  22770116.117    22770128.3334
  21174117.116    -7774041.956 9  -6002016.23748  21174116.444    21174126.5754
  20780528.295    -1687470.329 9  -1314409.34347  20780527.910    20780538.4224
  22594040.390     9818602.402 8   7644866.47546  22594040.081    22594054.3084
  20161110.711    -4956119.414 9  -3859892.80348  20161110.094    20161119.7784
  23776392.467    -8249652.311 8  -6421584.79845  23776392.016    23776407.8514
  21170738.186   -20873075.900 9 -16252827.98747  21170737.474    21170748.6114
  22218639.311     5127214.974 9   3996524.07346  22218639.436    22218650.1034
 00  2 29 17 52  0.0000000  0  8 26 02 27 19 08 11 07 13
  22762061.185   -11720791.116 8  -9118453.06446  22762061.253    22762073.4854
  21173131.744    -7779220.174 9  -6006051.21548  21173131.076    21173141.2024
  20788665.866    -1644707.526 9  -1281087.75847  20788665.476    20788675.9804
  22609457.184     9899617.229 8   7707994.69646  22609456.859    22609471.1364
  20166352.097    -4928576.065 9  -3838430.49948  20166351.465    20166361.1434
  23774983.672    -8257055.274 8  -6427353.36245  23774983.252    23774999.1834
  21159832.991   -20930382.805 9 -16297482.65947  21159832.263    21159843.3834
  22234695.732     5211591.355 9   4062271.73946  22234695.850    22234706.5214
 00  2 29 17 52 30.0000000  0  8 26 02 27 19 08 11 07 13
  22754102.119   -11762616.190 8  -9151043.97946  22754102.183    22754114.4834
  21172178.603    -7784229.024 9  -6009954.22048  21172177.926    21172188.0914
  20796884.590    -1601518.166 9  -1247433.80647  20796884.207    20796894.7424
  22624932.562     9980939.891 8   7771362.78046  22624932.215    22624946.5624
  20171680.056    -4900577.707 9  -3816613.63848  20171679.417    20171689.1024
  23773666.195    -8263979.243 8  -6432748.72045  23773665.724    23773681.5844
  21149008.506   -20987265.536 9 -16341806.80747  21149007.777    21149018.9044
  22250812.873     5296286.976 8   4128268.15046  22250812.992    22250823.7264
 00  2 29 17 53  0.0000000  0  8 26 02 27 19 08 11 07 13
  22746240.246   -11803930.376 8  -9183236.80546  22746240.316    22746252.5654
  21171253.585    -7789089.965 9  -6013741.96748  21171252.937    21171263.0974
  20805188.177    -1557882.782 9  -1213432.30247  20805187.788    20805198.3404
  22640465.755    10062566.567 8   7834967.75546  22640465.392    22640479.7994
  20177094.408    -4872125.326 9  -3794442.99448  20177093.749    20177103.4404
  23772440.773    -8270419.179 8  -6437766.91945  23772440.272    23772456.1004
  21138267.447   -21043710.052 9 -16385789.48847  21138266.722    21138277.8474
  22266994.252     5381319.934 8   4194527.41546  22266994.380    22267005.1664
 00  2 29 17 53 30.0000000  0  8 26 02 27 19 08 11 07 13
  22738477.202   -11844725.788 8  -9215025.39546  22738477.230    22738489.3614
  21170351.591    -7793830.328 9  -6017435.76248  21170350.911    21170361.0684
  20813574.328    -1513813.875 9  -1179092.98447  20813573.912    20813584.4824
  22656055.710    10144491.394 8   7898805.04646  22656055.339    22656069.7984
  20182591.880    -4843236.017 9  -3771931.89147  20182591.233    20182600.9194
  23771307.448    -8276374.780 8  -6442407.68145  23771306.986    23771322.7974
  21127610.666   -21099711.744 9 -16429427.12147  21127609.930    21127621.0364
  22283238.909     5466685.482 9   4261045.85046  22283239.054    22283249.8634
 00  2 29 17 54  0.0000000  0  8 26 02 27 19 08 11 07 13
  22730810.306   -11885015.851 8  -9246420.20046  22730810.288    22730822.3954
  21169470.195    -7798462.266 9  -6021045.06248  21169469.501    21169479.6724
  20822041.894    -1469316.738 9  -1144419.97247  20822041.491    20822052.0564
  22671700.491    10226704.272 8   7962866.79646  22671700.098    22671714.6004
  20188167.808    -4813934.554 9  -3749099.62647  20188167.173    20188176.8584
  23770264.330    -8281856.769 8  -6446679.38945  23770263.799    23770279.6614
  21117034.677   -21155288.661 9 -16472733.75447  21117033.952    21117045.0304
  22299544.323     5552370.188 8   4327812.97346  22299544.416    22299555.2794
 00  2 29 17 54 30.0000000  0  8 26 02 27 19 08 11 07 13
  22723236.743   -11924814.595 8  -9277432.15846  22723236.771    22723248.9334
  21168608.435    -7802990.746 9  -6024573.74248  21168607.748    21168617.9024
  20830590.955    -1424391.457 9  -1109413.34047  20830590.562    20830601.1524
  22687395.839    10309183.149 8   8027135.82146  22687395.523    22687410.0734
  20193819.664    -4784234.004 9  -3725956.38047  20193819.020    20193828.7234
  23769311.093    -8286866.315 8  -6450582.95345  23769310.459    23769326.4164
  21106538.525   -21210446.141 9 -16515713.54947  21106537.818    21106548.8884
  22315908.791     5638365.324 8   4394821.99346  22315908.877    22315919.7914
 00  2 29 17 55  0.0000000  0  8 26 02 27 19 08 11 07 13
  22715758.071   -11964114.862 8  -9308055.70346  22715758.118    22715770.3044
  21167766.844    -7807413.219 9  -6028019.82348  21167766.170    21167776.3254
  20839221.755    -1379036.520 9  -1074071.91447  20839221.367    20839231.9524
  22703139.089    10391913.647 8   8091600.91946  22703138.784    22703153.3834
  20199545.827    -4754143.191 9  -3702509.03247  20199545.196    20199554.9084
  23768449.548    -8291394.560 8  -6454111.46945  23768448.775    23768464.7874
  21096125.391   -21265167.443 9 -16558353.47547  21096124.667    21096135.7494
  22332329.152     5724654.241 8   4462059.92146  22332329.240    22332340.1954
 00  2 29 17 55 30.0000000  0  8 26 02 27 19 08 11 07 13
  22708375.770   -12002909.286 8  -9338285.09846  22708375.779    22708387.9204
  21166948.920    -7811711.611 9  -6031369.21448  21166948.247    21166958.3894
  20847933.770    -1333255.201 9  -1038398.24847  20847933.356    20847943.9524
  22718929.121    10474890.035 8   8156257.61546  22718928.832    22718943.5124
  20205345.278    -4723667.121 9  -3678761.47947  20205344.641    20205354.3664
  23767681.262    -8295431.995 8  -6457257.54245  23767680.577    23767696.5244
  21085792.292   -21319468.160 9 -16600665.67147  21085791.580    21085802.6214
  22348800.753     5811212.389 8   4529507.65246  22348800.847    22348811.8854
 00  2 29 17 56  0.0000000  0  8 26 02 27 19 08 11 07 13
  22701089.433   -12041199.230 8  -9368121.38546  22701089.423    22701101.5424
  21166156.483    -7815876.149 9  -6034614.30648  21166155.785    21166165.9304
  20856730.310    -1287029.367 9  -1002378.20547  20856729.906    20856740.5254
  22734766.423    10558114.459 8   8221107.58246  22734766.139    22734780.7954
  20211220.706    -4692791.874 9  -3654702.87847  20211220.043    20211229.7754
  23767004.846    -8298986.491 8  -6460027.29645  23767004.235    23767020.2044
  21075538.807   -21373350.573 9 -16642651.91647  21075538.089    21075549.1214
  22365322.427     5898033.580 8   4597160.34846  22365322.539    22365333.6204
 00  2 29 17 56 30.0000000  0  8 26 02 27 19 08 11 07 13
  22693900.648   -12078976.495 8  -9397558.17246  22693900.649    22693912.7304
  21165390.995    -7819898.918 9  -6037748.92948  21165390.285    21165400.4154
  20865614.050    -1240345.381 9   -966001.15447  20865613.636    20865624.2794
  22750650.612    10641585.546 8   8286149.75946  22750650.272    22750664.9954
  20217175.932    -4661497.013 9  -3630317.30547  20217175.261    20217184.9984
  23766422.441    -8302046.401 8  -6462411.64445  23766421.869    23766437.9294
  21065368.704   -21426794.666 9 -16684296.61047  21065367.979    21065378.9874
  22381896.272     5985129.133 8   4665026.83246  22381896.395    22381907.5064
 00  2 29 17 57  0.0000000  0  8 26 02 27 19 08 11 07 13
  22686813.136   -12116221.038 8  -9426579.86846  22686813.196    22686825.2884
  21164654.311    -7823770.243 9  -6040765.55348  21164653.585    21164663.7104
  20874585.226    -1193201.886 9   -929266.04247  20874584.825    20874595.4934
  22766585.840    10725324.863 8   8351400.93946  22766585.461    22766600.3104
  20223211.100    -4629782.163 9  -3605604.49047  20223210.433    20223220.1764
  23765933.173    -8304617.200 8  -6464414.86445  23765932.737    23765948.8584
  21055282.976   -21479795.145 9 -16725595.63447  21055282.262    21055293.2564
  22398524.448     6072509.973 8   4733115.60546  22398524.554    22398535.7074
 00  2 29 17 57 30.0000000  0  8 26 02 27 19 08 11 07 13
  22679825.074   -12152943.648 8  -9455194.85946  22679825.104    22679837.1094
  21163945.213    -7827496.353 9  -6043669.02048  21163944.516    21163954.6324
  20883640.849    -1145614.613 9   -892185.13047  20883640.447    20883651.1354
  22782576.711    10809356.485 8   8416879.89746  22782576.350    22782591.2144
  20229328.577    -4597634.634 9  -3580554.52247  20229327.918    20229337.6854
  23765533.422    -8306717.491 8  -6466051.44845  23765532.944    23765549.1224
  21045278.956   -21532366.052 9 -16766559.92247  21045278.257    21045289.2314
  22415206.898     6160176.160 8   4801426.71846  22415207.015    22415218.2284
 00  2 29 17 58  0.0000000  0  8 26 02 27 19 08 11 07 13
  22672934.303   -12189155.095 8  -9483411.55046  22672934.284    22672946.3014
  21163263.649    -7831078.193 9  -6046460.07848  21163262.948    21163273.0684
  20892779.184    -1097592.640 9   -854765.50547  20892778.770    20892789.4984
  22798623.242    10893680.767 8   8482586.90746  22798622.861    22798637.8114
  20235531.210    -4565039.524 9  -3555155.79847  20235530.574    20235540.3434
  23765225.103    -8308337.902 8  -6467314.10945  23765224.587    23765240.8344
  21035361.657   -21584481.438 9 -16807169.26247  21035360.953    21035371.8924
  22431946.220     6248141.263 8   4869970.75746  22431946.336    22431957.5794
 00  2 29 17 58 30.0000000  0  8 26 02 27 19 08 11 07 13
  22666142.293   -12224846.532 8  -9511223.03946  22666142.376    22666154.4484
  21162608.652    -7834520.220 9  -6049142.18848  21162607.941    21162618.0724
  20901998.064    -1049147.400 9   -817016.05647  20901997.648    20902008.4124
  22814724.808    10978294.113 8   8548519.14446  22814724.405    22814739.4234
  20241818.992    -4531997.295 9  -3529408.67747  20241818.331    20241828.1144
  23765011.461    -8309461.268 8  -6468189.45145  23765010.965    23765027.2134
  21025533.328   -21636129.685 9 -16847414.59847  21025532.597    21025543.5224
  22448743.933     6336412.881 8   4938753.63546  22448744.048    22448755.2994
 00  2 29 17 59  0.0000000  0  8 26 02 27 19 08 11 07 13
  22659449.860   -12260015.450 8  -9538627.36146  22659449.909    22659462.0014
  21161978.046    -7837834.241 9  -6051724.54548  21161977.328    21161987.4754
  20911294.400    -1000294.985 9   -778949.32447  20911294.002    20911304.8094
  22830882.340    11063201.770 8   8614680.73446  22830881.979    22830897.0724
  20248191.522    -4498509.702 9  -3503314.50447  20248190.859    20248200.6654
  23764891.436    -8310091.985 8  -6468680.89545  23764890.898    23764907.1214
  21015791.505   -21687322.942 9 -16887305.38947  21015790.791    21015801.7404
  22465597.142     6424976.247 8   5007763.85746  22465597.260    22465608.5604
 00  2 29 17 59 30.0000000  0  8 26 02 27 19 08 11 07 13
  22652855.730   -12294667.853 8  -9565629.20546  22652855.754    22652867.8394
  21161370.312    -7841027.831 9  -6054213.06748  21161369.599    21161379.7474
  20920668.264     -951035.499 9   -740565.39547  20920667.853    20920678.6704
  22847091.971    11148383.007 8   8681055.49646  22847091.607    22847106.7324
  20254650.209    -4464569.246 9  -3476867.45347  20254649.548    20254659.3804
  23764867.273    -8310218.177 8  -6468779.18845  23764866.895    23764883.0654
  21006135.585   -21738065.214 9 -16926844.76847  21006134.885    21006145.8144
  22482504.828     6513825.770 8   5076997.05346  22482504.925    22482516.2344
 00  2 29 18  0  0.0000000  0  8 26 02 27 19 08 11 07 13
  22646361.008   -12328797.974 8  -9592224.08046  22646361.001    22646373.0804
  21160785.828    -7844099.240 9  -6056606.38848  21160785.133    21160795.2574
  20930120.013     -901366.509 9   -701862.37847  20930119.620    20930130.4554
  22863350.072    11233819.182 8   8747628.90446  22863349.732    22863364.9264
  20261192.085    -4430191.670 9  -3450079.79247  20261191.439    20261201.2664
  23764939.593    -8309838.855 8  -6468483.58245  23764939.214    23764955.1394
  20996565.512   -21788356.198 9 -16966032.49047  20996564.811    20996575.7214
  22499468.964     6602972.423 8   5146461.78646  22499469.082    22499480.4834
 00  2 29 18  0 30.0000000  0  8 26 02 27 19 08 11 07 13
  22639965.713   -12362405.219 8  -9618411.52146  22639965.748    22639977.7644
  21160222.711    -7847058.440 9  -6058912.27448  21160222.023    21160232.1534
  20939648.330     -851295.078 9   -662845.76747  20939647.973    20939658.8414
  22879658.317    11319518.593 8   8814407.42946  22879657.992    22879673.2234
  20267815.267    -4395386.852 9  -3422959.22247  20267814.614    20267824.4564
  23765104.543    -8308972.575 8  -6467808.52445  23765104.150    23765119.9564
  20987076.938   -21838218.808 9 -17004886.41347  20987076.239    20987087.1324
  22516487.076     6692402.554 8   5216147.40246  22516487.190    22516498.6624
 00  2 29 18  1  0.0000000  0  8 26 02 27 19 08 11 07 13
  22633668.735   -12395496.228 8  -9644196.70546  22633668.757    22633680.6844
  21159680.117    -7849909.982 9  -6061134.27248  21159679.419    21159689.5314
  20949255.538     -800809.456 9   -623506.42247  20949255.152    20949266.0364
  22896015.895    11405477.536 8   8881388.18846  22896015.628    22896030.9334
  20274521.007    -4360148.389 9  -3395500.74547  20274520.362    20274530.1964
  23765359.804    -8307631.685 8  -6466763.63945  23765359.245    23765375.1154
  20977668.326   -21887661.189 9 -17043412.88947  20977667.633    20977678.5094
  22533557.237     6782105.948 8   5286045.94746  22533557.353    22533568.8564
 00  2 29 18  1 30.0000000  0  8 26 02 27 19 08 11 07 13
  22627469.311   -12428074.680 8  -9669582.47946  22627469.289    22627481.1814
  21159159.499    -7852645.957 9  -6063266.21948  21159158.809    21159168.9374
  20958943.578     -749898.663 9   -583835.76547  20958943.186    20958954.1144
  22912422.936    11491696.145 8   8948571.28346  22912422.630    22912437.9814
  20281309.271    -4324475.981 9  -3367704.12947  20281308.652    20281318.5114
  23765704.885    -8305817.378 8  -6465349.87245  23765704.485    23765720.3024
  20968341.656   -21936672.891 9 -17081603.76347  20968340.960    20968351.8354
  22550678.800     6872079.717 8   5356155.19546  22550678.929    22550690.4804
 00  2 29 18  2  0.0000000  0  8 26 02 27 19 08 11 07 13
  22621368.176   -12460136.084 8  -9694565.35446  22621368.183    22621380.1024
  21158662.626    -7855256.765 9  -6065300.63048  21158661.963    21158672.0994
  20968714.792     -698550.784 9   -543824.52547  20968714.431    20968725.3734
  22928881.915    11578187.239 8   9015966.71246  22928881.595    22928896.9994
  20288180.631    -4288366.796 9  -3339567.15847  20288180.015    20288189.8954
  23766141.127    -8303524.936 8  -6463563.54245  23766140.724    23766156.4514
  20959102.013   -21985227.266 9 -17119438.28448  20959101.326    20959112.1924
  22567850.932     6962318.861 8   5426471.21446  22567851.011    22567862.6174
 00  2 29 18  2 30.0000000  0  8 26 02 27 19 08 11 07 13
  22615367.521   -12491669.317 8  -9719136.67746  22615367.557    22615379.4914
  21158192.028    -7857729.812 9  -6067227.69647  21158191.359    21158201.4934
  20978574.321     -646739.150 9   -503451.92647  20978573.935    20978584.9034
  22945393.030    11664952.822 8   9083576.02346  22945392.695    22945408.1534
  20295136.546    -4251813.566 9  -3311084.17947  20295135.920    20295145.8254
  23766670.027    -8300745.008 8  -6461397.34045  23766669.597    23766685.5014
  20949951.004   -22033315.977 9 -17156909.94948  20949950.311    20949961.1404
  22585071.252     7052811.543 8   5496984.80546  22585071.350    22585082.9524
 00  2 29 18  3  0.0000000  0  8 26 02 27 19 08 11 07 13
  22609469.773   -12522662.132 8  -9743286.88746  22609469.770    22609481.7074
  21157751.096    -7860047.030 9  -6069033.32948  21157750.434    21157760.5574
  20988525.512     -594445.650 9   -462703.84047  20988525.116    20988536.1094
  22961954.798    11751984.466 8   9151392.65346  22961954.469    22961969.9544
  20302176.515    -4214818.727 9  -3282257.09847  20302175.876    20302185.7994
  23767294.278    -8297464.836 8  -6458841.35445  23767293.715    23767309.5594
  20940891.789   -22080922.471 9 -17194005.86148  20940891.093    20940901.9094
  22602342.431     7143571.468 8   5567706.62046  22602342.543    22602354.1994
 00  2 29 18  3 30.0000000  0  8 26 02 27 19 08 11 07 13
  22603675.582   -12553110.442 8  -9767012.81746  22603675.641    22603687.5194
  21157342.902    -7862192.137 9  -6070704.85448  21157342.257    21157352.4064
  20998565.570     -541685.194 9   -421591.88147  20998565.196    20998576.2294
  22978566.819    11839280.268 8   9219415.10546  22978566.509    22978582.0204
  20309297.486    -4177397.663 9  -3253097.88847  20309296.856    20309306.7894
  23768016.091    -8293671.264 8  -6455885.31645  23768015.505    23768031.4464
  20931924.863   -22128043.595 9 -17230723.56748  20931924.180    20931934.9934
  22619664.978     7234601.343 8   5638638.79246  22619665.091    22619676.8354
 00  2 29 18  4  0.0000000  0  8 26 02 27 19 08 11 07 13
  22597986.326   -12583007.741 8  -9790309.39846  22597986.320    22597998.2344
  21156967.955    -7864162.619 9  -6072240.30948  21156967.296    21156977.4664
  21008693.565     -488462.413 9   -380119.68547  21008693.184    21008704.2674
  22995226.771    11926828.330 8   9287634.12546  22995226.515    22995242.1024
  20316499.561    -4139550.483 9  -3223606.63447  20316498.960    20316508.9224
  23768835.871    -8289363.162 8  -6452528.36345  23768835.368    23768851.2854
  20923047.280   -22174695.444 9 -17267075.60848  20923046.576    20923057.3834
  22637039.378     7325903.781 8   5709783.35946  22637039.523    22637051.3034
 00  2 29 18  4 30.0000000  0  8 26 02 27 19 08 11 07 13
  22592400.911   -12612359.499 8  -9813180.86146  22592400.876    22592412.7724
  21156623.705    -7865971.637 9  -6073649.95248  21156623.045    21156633.2184
  21018905.920     -434796.420 9   -338302.11747  21018905.544    21018916.6594
  23011936.091    12014635.575 8   9356055.10246  23011935.828    23011951.4534
  20323781.274    -4101285.325 9  -3193789.67847  20323780.629    20323790.6134
  23769751.776    -8284549.558 8  -6448777.49345  23769751.354    23769767.2994
  20914251.925   -22220915.062 9 -17303090.84648  20914251.205    20914262.0064
  22654465.131     7417475.498 8   5781137.75346  22654465.240    22654477.0294
 00  2 29 18  5  0.0000000  0  8 26 02 27 19 08 11 07 13
  22586915.418   -12641186.232 8  -9835643.21846  22586915.404    22586927.2284
  21156306.228    -7867640.142 9  -6074950.10748  21156305.544    21156315.7314
  21029195.304     -380726.011 9   -296169.43747  21029194.901    21029206.0154
  23028694.222    12102698.907 8   9424675.62546  23028693.867    23028709.6014
  20331143.302    -4062597.930 9  -3163643.70947  20331142.643    20331152.6584
  23770762.070    -8279240.583 8  -6444640.62345  23770761.624    23770777.6464
  20905536.272   -22266715.909 9 -17338779.77148  20905535.559    20905546.3354
  22671940.466     7509308.214 8   5852695.51646  22671940.542    22671952.4004
 00  2 29 18  5 30.0000000  0  8 26 02 27 19 08 11 07 13
  22581528.034   -12669496.657 8  -9857703.24846  22581528.074    22581539.8684
  21156013.132    -7869180.337 9  -6076150.27447  21156012.447    21156022.6314
  21039560.729     -326255.616 9   -253725.06847  21039560.335    21039571.4294
  23045501.028    12191018.368 8   9493495.72246  23045500.701    23045516.5064
  20338586.492    -4023483.944 9  -3133165.33647  20338585.840    20338595.8494
  23771866.432    -8273437.388 8  -6440118.66345  23771866.009    23771882.0024
  20896897.060   -22312114.891 9 -17374155.55648  20896896.360    20896907.1234
  22689462.006     7601383.764 8   5924442.49946  22689462.072    22689473.9674
 00  2 29 18  6  0.0000000  0  8 26 02 27 19 08 11 07 13
  22576238.861   -12697290.830 8  -9879361.01146  22576238.945    22576250.7614
  21155739.759    -7870617.034 9  -6077269.79147  21155739.097    21155749.2754
  21050004.098     -271375.734 9   -210961.61947  21050003.726    21050014.8524
  23062357.777    12279599.884 8   9562520.02146  23062357.422    23062373.2684
  20346111.004    -3983942.507 9  -3102353.88847  20346110.361    20346120.3884
  23773062.265    -8267153.919 8  -6435222.48145  23773061.731    23773077.7514
  20888332.188   -22357123.666 9 -17409227.28748  20888331.479    20888342.2164
  22707028.042     7693693.447 8   5996371.90846  22707028.141    22707040.1384
 00  2 29 18  6 30.0000000  0  8 26 02 27 19 08 11 07 13
  22571046.891   -12724574.701 8  -9900621.14346  22571046.999    22571058.8484
  21155481.983    -7871971.674 9  -6078325.36747  21155481.325    21155491.5044
  21060525.123     -216087.655 9   -167880.09347  21060524.752    21060535.9084
  23079262.513    12368433.627 8   9631740.86345  23079262.139    23079278.0764
  20353714.452    -3943986.402 9  -3071219.31247  20353713.807    20353723.8504
  23774347.473    -8260399.810 8  -6429959.56045  23774347.012    23774362.9754
  20879842.382   -22401737.645 9 -17443991.38548  20879841.686    20879852.4114
  22724636.599     7786226.310 8   6068475.24746  22724636.691    22724648.7354
 00  2 29 18  7  0.0000000  0  8 26 02 27 19 08 11 07 13
  22565953.543   -12751340.673 8  -9921477.70546  22565953.595    22565965.4544
  21155240.232    -7873242.408 9  -6079315.56547  21155239.542    21155249.7354
  21071126.648     -160376.840 9   -124469.15947  21071126.263    21071137.4434
  23096209.108    12457487.798 8   9701133.45545  23096208.817    23096224.7004
  20361396.484    -3903617.373 9  -3039762.97647  20361395.849    20361405.8974
  23775723.653    -8253167.530 8  -6424324.04345  23775723.229    23775739.2864
  20871432.627   -22445931.044 9 -17478427.75548  20871431.908    20871442.6284
  22742285.145     7878969.243 8   6140742.26246  22742285.223    22742297.3364
 00  2 29 18  7 30.0000000  0  8 26 02 27 19 08 11 07 13
  22560960.725   -12777578.246 8  -9941922.54046  22560960.742    22560972.5884
  21155014.787    -7874427.184 9  -6080238.78247  21155014.128    21155024.2954
  21081811.666     -104227.045 9    -80716.17147  21081811.275    21081822.4644
  23113199.491    12546771.451 8   9770704.86545  23113199.105    23113215.1094
  20369155.395    -3862844.212 9  -3007991.73847  20369154.738    20369164.8114
  23777190.623    -8245458.878 8  -6418317.33845  23777190.184    23777206.1744
  20863107.280   -22489680.938 9 -17512518.54048  20863106.562    20863117.2704
  22759972.227     7971914.330 8   6213166.81246  22759972.249    22759984.4094
 00  2 29 18  8  0.0000000  0  8 26 02 27 19 08 11 07 13
  22556069.488   -12803281.859 8  -9961951.29346  22556069.488    22556081.3434
  21154806.490    -7875521.682 9  -6081091.65747  21154805.833    21154815.9934
  21092580.629      -47636.082 9    -36619.42147  21092580.240    21092591.4454
  23130236.517    12636300.599 8   9840467.56845  23130236.140    23130252.1714
  20376993.312    -3821655.714 9  -2975896.86147  20376992.661    20377002.7394
  23778746.322    -8237283.833 8  -6411947.22045  23778745.837    23778761.8384
  20854873.391   -22532950.161 9 -17546234.77348  20854872.682    20854883.3634
  22777699.200     8065069.661 8   6285755.19046  22777699.257    22777711.4634
 00  2 29 18  8 30.0000000  0  8 26 02 27 19 08 11 07 13
  22551280.711   -12828447.046 8  -9981560.49846  22551280.673    22551292.5084
  21154620.352    -7876499.782 9  -6081853.83347  21154619.701    21154629.8934
  21103432.578        9390.859 9      7817.04747  21103432.198    21103443.4364
  23147321.874    12726083.664 8   9910428.11645  23147321.492    23147337.5734
  20384914.043    -3780032.413 9  -2943463.17847  20384913.398    20384923.4794
  23780394.146    -8228624.543 8  -6405199.77645  23780393.656    23780409.5844
  20846736.216   -22575711.130 9 -17579554.96948  20846735.515    20846746.1974
  22795467.571     8158442.516 8   6358513.05446  22795467.646    22795479.9164
 00  2 29 18  9  0.0000000  0  8 26 02 27 19 08 11 07 13
  22546595.186   -12853069.437 8 -10000746.73946  22546595.177    22546607.0194
  21154462.207    -7877330.991 9  -6082501.54847  21154461.551    21154471.7424
  21114367.569       66854.240 9     52593.60947  21114367.188    21114378.4694
  23164461.125    12816150.264 8   9980609.61645  23164460.767    23164476.9684
  20392922.293    -3737949.013 9  -2910670.97147  20392921.644    20392931.7524
  23782137.395    -8219463.992 8  -6398061.72945  23782136.849    23782152.7184
  20838698.201   -22617950.942 9 -17612469.06048  20838697.480    20838708.1724
  22813279.841     8252046.069 8   6431450.68146  22813279.984    22813292.2824
 00  2 29 18  9 30.0000000  0  8 26 02 27 19 08 11 07 13
  22542013.467   -12877146.785 8 -10019508.28346  22542013.419    22542025.2444
  21154334.516    -7878002.128 9  -6083024.53847  21154333.859    21154344.0484
  21125384.518      124748.383 9     97705.82247  21125384.131    21125395.4464
  23181658.905    12906524.262 8  10051030.62645  23181658.621    23181674.8174
  20401020.777    -3695391.547 9  -2877509.37047  20401020.118    20401030.2754
  23783976.186    -8209801.468 8  -6390532.56545  23783975.596    23783991.3984
  20830757.979   -22659676.992 9 -17644982.81948  20830757.257    20830767.9374
  22831139.734     8345899.248 8   6504582.81946  22831139.811    22831152.1294
 00  2 29 18 10  0.0000000  0  8 26 02 27 19 08 11 07 13
  22537537.696   -12900666.705 8 -10037835.46746  22537537.668    22537549.5004
  21154239.284    -7878502.742 9  -6083414.65347  21154238.605    21154248.8104
  21136482.487      183068.047 9    143149.60447  21136482.088    21136493.4154
  23198910.059    12997178.914 8  10121670.34945  23198909.828    23198926.1194
  20409209.157    -3652361.570 9  -2843979.56747  20409208.509    20409218.6704
  23785914.726    -8199614.933 8  -6382595.08045  23785914.104    23785929.8894
  20822909.215   -22700922.340 9 -17677122.00248  20822908.491    20822919.1694
  22849048.073     8440007.378 8   6577913.62046  22849048.133    22849060.4764
 00  2 29 18 10 30.0000000  0  8 26 02 27 19 08 11 07 13
  22533167.449   -12923632.208 8 -10055730.63746  22533167.413    22533179.2434
  21154177.116    -7878829.440 9  -6083669.25647  21154176.448    21154186.6704
  21147659.166      241801.451 9    188915.78247  21147658.770    21147670.1364
  23216208.253    13088080.458 8  10192502.43545  23216208.003    23216224.3574
  20417482.952    -3608882.629 9  -2810099.92747  20417482.311    20417492.4834
  23787954.717    -8188894.459 8  -6374241.53845  23787954.182    23787970.1014
  20815144.415   -22741726.182 9 -17708917.15548  20815143.716    20815154.3594
  22867000.601     8534347.542 8   6651425.21846  22867000.654    22867013.0454
 00  2 29 18 11  0.0000000  0  8 26 02 27 19 08 11 07 13
  22528901.866   -12946047.907 8 -10073197.38346  22528901.806    22528913.5834
  21154146.717    -7878989.324 9  -6083793.87247  21154146.049    21154156.2494
  21158915.988      300956.186 9    235010.25947  21158915.617    21158926.9954
  23233550.596    13179213.755 8  10263515.12945  23233550.357    23233566.7194
  20425836.952    -3564982.375 9  -2775891.99347  20425836.308    20425846.4834
  23790093.622    -8177653.997 8  -6365482.80245  23790093.231    23790109.1864
  20807460.378   -22782106.076 9 -17740381.95748  20807459.675    20807470.2984
  22884992.103     8628892.786 8   6725096.63946  22884992.169    22885004.6364
 00  2 29 18 11 30.0000000  0  8 26 02 27 19 08 11 07 13
  22524741.093   -12967912.731 8 -10090234.88746  22524741.027    22524752.8264
  21154143.292    -7879007.543 9  -6083808.10047  21154142.602    21154152.7844
  21170252.418      360528.985 9    281430.50947  21170252.039    21170263.4474
  23250932.055    13270552.821 8  10334688.15045  23250931.865    23250948.2554
  20434266.823    -3520683.183 9  -2741373.18847  20434266.192    20434276.3874
  23792330.791    -8165898.355 8  -6356322.63245  23792330.372    23792346.2774
  20799854.867   -22822073.016 9 -17771524.97548  20799854.141    20799864.7664
  22903019.000     8723623.965 8   6798912.94846  22903019.069    22903031.5904
 00  2 29 18 12  0.0000000  0  8 26 02 27 19 08 11 07 13
  22520683.756   -12989233.858 8 -10106848.72146  22520683.705    22520695.5334
  21154164.971    -7878893.698 9  -6083719.42947  21154164.287    21154174.4884
  21181668.840      420522.418 9    328178.50847  21181668.466    21181679.9184
  23268351.052    13362089.014 8  10406014.78345  23268350.735    23268367.2964
  20442771.101    -3475993.023 9  -2706549.75147  20442770.474    20442780.6724
  23794662.598    -8153646.423 8  -6346775.78345  23794661.938    23794677.8014
  20792328.238   -22861625.506 9 -17802345.04748  20792327.521    20792338.1174
  22921076.995     8818518.432 8   6872856.48246  22921077.078    22921089.6044
 00  2 29 18 12 30.0000000  0  8 26 02 27 19 08 11 07 13
  22516726.728   -13010027.944 8 -10123051.87846  22516726.695    22516738.5454
  21154210.044    -7878656.891 9  -6083534.94447  21154209.366    21154219.5734
  21193167.515      480947.816 9    375263.10847  21193167.136    21193178.6024
  23285813.918    13453856.024 8  10477521.26645  23285813.576    23285830.2114
  20451352.334    -3430898.610 9  -2671411.31347  20451351.684    20451361.8824
  23797085.549    -8140913.624 8  -6336854.19645  23797084.951    23797100.7794
  20784887.207   -22900728.343 9 -17832814.73848  20784886.483    20784897.0564
  22939166.203     8913576.986 8   6946927.88146  22939166.315    22939178.8874
 00  2 29 18 13  0.0000000  0  8 26 02 27 19 08 11 07 13
  22512870.874   -13030291.117 8 -10138841.33746  22512870.784    22512882.5914
  21154276.488    -7878307.998 9  -6083263.11747  21154275.819    21154286.0244
  21204748.549      541805.980 9    422684.92747  21204748.168    21204759.6394
  23303324.119    13545871.147 8  10549221.07945  23303323.744    23303340.3344
  20460015.260    -3385374.812 9  -2635938.28547  20460014.627    20460024.8374
  23799600.835    -8127694.281 8  -6326553.47145  23799600.479    23799616.5304
  20777535.875   -22939359.668 9 -17862917.02148  20777535.142    20777545.6784
  22957292.359     9008829.455 8   7021150.38046  22957292.407    22957305.0354
 00  2 29 18 13 30.0000000  0  8 26 02 27 19 08 11 07 13
  22509116.607   -13050019.306 8 -10154213.92046  22509116.603    22509128.4024
  21154362.477    -7877856.325 9  -6082911.19647  21154361.790    21154371.9914
  21216409.523      603084.366 9    470434.19247  21216409.155    21216420.6634
  23320881.533    13638135.282 8  10621114.93245  23320881.209    23320897.9184
  20468764.604    -3339397.012 9  -2600111.47547  20468763.959    20468774.1834
  23802210.497    -8113980.689 8  -6315867.64645  23802210.092    23802226.2814
  20770276.783   -22977506.480 9 -17892641.76448  20770276.047    20770286.5584
  22975460.300     9104301.969 8   7095544.34946  22975460.370    22975473.0164
 00  2 29 18 14  0.0000000  0  8 26 02 27 19 08 11 07 13
  22505465.073   -13069208.365 8 -10169166.39846  22505465.051    22505476.8124
  21154469.535    -7877293.694 9  -6082472.81947  21154468.866    21154479.0884
  21228150.621      664783.792 9    518511.54447  21228150.257    21228161.7914
  23338488.575    13730660.127 8  10693211.91645  23338488.341    23338505.0844
  20477602.339    -3292954.602 9  -2563922.63847  20477601.701    20477611.9334
  23804914.091    -8099774.374 8  -6304797.89145  23804913.551    23804929.8494
  20763111.059   -23015162.384 9 -17921983.98148  20763110.328    20763120.8174
  22993671.049     9199999.169 8   7170113.39546  22993671.122    22993683.7864
 00  2 29 18 14 30.0000000  0  8 26 02 27 19 08 11 07 13
  22501917.167   -13087852.648 8 -10183694.38446  22501917.167    22501928.8804
  21154596.760    -7876625.220 9  -6081951.96247  21154596.098    21154606.3364
  21239969.868      726893.970 9    566908.95947  21239969.495    21239981.0744
  23356143.377    13823435.725 8  10765504.32645  23356143.119    23356159.9904
  20486526.812    -3246056.607 9  -2527378.81147  20486526.153    20486536.3574
  23807715.466    -8085054.002 8  -6293327.56445  23807714.901    23807731.0394
  20756036.488   -23052339.390 9 -17950953.03448  20756035.745    20756046.2274
  23011926.061     9295929.293 8   7244863.94246  23011926.144    23011938.9144
 00  2 29 18 15  0.0000000  0  8 26 02 27 19 08 11 07 13
  22498475.501   -13105937.944 8 -10197786.77746  22498475.570    22498487.3324
  21154744.416    -7875849.566 9  -6081347.58147  21154743.736    21154753.9564
  21251863.574      789395.178 9    615611.08347  21251863.191    21251874.7874
  23373839.289    13916427.086 8  10837964.84745  23373838.978    23373855.9624
  20495534.408    -3198721.466 9  -2490494.34647  20495533.757    20495543.9714
  23810612.265    -8069830.870 8  -6281465.43345  23810611.786    23810627.8654
  20749047.978   -23089064.144 9 -17979569.68148  20749047.224    20749057.7014
  23030222.420     9392076.498 8   7319783.65146  23030222.488    23030235.3204
 00  2 29 18 15 30.0000000  0  8 26 02 27 19 08 11 07 13
  22495139.535   -13123468.644 8 -10211447.02546  22495139.549    22495151.3004
  21154913.400    -7874961.717 9  -6080655.77647  21154912.719    21154922.9494
  21263833.981      852299.684 9    664627.46847  21263833.614    21263845.2274
  23391574.659    14009625.807 8  10910586.95145  23391574.350    23391591.3734
  20504623.138    -3150960.218 9  -2453277.85547  20504622.475    20504632.7124
  23813601.431    -8054122.606 8  -6269225.31445  23813600.996    23813617.1254
  20742142.464   -23125352.661 9 -18007846.40948  20742141.714    20742152.1574
  23048554.215     9488409.961 8   7394848.49146  23048554.307    23048567.1384
 00  2 29 18 16  0.0000000  0  8 26 02 27 19 08 11 07 13
  22491907.809   -13140451.404 8 -10224680.30346  22491907.826    22491919.5294
  21155105.298    -7873953.408 9  -6079870.11047  21155104.616    21155114.8574
  21275883.194      915618.088 9    713966.36847  21275882.813    21275894.4524
  23409349.902    14103034.218 8  10983372.44045  23409349.584    23409366.7014
  20513790.015    -3102788.354 9  -2415741.40447  20513789.339    20513799.5894
  23816683.006    -8037929.046 8  -6256607.03345  23816682.633    23816698.7004
  20735317.550   -23161217.675 9 -18035793.13648  20735316.809    20735327.2284
  23066917.479     9584908.621 8   7470042.04046  23066917.545    23066930.4734
 00  2 29 18 16 30.0000000  0  8 26 02 27 19 08 11 07 13
  22488777.629   -13156901.027 8 -10237498.15946  22488777.583    22488789.2754
  21155321.467    -7872817.740 9  -6078985.20447  21155320.776    21155331.0014
  21288011.043      979349.883 9    763627.39247  21288010.657    21288022.3194
  23427163.443    14196643.635 8  11056314.56545  23427163.072    23427180.3114
  20523033.670    -3054212.865 9  -2377890.43647  20523032.990    20523043.2484
  23819857.008    -8021251.105 8  -6243611.33845  23819856.546    23819872.5964
  20728573.112   -23196659.771 9 -18063410.31548  20728572.378    20728582.8074
  23085310.835     9681565.587 8   7545358.93946  23085310.902    23085323.8694
 00  2 29 18 17  0.0000000  0  8 26 02 27 19 08 11 07 13
  22485746.532   -13172829.154 8 -10249909.64746  22485746.532    22485758.1664
  21155563.727    -7871544.854 9  -6077993.36847  21155563.018    21155573.2564
  21300219.739     1043506.513 9    813619.46247  21300219.355    21300231.0194
  23445017.537    14290466.354 8  11129422.89545  23445017.112    23445034.4864
  20532358.386    -3005211.306 9  -2339707.46347  20532357.704    20532367.9794
  23823122.777    -8004089.229 8  -6230238.53145  23823122.445    23823138.3924
  20721913.293   -23231657.105 9 -18090680.92848  20721912.559    20721923.0044
  23103734.805     9778382.984 8   7620800.86146  23103734.847    23103747.8194
 00  2 29 18 17 30.0000000  0  8 26 02 27 19 08 11 07 13
  22482812.931   -13188245.180 8 -10261922.11146  22482812.982    22482824.5684
  21155833.657    -7870126.353 9  -6076888.06947  21155832.972    21155843.2194
  21312514.126     1108113.343 9    863962.32847  21312513.734    21312525.4364
  23462919.391    14384540.072 8  11202726.80245  23462918.939    23462936.3564
  20541767.827    -2955764.488 9  -2301177.53647  20541767.150    20541777.4394
  23826485.648    -7986416.916 8  -6216467.99245  23826485.307    23826501.3654
  20715342.787   -23266185.177 9 -18117585.88548  20715342.037    20715352.4724
  23122190.348     9875366.713 8   7696372.38946  23122190.370    23122203.4634
 00  2 29 18 18  0.0000000  0  8 26 02 27 19 08 11 07 13
  22479978.655   -13203139.094 8 -10273527.72946  22479978.715    22479990.3154
  21156131.322    -7868562.173 9  -6075669.24747  21156130.635    21156140.9164
  21324893.137     1173165.136 9    914651.92947  21324892.764    21324904.4944
  23480869.386    14478866.727 8  11276227.79545  23480868.923    23480886.3374
  20551262.340    -2905870.796 9  -2262299.39447  20551261.667    20551271.9574
  23829949.378    -7968216.239 8  -6202285.77045  23829948.830    23829964.8554
  20708865.370   -23300223.886 9 -18144109.51948  20708864.641    20708875.0774
  23140680.715     9972533.684 8   7772086.69646  23140680.830    23140693.9214
 00  2 29 18 18 30.0000000  0  8 26 02 27 19 08 11 07 13
  22477246.028   -13217498.721 8 -10284717.02746  22477246.116    22477257.7204
  21156456.720    -7866852.437 9  -6074337.00847  21156456.040    21156466.2944
  21337355.377     1238654.386 9    965682.41047  21337355.046    21337366.8094
  23498865.603    14573436.687 8  11349918.38745  23498865.154    23498882.7014
  20560843.499    -2855521.797 9  -2223066.46747  20560842.825    20560853.1294
  23833513.570    -7949486.150 8  -6187691.00045  23833513.142    23833529.1384
  20702481.458   -23333771.341 9 -18170250.36048  20702480.751    20702491.1854
  23159207.415    10069891.522 8   7847949.74846  23159207.554    23159220.6854
 00  2 29 18 19  0.0000000  0  8 26 02 27 19 08 11 07 13
  22474617.514   -13231312.079 8 -10295480.66246  22474617.556    22474629.1664
  21156808.057    -7865006.237 9  -6072898.43547  21156807.367    21156817.6384
  21349900.187     1304577.143 9   1017050.68147  21349899.812    21349911.5974
  23516908.872    14668253.701 8  11423801.47845  23516908.412    23516926.1154
  20570511.475    -2804716.356 9  -2183477.87447  20570510.812    20570521.1354
  23837179.114    -7930223.775 8  -6172681.49245  23837178.805    23837194.7404
  20696191.143   -23366827.010 9 -18196007.99048  20696190.426    20696200.8474
  23177768.648    10167430.971 8   7923954.32746  23177768.844    23177781.9644
 00  2 29 18 19 30.0000000  0  8 26 02 27 19 08 11 07 13
  22472095.436   -13244566.029 8 -10305808.40946  22472095.382    22472107.0144
  21157184.267    -7863029.253 9  -6071357.95847  21157183.587    21157193.8784
  21362526.710     1370929.590 9   1068753.76947  21362526.331    21362538.1534
  23534997.196    14763307.147 8  11497868.80045  23534996.820    23535014.5184
  20580260.570    -2753484.697 9  -2143557.16647  20580259.922    20580270.2464
  23840944.291    -7910438.689 8  -6157264.66345  23840943.828    23840959.7774
  20689992.067   -23399402.988 9 -18221391.83848  20689991.367    20690001.7834
  23196361.413    10265135.500 8   8000087.51446  23196361.572    23196374.7614
 00  2 29 18 20  0.0000000  0  8 26 02 27 19 08 11 07 13
  22469680.891   -13257254.434 8 -10315695.47446  22469680.874    22469692.5014
  21157585.547    -7860920.580 9  -6069714.87247  21157584.839    21157595.1764
  21375229.298     1437681.594 8   1120768.21347  21375228.937    21375240.7714
  23553124.004    14858562.919 8  11572093.76945  23553123.561    23553141.4144
  20590088.944    -2701836.578 9  -2103311.94647  20590088.288    20590098.6294
  23844806.303    -7890144.806 8  -6141451.36745  23844805.674    23844821.5654
  20683881.840   -23431512.522 9 -18246412.21648  20683881.127    20683891.5404
  23214984.382    10362999.158 8   8076344.70746  23214984.500    23214997.7884
 00  2 29 18 20 30.0000000  0  8 26 02 27 19 08 11 07 13
  22467372.163   -13269385.973 8 -10325148.61446  22467372.242    22467383.8904
  21158012.441    -7858677.308 9  -6067966.89947  21158011.733    21158022.0684
  21388006.201     1504824.163 9   1173086.97547  21388005.841    21388017.6894
  23571291.622    14954033.460 8  11646486.09045  23571291.224    23571309.0914
  20599995.784    -2649776.085 9  -2062745.40747  20599995.140    20600005.4964
  23848763.318    -7869351.800 8  -6125249.13445  23848762.525    23848778.6314
  20677859.504   -23463159.916 9 -18271072.48848  20677858.816    20677869.2204
  23233634.014    10461002.804 8   8152710.96446  23233634.109    23233647.4514
 00  2 29 18 21  0.0000000  0  8 26 02 27 19 08 11 07 13
  22465168.190   -13280967.951 8 -10334173.53446  22465168.217    22465179.8894
  21158464.733    -7856300.514 9  -6066114.87747  21158464.050    21158474.3884
  21400859.508     1572368.367 9   1225718.70647  21400859.143    21400871.0434
  23589502.508    15049731.091 8  11721055.37245  23589502.167    23589520.0264
  20609980.563    -2597306.081 9  -2021859.76547  20609979.918    20609990.2934
  23852813.846    -7848065.966 8  -6108662.87845  23852813.131    23852829.3754
  20671926.690   -23494337.012 9 -18295366.29148  20671926.023    20671936.4324
  23252308.945    10559139.336 8   8229180.77246  23252309.001    23252322.4154
 00  2 29 18 21 30.0000000  0  8 26 02 27 19 08 11 07 13
  22463068.052   -13292005.028 8 -10342773.86346  22463067.962    22463079.6484
  21158942.413    -7853790.179 9  -6064158.80247  21158941.749    21158952.1124
  21413790.463     1640320.457 8   1278668.26847  21413790.091    21413801.9964
  23607754.943    15145647.216 8  11795794.90745  23607754.622    23607772.6074
  20620044.836    -2544418.041 9  -1980648.38147  20620044.220    20620054.6084
  23856957.691    -7826290.139 8  -6091694.80245  23856957.012    23856973.2534
  20666081.844   -23525051.834 9 -18319299.88248  20666081.160    20666091.5554
  23271011.948    10657423.601 8   8305765.68546  23271011.973    23271025.5004
 00  2 29 18 22  0.0000000  0  8 26 02 27 19 08 11 07 13
  22461070.877   -13302500.171 8 -10350951.89046  22461070.844    22461082.4994
  21159443.211    -7851158.665 9  -6062108.30047  21159442.543    21159452.9234
  21426798.271     1708676.389 8   1331932.51247  21426797.906    21426809.8234
  23626050.377    15241789.553 8  11870710.69045  23626050.056    23626068.1954
  20630191.397    -2491097.790 9  -1939100.21247  20630190.786    20630201.1804
  23861196.422    -7804016.405 8  -6074338.74045  23861195.738    23861211.7454
  20660323.514   -23555311.997 9 -18342879.19248  20660322.836    20660333.2354
  23289744.776    10755864.549 8   8382472.67746  23289744.875    23289758.4514
 00  2 29 18 22 30.0000000  0  8 26 02 27 19 08 11 07 13
  22459174.707   -13312464.238 8 -10358716.10546  22459174.697    22459186.4064
  21159963.361    -7848425.419 9  -6059978.53247  21159962.683    21159973.0754
  21439887.017     1777457.931 8   1385528.40147  21439886.655    21439898.6164
  23644388.998    15338158.802 8  11945803.30945  23644388.770    23644407.0254
  20640418.040    -2437356.660 9  -1897224.08747  20640417.406    20640427.8234
  23865529.377    -7781246.723 8  -6056596.21345  23865528.669    23865544.7934
  20654649.232   -23585130.330 9 -18366114.21548  20654648.574    20654658.9664
  23308505.929    10854453.950 8   8459295.36746  23308506.017    23308519.5304
 00  2 29 18 23  0.0000000  0  8 26 02 27 19 08 11 07 13
  22457378.051   -13321905.649 8 -10366073.04846  22457378.021    22457389.7684
  21160502.638    -7845591.723 9  -6057770.49447  21160501.959    21160512.3554
  21453057.368     1846668.246 8   1439458.40147  21453057.018    21453069.0164
  23662765.750    15434728.129 8  12021051.83145  23662765.518    23662783.8804
  20650724.975    -2383193.292 9  -1855018.95147  20650724.371    20650734.8074
  23869954.740    -7757989.819 8  -6038474.01645  23869954.414    23869970.4624
  20649056.267   -23614521.631 9 -18389016.48348  20649055.586    20649065.9624
  23327296.015    10953195.523 8   8536236.62746  23327296.108    23327309.7694
 00  2 29 18 23 30.0000000  0  8 26 02 27 19 08 11 07 13
  22455682.557   -13330815.316 8 -10373015.65446  22455682.564    22455694.2974
  21161060.774    -7842658.510 9  -6055484.90747  21161060.113    21161070.5124
  21466305.919     1916289.336 8   1493708.47847  21466305.576    21466317.6334
  23681178.811    15531488.066 8  12096448.85445  23681178.620    23681196.9224
  20661111.505    -2328611.926 9  -1812488.10047  20661110.891    20661121.3814
  23874473.055    -7734247.379 8  -6019973.51045  23874472.566    23874488.6134
  20643544.799   -23643484.205 9 -18411584.68048  20643544.132    20643554.4974
  23346113.895    11052083.492 8   8613291.95546  23346114.081    23346127.6664
 00  2 29 18 24  0.0000000  0  8 26 02 27 19 08 11 07 13
  22454089.758   -13339185.289 8 -10379537.70546  22454089.837    22454101.5624
  21161639.661    -7839616.782 9  -6053114.76247  21161638.992    21161649.3854
  21479628.603     1986300.127 8   1548262.21747  21479628.252    21479640.3614
  23699628.503    15628440.645 8  12171996.00545  23699628.388    23699646.7284
  20671574.853    -2273626.826 9  -1769642.65047  20671574.217    20671584.7534
  23879082.717    -7710025.254 8  -6001099.20445  23879082.065    23879098.0034
  20638118.158   -23672001.168 9 -18433805.64348  20638117.469    20638127.8374
  23364954.155    11151088.734 8   8690438.66746  23364954.309    23364967.9284
 00  2 29 18 24 30.0000000  0  8 26 02 27 19 08 11 07 13
  22452601.038   -13347009.268 8 -10385634.31846  22452601.008    22452612.7184
  21162245.085    -7836435.281 9  -6050635.70647  21162244.423    21162254.8354
  21493024.870     2056697.422 8   1603117.13647  21493024.498    21493036.6164
  23718114.862    15725585.899 8  12247693.28945  23718114.720    23718133.1034
  20682116.946    -2218227.947 9  -1726474.76947  20682116.349    20682126.8824
  23883781.482    -7685332.549 8  -5981858.21545  23883780.913    23883796.8004
  20632781.968   -23700042.718 9 -18455656.15748  20632781.293    20632791.6394
  23383814.064    11250197.581 8   8767666.11546  23383814.272    23383827.9274
 00  2 29 18 25  0.0000000  0  8 26 02 27 19 08 11 07 13
  22451220.640   -13354262.955 8 -10391286.55346  22451220.703    22451232.4084
  21162881.632    -7833090.447 9  -6048029.37247  21162880.962    21162891.3874
  21506493.645     2127475.999 8   1658269.15947  21506493.295    21506505.4064
  23736642.115    15822945.921 8  12323557.93345  23736641.934    23736660.3064
  20692741.862    -2162394.075 9  -1682967.92847  20692741.253    20692751.7844
  23888572.485    -7660155.106 8  -5962239.49545  23888572.046    23888587.9414
  20627542.393   -23727576.604 9 -18477111.09348  20627541.720    20627552.0324
  23402696.383    11349423.810 8   8844985.02946  23402696.511    23402710.2734
 00  2 29 18 25 30.0000000  0  8 26 02 27 19 08 11 07 13
  22449952.920   -13360925.214 8 -10396477.93946  22449952.941    22449964.6124
  21163548.208    -7829587.791 9  -6045300.05947  21163547.531    21163557.9694
  21520035.241     2198637.294 8   1713719.39647  21520034.910    21520047.0394
  23755213.914    15920539.897 8  12399604.86845  23755213.737    23755232.2394
  20703449.115    -2106127.541 9  -1639123.95847  20703448.511    20703459.0634
  23893459.517    -7634473.486 8  -5942227.90945  23893459.033    23893475.0184
  20622401.921   -23754590.001 9 -18498160.45748  20622401.249    20622411.5394
  23421600.845    11448766.662 8   8922394.80445  23421600.992    23421614.8164
 00  2 29 18 26  0.0000000  0  8 26 02 27 19 08 11 07 13
  22448794.141   -13367014.319 8 -10401222.71246  22448794.213    22448805.8984
  21164245.164    -7825925.332 9  -6042446.21847  21164244.488    21164254.9234
  21533651.948     2270192.959 8   1769476.93747  21533651.603    21533663.7534
  23773830.420    16018368.757 8  12475834.81945  23773830.159    23773848.7434
  20714239.676    -2049423.238 9  -1594938.86747  20714239.050    20714249.6614
  23898445.002    -7608276.614 8  -5921814.82645  23898444.241    23898460.4814
  20617355.783   -23781107.598 9 -18518823.48148  20617355.072    20617365.3454
  23440527.525    11548226.399 8   8999895.66045  23440527.700    23440541.5194
 00  2 29 18 26 30.0000000  0  8 26 02 27 19 08 11 07 13
  22447740.516   -13372551.355 8 -10405537.29546  22447740.572    22447752.2384
  21164970.332    -7822114.622 9  -6039476.86347  21164969.656    21164980.0924
  21547347.847     2342164.607 8   1825558.62047  21547347.452    21547359.6414
  23792490.138    16116425.239 8  12552242.13245  23792489.901    23792508.6074
  20725112.362    -1992287.343 9  -1550417.46747  20725111.733    20725122.3494
  23903528.162    -7581563.445 8  -5900999.43045  23903527.592    23903543.9764
  20612396.723   -23807167.641 9 -18539129.97948  20612396.005    20612406.2554
  23459479.774    11647820.176 8   9077500.96745  23459479.980    23459493.8674
 00  2 29 18 27  0.0000000  0  8 26 02 27 19 08 11 07 13
  22446788.524   -13377554.281 8 -10409435.70046  22446788.541    22446800.1834
  21165717.259    -7818189.575 9  -6036418.41247  21165716.589    21165727.0074
  21561121.501     2414544.999 8   1881958.79947  21561121.106    21561133.2944
  23811189.326    16214689.100 8  12628811.04745  23811189.115    23811207.9894
  20736060.838    -1934753.133 9  -1505585.69147  20736060.214    20736070.8224
  23908709.955    -7554332.421 8  -5879780.52845  23908709.464    23908725.9094
  20607517.790   -23832806.577 9 -18559108.34848  20607517.053    20607527.2864
  23478458.571    11747553.058 8   9155214.67045  23478458.740    23478472.6984
 00  2 29 18 27 30.0000000  0  8 26 02 27 19 08 11 07 13
  22445931.922   -13382055.249 8 -10412942.96846  22445932.015    22445943.6754
  21166481.538    -7814173.549 9  -6033289.07347  21166480.850    21166491.2574
  21574970.007     2487318.735 8   1938665.47447  21574969.599    21574981.8074
  23829921.955    16313128.098 8  12705516.43045  23829921.628    23829940.5694
  20747082.424    -1876834.831 9  -1460454.61747  20747081.764    20747092.3564
  23913986.840    -7526601.491 8  -5858172.05545  23913986.622    23914003.0094
  20602713.366   -23858053.650 9 -18578781.37048  20602712.629    20602722.8704
  23497461.100    11847410.793 8   9233025.65445  23497461.196    23497475.1664
 00  2 29 18 28  0.0000000  0  8 26 02 27 19 08 11 07 13
  22445167.176   -13386074.802 8 -10416075.10446  22445167.134    22445178.7834
  21167263.176    -7810066.320 9  -6030088.65747  21167262.479    21167272.8814
  21588893.488     2560486.842 8   1995679.46247  21588893.100    21588905.3324
  23848683.410    16411719.043 8  12782340.20145  23848683.070    23848702.1244
  20758176.662    -1818534.308 9  -1415025.71047  20758176.014    20758186.6344
  23919355.771    -7498388.203 8  -5836187.73945  23919355.475    23919371.8494
  20597981.946   -23882917.074 9 -18598155.44548  20597981.224    20597991.4564
  23516486.007    11947386.230 8   9310928.37745  23516486.035    23516500.1094
 00  2 29 18 28 30.0000000  0  8 26 02 27 19 08 11 07 13
  22444497.404   -13389594.370 8 -10418817.63846  22444497.447    22444509.1074
  21168060.314    -7805877.382 9  -6026824.57247  21168059.607    21168070.0374
  21602890.310     2634040.292 8   2052993.71847  21602889.930    21602902.2144
  23867471.538    16510449.669 8  12859272.82945  23867471.113    23867490.2004
  20769344.407    -1759847.538 9  -1369295.83847  20769343.782    20769354.4554
  23924813.993    -7469706.790 8  -5813838.64145  23924813.536    23924829.7894
  20593330.602   -23907360.155 9 -18617201.98348  20593329.884    20593340.1074
  23535531.912    12047472.071 8   9388917.09145  23535531.900    23535546.0854
 00  2 29 18 29  0.0000000  0  8 26 02 27 19 08 11 07 13
  22443925.728   -13392598.752 8 -10421158.74746  22443925.703    22443937.4024
  21168875.491    -7801593.682 9  -6023486.65447  21168874.793    21168885.2544
  21616959.508     2707973.849 8   2110604.16047  21616959.101    21616971.4404
  23886287.821    16609328.550 8  12936320.96745  23886287.446    23886306.5774
  20780592.037    -1700741.370 9  -1323239.17147  20780591.386    20780602.0774
  23930363.441    -7440544.321 7  -5791114.70345  23930362.954    23930379.2804
  20588767.605   -23931339.022 9 -18635886.80648  20588766.873    20588777.1044
  23554597.921    12147663.756 8   9466988.29045  23554597.931    23554612.2124
 00  2 29 18 29 30.0000000  0  8 26 02 27 19 08 11 07 13
  22443457.219   -13395060.956 8 -10423077.36246  22443457.198    22443468.8724
  21169715.507    -7797179.361 9  -6020046.94847  21169714.811    21169725.2714
  21631103.909     2782302.637 8   2168522.57247  21631103.498    21631115.8594
  23905136.511    16708377.517 8  13013501.63645  23905136.148    23905155.3314
  20791927.414    -1641173.974 9  -1276823.10447  20791926.769    20791937.4804
  23936005.517    -7410893.639 7  -5768010.34645  23936005.379    23936021.7624
  20584296.969   -23954832.139 9 -18654193.11948  20584296.238    20584306.4464
  23573682.522    12247953.239 8   9545135.70345  23573682.608    23573696.8624
 00  2 29 18 30  0.0000000  0  8 26 02 27 19 08 11 07 13
  22443097.230   -13396952.427 8 -10424551.24546  22443097.227    22443108.9124
  21170583.939    -7792615.752 9  -6016490.91347  21170583.260    21170593.7094
  21645326.076     2857040.041 8   2226759.39047  21645325.673    21645338.0374
  23924022.632    16807623.548 8  13090835.86745  23924022.284    23924041.4584
  20803351.813    -1581138.593 9  -1230042.36447  20803351.150    20803361.9014
  23941742.594    -7380744.346 8  -5744517.42345  23941742.556    23941758.9184
  20579922.277   -23977821.063 9 -18672106.55948  20579921.557    20579931.7764
  23592784.957    12348336.385 8   9623356.10445  23592785.085    23592799.3794
 00  2 29 18 30 30.0000000  0  8 26 02 27 19 08 11 07 13
  22442848.758   -13398258.037 8 -10425568.63346  22442848.749    22442860.4584
  21171482.222    -7787895.351 9  -6012812.71147  21171481.548    21171492.0214
  21659623.005     2932170.433 8   2285302.43547  21659622.615    21659635.0124
  23942950.357    16907088.693 8  13168340.81645  23942950.040    23942969.3684
  20814866.090    -1520630.724 9  -1182893.46447  20814865.468    20814876.2394
  23947577.169    -7350084.503 8  -5720626.70745  23947576.877    23947593.3554
  20575644.665   -24000300.043 9 -18689622.63948  20575643.948    20575654.1584
  23611904.001    12448806.647 8   9701644.37545  23611904.128    23611918.4714
 00  2 29 18 31  0.0000000  0  8 26 02 27 19 08 11 07 13
  22442710.680   -13398984.264 8 -10426134.53846  22442710.585    22442722.3014
  21172411.662    -7783011.229 9  -6009006.92947  21172410.995    21172421.4794
  21673994.675     3007693.646 8   2344151.56647  21673994.296    21674006.7214
  23961921.363    17006780.409 7  13246022.33145  23961921.057    23961940.3634
  20826466.427    -1459670.982 9  -1135392.45447  20826465.788    20826476.6024
  23953510.080    -7318909.937 8  -5696334.91745  23953509.410    23953525.7004
  20571459.419   -24022293.671 9 -18706760.51748  20571458.696    20571468.9034
  23631039.653    12549364.262 8   9780000.70945  23631039.742    23631054.1434
 00  2 29 18 31 30.0000000  0  8 26 02 27 19 08 11 07 13
  22442682.694   -13399131.087 8 -10426248.96546  22442682.644    22442694.3144
  21173368.712    -7777981.895 9  -6005087.99747  21173368.042    21173378.5314
  21688440.339     3083606.110 8   2403304.00847  21688439.985    21688452.4604
  23980933.827    17106690.896 8  13323874.31045  23980933.604    23980953.0564
  20838145.269    -1398298.563 9  -1087569.88847  20838144.652    20838155.4734
  23959537.807    -7287235.023 8  -5671653.23645  23959536.978    23959553.2474
  20567361.940   -24043825.882 9 -18723538.84848  20567361.242    20567371.4394
  23650190.418    12650001.303 8   9858418.92345  23650190.493    23650204.9294
 00  2 29 18 32  0.0000000  0  8 26 02 27 19 08 11 07 13
  22442759.336   -13398727.860 8 -10425934.78246  22442759.371    22442771.0554
  21174348.528    -7772833.154 9  -6001076.02447  21174347.824    21174358.3264
  21702959.942     3159906.564 8   2462758.78047  21702959.574    21702972.0854
  23999984.197    17206799.258 8  13401880.46845  23999983.936    24000003.3654
  20849896.642    -1336545.039 9  -1039450.35747  20849896.007    20849906.8624
  23965659.153    -7255065.922 8  -5646586.45745  23965658.560    23965674.8204
  20563351.140   -24064902.802 9 -18739962.40548  20563350.449    20563360.6204
  23669355.228    12750712.429 8   9936894.84945  23669355.445    23669369.8694
 00  2 29 18 32 30.0000000  0  8 26 02 27 19 08 11 07 13
  22442936.888   -13397795.971 8 -10425208.64646  22442936.748    22442948.4484
  21175351.332    -7767563.543 9  -5996969.87247  21175350.640    21175361.1354
  21717553.764     3236597.127 8   2522517.52747  21717553.400    21717565.9274
  24019068.274    17307085.740 7  13480025.41845  24019068.124    24019087.4184
  20861718.536    -1274420.898 9   -991042.03947  20861717.913    20861728.7634
  23971873.978    -7222406.112 8  -5621137.30845  23971873.537    23971889.9014
  20559425.224   -24085533.859 9 -18756038.53448  20559424.507    20559434.6744
  23688535.019    12851501.944 8  10015431.85945  23688535.187    23688549.6494
 00  2 29 18 33  0.0000000  0  8 26 02 27 19 08 11 07 13
  22443211.410   -13396352.763 8 -10424084.08846  22443211.418    22443223.1264
  21176378.225    -7762167.234 9  -5992764.99147  21176377.499    21176388.0354
  21732225.092     3313694.692 8   2582593.41647  21732224.694    21732237.2494
  24038182.525    17407529.878 7  13558293.22445  24038182.233    24038201.6814
  20873608.311    -1211940.152 9   -942355.83647  20873607.682    20873618.5304
  23978181.769    -7189257.478 8  -5595307.25145  23978181.540    23978198.1884
  20555582.639   -24105726.885 9 -18771773.33148  20555581.907    20555592.0644
  23707730.905    12952375.654 8  10094034.47045  23707731.059    23707745.6684
 00  2 29 18 33 30.0000000  0  8 26 02 27 19 08 11 07 13
  22443580.964   -13394410.827 8 -10422570.91346  22443580.943    22443592.6164
  21177429.657    -7756642.056 9  -5988459.69547  21177428.941    21177439.4954
  21746972.758     3391193.487 8   2642981.94647  21746972.364    21746984.9334
  24057326.006    17508127.970 8  13636680.97345  24057325.709    24057345.1984
  20885569.602    -1149083.660 9   -893376.85047  20885568.961    20885579.8204
  23984583.218    -7155616.521 8  -5569093.59445  23984583.149    23984600.0034
  20551823.682   -24125480.314 9 -18787165.58148  20551822.949    20551833.1094
  23726941.884    13053328.748 8  10172698.93045  23726941.959    23726956.7264
 00  2 29 18 34  0.0000000  0  8 26 02 27 19 08 11 07 13
  22444044.802   -13391973.256 8 -10420671.53046  22444044.811    22444056.4864
  21178510.298    -7750963.225 9  -5984034.66947  21178509.583    21178520.1524
  21761796.122     3469090.365 8   2703680.66347  21761795.742    21761808.3224
  24076498.982    17608881.567 7  13715189.91245  24076498.747    24076518.3544
  20897608.070    -1085821.549 9   -844081.79947  20897607.427    20897618.2884
  23991079.163    -7121481.047 8  -5542494.59545  23991078.981    23991095.9194
  20548149.735   -24144787.063 9 -18802209.76848  20548149.002    20548159.1434
  23746167.303    13154357.823 8  10251422.60145  23746167.370    23746182.1484
 00  2 29 18 34 30.0000000  0  8 26 02 27 19 08 11 07 13
  22444607.472   -13389016.841 8 -10418367.85246  22444607.461    22444619.1014
  21179622.395    -7745119.179 9  -5979480.90847  21179621.693    21179632.2644
  21776691.799     3547366.928 8   2764675.24047  21776691.380    21776704.0284
  24095703.648    17709800.707 7  13793827.84845  24095703.232    24095723.0834
  20909726.647    -1022138.462 9   -794458.71547  20909725.988    20909736.8764
  23997669.977    -7086847.123 8  -5515507.22345  23997669.749    23997686.6384
  20544560.591   -24163648.106 9 -18816906.64948  20544559.847    20544569.9684
  23765408.614    13255470.443 8  10330211.37945  23765408.689    23765423.4684
 00  2 29 18 35  0.0000000  0  8 26 02 27 19 08 11 07 13
  22445272.397   -13385522.378 8 -10415644.91146  22445272.501    22445284.1374
  21180762.552    -7739127.927 9  -5974812.44647  21180761.844    21180772.4144
  21791657.122     3626009.695 8   2825955.16447  21791656.700    21791669.3994
  24114940.172    17810888.043 8  13872596.84845  24114939.715    24114959.8214
  20921926.761     -958026.596 9   -744501.51547  20921926.132    20921937.0414
  24004353.066    -7051728.282 8  -5488141.97445  24004352.703    24004369.4754
  20541055.394   -24182068.004 9 -18831259.77948  20541054.644    20541064.7354
  23784664.725    13356661.008 8  10409060.87545  23784664.838    23784679.6094
 00  2 29 18 35 30.0000000  0  8 26 02 27 19 08 11 07 13
  22446041.648   -13381480.727 8 -10412495.60246  22446041.619    22446053.2104
  21181927.700    -7733005.234 9  -5970041.56347  21181926.987    21181937.5504
  21806690.203     3705008.371 8   2887512.42446  21806689.763    21806702.4764
  24134210.747    17912153.826 7  13951504.89445  24134210.243    24134230.4044
  20934210.269     -893476.662 9   -694202.96347  20934209.628    20934220.5624
  24011125.963    -7016137.711 8  -5460409.15045  24011125.394    24011142.2564
  20537635.910   -24200037.328 9 -18845261.81548  20537635.161    20537645.2184
  23803932.295    13457911.555 8  10487957.11445  23803932.370    23803947.2874
 00  2 29 18 36  0.0000000  0  8 26 02 27 19 08 11 07 13
  22446917.354   -13376879.440 8 -10408910.21746  22446917.242    22446928.8484
  21183116.486    -7726758.289 9  -5965173.85747  21183115.794    21183126.3514
  21821791.833     3784367.325 8   2949350.41946  21821791.388    21821804.1114
  24153515.810    18013600.839 7  14030554.14345  24153515.339    24153535.5314
  20946574.185     -828504.216 9   -643575.18947  20946573.549    20946584.4774
  24017987.002    -6980082.943 8  -5432314.61145  24017986.414    24018003.3204
  20534302.994   -24217551.878 9 -18858909.48148  20534302.238    20534312.2974
  23823212.221    13559226.886 8  10566903.82745  23823212.282    23823227.2234
 00  2 29 18 36 30.0000000  0  8 26 02 27 19 08 11 07 13
  22447900.386   -13371713.947 8 -10404885.19246  22447900.222    22447911.8234
  21184324.349    -7720411.151 9  -5960228.07947  21184323.638    21184334.2204
  21836961.606     3864084.589 8   3011467.61246  21836961.156    21836973.9034
  24172855.285    18115229.541 7  14109744.99745  24172854.810    24172875.1904
  20959014.597     -763129.969 9   -592634.31647  20959013.926    20959024.8774
  24024936.314    -6943564.236 8  -5403858.57245  24024935.763    24024952.7594
  20531057.750   -24234605.835 9 -18872198.24948  20531056.985    20531067.0264
  23842504.254    13660605.445 8  10645899.82945  23842504.228    23842519.1744
 00  2 29 18 37  0.0000000  0  8 26 02 27 19 08 11 07 13
  22448986.801   -13366004.263 8 -10400436.12446  22448986.720    22448998.3714
  21185550.884    -7713965.797 9  -5955205.76947  21185550.179    21185560.7864
  21852201.779     3944171.405 8   3073872.76846  21852201.286    21852214.0954
  24192229.472    18217039.887 7  14189077.37945  24192229.017    24192249.4264
  20971530.030     -697361.066 9   -541385.92747  20971529.382    20971540.3464
  24031974.028    -6906581.058 8  -5375040.60545  24031973.521    24031990.4854
  20527903.205   -24251182.640 9 -18885115.21648  20527902.429    20527912.4844
  23861805.543    13762033.261 8  10724934.18145  23861805.445    23861820.6244
 00  2 29 18 37 30.0000000  0  9 26 02 04 27 19 08 11 07 13
  22450175.856   -13359755.593 8 -10395567.06846  22450175.807    22450187.4134
  21186801.267    -7707395.224 9  -5950085.88247  21186800.553    21186811.1584
  24328765.992    -3091918.296 7  -2399742.70845  24328765.906    24328787.6214
  21867514.594     4024640.442 8   3136575.75846  21867514.115    21867526.9894
  24211638.770    18319035.201 7  14268553.88245  24211638.261    24211658.8694
  20984123.599     -631181.963 9   -489817.90047  20984122.934    20984133.9184
  24039107.346    -6869095.589 8  -5345831.24145  24039106.863    24039123.7864
  20524843.776   -24267259.678 9 -18897642.76048  20524843.017    20524853.0634
  23881117.187    13863515.617 8  10804011.02345  23881117.136    23881132.3834
 00  2 29 18 38  0.0000000  0  9 26 02 04 27 19 08 11 07 13
  22451468.364   -13352963.371 8 -10390274.47646  22451468.392    22451480.0444
  21188077.968    -7700686.351 9  -5944858.22647  21188077.239    21188087.8484
  24309088.769    -3195321.317 7  -2480316.07945  24309088.669    24309110.4314
  21882901.126     4105496.523 8   3199580.33346  21882900.633    21882913.5534
  24231080.488    18421200.992 7  14348163.22945  24231080.022    24231100.7184
  20996798.739     -564573.936 9   -437915.64347  20996798.089    20996809.0894
  24046338.347    -6831097.066 8  -5316222.10545  24046337.796    24046354.8464
  20521879.027   -24282839.406 9 -18909782.79548  20521878.279    20521888.3214
  23900440.984    13965061.795 8  10883137.59445  23900440.958    23900456.2234
 00  2 29 18 38 30.0000000  0  9 26 02 04 27 19 08 11 07 13
  22452860.139   -13345649.988 8 -10384575.78646  22452860.098    22452871.7364
  21189380.964    -7693839.115 9  -5939522.75447  21189380.227    21189390.8514
  24289397.418    -3298798.547 7  -2560947.27845  24289397.351    24289418.9294
  21898360.252     4186734.196 8   3262882.25546  21898359.781    21898372.7094
  24250550.401    18523514.312 7  14427887.53845  24250549.893    24250570.6674
  21009554.656     -497541.660 9   -385682.79847  21009554.008    21009565.0444
  24053666.477    -6792587.293 8  -5286214.61545  24053666.033    24053683.1284
  20519006.587   -24297934.236 9 -18921544.99248  20519005.848    20519015.8654
  23919772.781    14066650.004 8  10962296.91245  23919772.745    23919788.2254
 00  2 29 18 39  0.0000000  0  9 26 02 04 27 19 08 11 07 13
  22454349.534   -13337822.853 8 -10378476.77646  22454349.577    22454361.2664
  21190715.222    -7686827.738 9  -5934059.38447  21190714.503    21190725.1514
  24269691.781    -3402350.893 7  -2641636.99645  24269691.713    24269713.2524
  21913895.737     4268372.800 8   3326496.59546  21913895.256    21913908.2054
  24270049.126    18625979.728 7  14507730.36845  24270048.784    24270069.5974
  21022394.781     -430066.865 9   -333105.14047  21022394.139    21022405.1704
  24061094.908    -6753551.138 8  -5255796.98045  24061094.490    24061111.5854
  20516224.379   -24312554.736 9 -18932937.58548  20516223.614    20516233.6324
  23939113.818    14168286.982 8  11041494.24045  23939113.826    23939129.3604
 00  2 29 18 39 30.0000000  0  9 26 02 04 27 19 08 11 07 13
  22455938.354   -13329474.350 8 -10371971.49846  22455938.317    22455949.9604
  21192082.993    -7679640.265 9  -5928458.78547  21192082.267    21192092.9224
  24249970.873    -3505983.260 7  -2722389.10045  24249970.855    24249992.3124
  21929509.830     4350424.761 8   3390433.02546  21929509.346    21929522.3674
  24289576.870    18728597.089 8  14587691.57745  24289576.396    24289597.2504
  21035318.697     -362151.944 9   -280184.53447  21035318.042    21035329.0884
  24068621.373    -6714000.374 8  -5224978.39545  24068620.940    24068638.0004
  20513529.056   -24326718.806 9 -18943974.51948  20513528.310    20513538.3004
  23958465.079    14269977.257 8  11120733.09545  23958465.140    23958480.6344
 00  2 29 18 40  0.0000000  0  9 26 02 04 27 19 08 11 07 13
  22457627.864   -13320596.104 8 -10365053.44346  22457627.837    22457639.5024
  21193485.382    -7672270.897 9  -5922716.45447  21193484.656    21193495.3114
  24230232.186    -3609709.567 7  -2803214.40445  24230232.001    24230253.1994
  21945202.084     4432887.855 8   3454689.81246  21945201.653    21945214.6644
  24309137.196    18831385.476 7  14667786.10345  24309136.604    24309157.6134
  21048321.474     -293822.151 9   -226940.64947  21048320.821    21048331.9144
  24076240.387    -6673963.853 8  -5193781.28245  24076239.756    24076256.7974
  20510918.832   -24340435.675 9 -18954662.98848  20510918.097    20510928.0734
  23977827.269    14371724.781 8  11200016.55745  23977827.305    23977842.8154
 00  2 29 18 40 30.0000000  0  9 26 02 04 27 19 08 11 07 13
  22459416.183   -13311198.459 8 -10357730.65946  22459416.170    22459427.8274
  21194920.733    -7664728.171 9  -5916839.04147  21194920.002    21194930.6894
  24210477.379    -3713519.623 7  -2884104.96945  24210477.386    24210498.5484
  21960969.952     4515747.885 8   3519255.90246  21960969.497    21960982.5584
  24328734.319    18934368.229 7  14748032.03645  24328733.787    24328754.9254
  21061397.030     -225110.196 9   -173398.97947  21061396.369    21061407.4884
  24083950.392    -6633448.774 8  -5162211.28745  24083949.718    24083966.7134
  20508391.352   -24353717.863 9 -18965012.74748  20508390.607    20508400.5904
  23997197.730    14473516.170 8  11279334.21045  23997197.795    23997213.4224
 00  2 29 18 41  0.0000000  0  9 26 02 04 27 19 08 11 07 13
  22461304.718   -13301273.994 8 -10349997.36246  22461304.712    22461316.4424
  21196386.304    -7657026.645 9  -5910837.89147  21196385.587    21196396.2714
  24190708.421    -3817405.064 7  -2965054.31645  24190708.262    24190729.3464
  21976808.489     4598979.244 8   3584111.33646  21976808.042    21976821.1224
  24348367.478    19037539.435 7  14828424.83245  24348367.015    24348388.1744
  21074542.611     -156030.013 9   -119570.37847  21074541.968    21074553.1124
  24091746.136    -6592482.390 8  -5130289.60545  24091745.452    24091762.5614
  20505944.877   -24366574.121 9 -18975030.61748  20505944.110    20505954.0834
  24016573.233    14575333.927 8  11358672.40445  24016573.281    24016589.0104
 00  2 29 18 41 30.0000000  0  9 26 02 04 27 19 08 11 07 13
  22463296.292   -13290808.056 8 -10341842.14046  22463296.374    22463308.1124
  21197878.141    -7649187.293 9  -5904729.34947  21197877.435    21197888.1094
  24170927.443    -3921353.742 7  -3046052.95445  24170927.276    24170948.3164
  21992712.407     4682554.167 8   3649234.47546  21992711.972    21992725.0964
  24368034.915    19140890.997 7  14908958.15645  24368034.431    24368055.7354
  21087755.811      -86594.874 9    -65465.18747  21087755.141    21087766.3064
  24099624.183    -6551083.204 8  -5098030.70945  24099623.547    24099640.7124
  20503579.824   -24379002.580 9 -18984715.13448  20503579.068    20503589.0374
  24035952.689    14677172.344 8  11438026.69845  24035952.755    24035968.5104
 00  2 29 18 42  0.0000000  0  9 26 02 04 27 19 08 11 07 13
  22465389.698   -13279807.370 8 -10333270.20846  22465389.794    22465401.5384
  21199391.367    -7641235.415 9  -5898533.12147  21199390.647    21199401.3354
  24151137.407    -4025349.807 7  -3127088.56445  24151137.227    24151158.1384
  22008676.522     4766445.572 8   3714604.23146  22008676.100    22008689.2574
  24387734.138    19244409.720 7  14989621.74645  24387733.692    24387755.0214
  21101036.230      -16806.237 9    -11084.54047  21101035.547    21101046.7494
  24107587.731    -6509235.115 8  -5065422.02745  24107587.184    24107604.2434
  20501295.919   -24391004.665 9 -18994067.41648  20501295.139    20501305.1124
  24055333.829    14779019.658 8  11517387.92545  24055333.868    24055349.8334
 00  2 29 18 42 30.0000000  0  9 26 02 04 27 19 08 11 07 13
  22467583.361   -13268279.609 8 -10324287.58946  22467583.525    22467595.2524
  21200921.616    -7633194.081 9  -5892267.18147  21200920.878    21200931.5844
  24131339.462    -4129387.032 7  -3208156.25445  24131339.323    24131360.0904
  22024700.843     4850653.092 8   3780220.30846  22024700.417    22024713.6104
  24407459.574    19348066.209 7  15070392.68645  24407459.248    24407480.4604
  21114386.759       53350.929 9     43583.28147  21114386.084    21114397.3344
  24115637.138    -6466935.837 8  -5032461.75845  24115636.602    24115653.7334
  20499093.293   -24402579.358 9 -19003086.65748  20499092.543    20499102.5154
  24074713.988    14880861.622 8  11596744.97145  24074714.041    24074730.0344
 00  2 29 18 43  0.0000000  0  9 26 02 04 27 19 08 11 07 13
  22469876.746   -13256228.297 8 -10314896.99046  22469876.828    22469888.5874
  21202468.625    -7625064.482 9  -5885932.46447  21202467.907    21202478.6134
  24111531.727    -4233475.776 7  -3289264.10745  24111531.665    24111552.3834
  22040788.194     4935192.202 8   3846094.77346  22040787.780    22040801.0074
  24427206.299    19451834.123 7  15151250.43145  24427205.995    24427227.1314
  21127809.997      123889.950 9     98548.63847  21127809.312    21127820.5964
  24123774.156    -6424175.233 8  -4999142.00245  24123773.859    24123791.0774
  20496975.024   -24413711.007 9 -19011760.67248  20496974.260    20496984.2404
  24094097.420    14982720.800 8  11676115.42945  24094097.362    24094113.4794
 00  2 29 18 43 30.0000000  0  9 26 02 04 27 19 08 11 07 13
  22472268.313   -13243660.645 8 -10305104.06146  22472268.422    22472280.1624
  21204033.754    -7616839.630 9  -5879523.53047  21204033.063    21204043.7694
  24091714.500    -4337615.121 8  -3370411.37645  24091714.394    24091735.0544
  22056942.206     5020081.456 8   3912242.07046  22056941.806    22056955.0714
  24446974.727    19555716.446 7  15232197.35945  24446974.433    24446995.4544
  21141307.873      194821.535 9    153819.88947  21141307.207    21141318.5164
  24132002.487    -6380934.690 8  -4965448.26945  24132002.362    24132019.5464
  20494942.050   -24424394.308 9 -19020085.32448  20494941.277    20494951.2714
  24113487.059    15084612.868 8  11755511.52045  24113487.010    24113503.1644
 00  2 29 18 44  0.0000000  0  9 26 02 04 27 19 08 11 07 13
  22474756.475   -13230585.630 8 -10294915.76446  22474756.580    22474768.3014
  21205619.912    -7608504.719 9  -5873028.83547  21205619.185    21205629.9034
  24071886.771    -4441809.589 7  -3451601.62045  24071886.670    24071907.1184
  22073165.628     5105335.231 8   3978673.40046  22073165.195    22073178.5144
  24466764.131    19659709.555 8  15313230.57245  24466763.941    24466785.1094
  21154882.439      266155.745 9    209404.88047  21154881.770    21154893.0784
  24140323.083    -6337210.829 8  -4931377.91145  24140322.931    24140340.0174
  20492997.999   -24434610.438 9 -19028045.93948  20492997.233    20493007.2254
  24132882.033    15186532.662 8  11834929.22645  24132882.033    24132898.0824
 00  2 29 18 44 30.0000000  0  9 26 02 04 27 19 08 11 07 13
  22477344.412   -13216986.599 8 -10284319.15246  22477344.448    22477356.2094
  21207230.087    -7600043.472 9  -5866435.70147  21207229.350    21207240.0634
  24052049.816    -4546052.603 7  -3532829.66745  24052049.683    24052069.8574
  22089461.735     5190971.368 8   4045402.68846  22089461.314    22089474.6874
  24486577.897    19763829.863 7  15394362.95045  24486577.585    24486598.8994
  21168535.551      337902.768 9    265311.54647  21168534.868    21168546.2134
  24148735.208    -6293007.065 8  -4896933.60545  24148734.908    24148751.7524
  20491144.522   -24444350.396 9 -19035635.51248  20491143.756    20491153.7444
  24152285.429    15288496.746 8  11914381.41745  24152285.490    24152301.5124
 00  2 29 18 45  0.0000000  0  9 26 02 04 27 19 08 11 07 13
  22480032.781   -13202859.033 8 -10273310.70346  22480032.847    22480044.6264
  21208866.872    -7591442.334 9  -5859733.56247  21208866.117    21208876.8414
  24032204.247    -4650340.507 7  -3614092.66645  24032204.260    24032224.2954
  22105831.691     5276994.753 8   4112433.70846  22105831.211    22105844.5944
  24506418.905    19868093.981 7  15475607.34445  24506418.559    24506439.9924
  21182266.449      410058.653 9    321536.79847  21182265.742    21182277.1504
  24157239.724    -6248316.774 8  -4862110.16245  24157239.311    24157256.3144
  20489380.222   -24453621.981 9 -19042860.11348  20489379.458    20489389.4494
  24171697.254    15390505.605 8  11993868.48245  24171697.272    24171713.6074
 00  2 29 18 45 30.0000000  0  8 26 02 04 27 08 11 07 13
  22482823.640   -13188193.731 8 -10261883.22146  22482823.645    22482835.4214
  21210531.986    -7582692.098 9  -5852915.23747  21210531.245    21210542.0014
  24012353.118    -4754657.662 7  -3695378.47345  24012353.185    24012373.3424
  22122271.764     5363387.095 8   4179752.22946  22122271.280    22122284.6734
  21196073.257      482613.660 9    378073.06247  21196072.554    21196084.0084
  24165832.326    -6203162.876 8  -4826925.45045  24165831.893    24165848.9424
  20487702.839   -24462436.633 9 -19049728.65948  20487702.059    20487712.0564
  24191111.983    15492529.582 8  12073367.32845  24191112.001    24191128.4034
 00  2 29 18 46  0.0000000  0  8 26 02 04 27 08 11 07 13
  22485715.239   -13172998.091 8 -10250042.49946  22485715.293    22485727.0514
  21212226.754    -7573786.316 9  -5845975.71447  21212226.011    21212236.7784
  23992497.015    -4859001.571 7  -3776685.09945  23992497.000    23992517.0964
  22138779.312     5450133.910 8   4247346.95846  22138778.792    22138792.2204
  21209955.215      555563.181 9    434916.73047  21209954.494    21209965.9704
  24174512.147    -6157550.440 8  -4791383.43145  24174511.724    24174528.9234
  20486109.579   -24470809.136 9 -19056252.67348  20486108.782    20486118.7964
  24210529.244    15594566.917 8  12152876.59445  24210529.408    24210545.7434
 00  2 29 18 46 30.0000000  0  8 26 02 04 27 08 11 07 13
  22488706.316   -13157280.422 8 -10237794.98546  22488706.323    22488718.0094
  21213951.300    -7564723.884 9  -5838914.12247  21213950.578    21213961.3804
  23972637.034    -4963364.871 8  -3858006.78545  23972637.020    23972657.0584
  22155353.063     5537228.742 8   4315212.86346  22155352.488    22155365.9874
  21223910.976      628900.708 9    492062.74247  21223910.282    21223921.7504
  24183277.791    -6111487.643 8  -4755490.44845  24183277.335    24183294.5394
  20484595.540   -24478765.372 9 -19062452.32648  20484594.770    20484604.7814
  24229949.096    15696617.378 8  12232396.09145  24229949.156    24229965.6224
 00  2 29 18 47  0.0000000  0  8 26 02 04 27 08 11 07 13
  22491793.650   -13141056.691 8 -10225153.14946  22491793.585    22491805.3254
  21215706.448    -7555500.770 9  -5831727.31447  21215705.722    21215716.5194
  23952771.642    -5067757.457 7  -3939351.31245  23952771.532    23952791.5004
  22171988.837     5624649.457 8   4383332.71146  22171988.222    22172001.7924
  21237939.167      702618.833 9    549505.32647  21237938.481    21237949.9404
  24192126.243    -6064989.650 8  -4719258.33745  24192125.640    24192142.9964
  20483159.680   -24486310.723 9 -19068331.80548  20483158.914    20483168.9204
  24249367.792    15798662.182 8  12311911.17245  24249367.852    24249384.4364
 00  2 29 18 47 30.0000000  0  8 26 02 04 27 08 11 07 13
  22494975.295   -13124336.690 8 -10212124.61246  22494975.313    22494987.0994
  21217493.208    -7546111.445 9  -5824410.99847  21217492.466    21217503.2694
  23932900.739    -5172177.923 8  -4020717.54345  23932900.608    23932920.6364
  22188683.699     5712380.895 8   4451694.67746  22188683.084    22188696.7264
  21252040.470      776721.412 9    607247.47947  21252039.779    21252051.2744
  24201058.562    -6018049.690 8  -4682681.81545  24201057.996    24201075.4864
  20481803.980   -24493434.837 9 -19073883.05248  20481803.193    20481813.2224
  24268785.235    15900700.461 8  12391421.17545  24268785.309    24268802.2184
 00  2 29 18 48  0.0000000  0  9 26 02 04 27 09 08 11 07 13
  22498253.161   -13107111.125 8 -10198702.11446  22498253.263    22498265.0674
  21219310.332    -7536562.537 9  -5816970.33347  21219309.588    21219320.4004
  23913025.550    -5276621.592 7  -4102101.87345  23913025.448    23913045.3724
  22205442.914     5800450.598 8   4520320.22646  22205442.362    22205456.0214
  24487802.619    -2879132.261 7  -2234240.26845  24487802.327    24487819.4354
  21266218.891      851229.272 9    665305.43847  21266218.203    21266229.7714
  24210079.257    -5970645.974 8  -4645743.95045  24210078.632    24210096.3354
  20480531.849   -24500119.841 9 -19079092.13348  20480531.093    20480541.1194
  24288202.466    16002737.622 8  12470930.29345  24288202.627    24288219.5824
 00  2 29 18 48 30.0000000  0  9 26 02 04 27 09 08 11 07 13
  22501630.871   -13089360.493 8 -10184870.47946  22501631.135    22501642.9084
  21221156.723    -7526860.105 9  -5809410.03947  21221155.959    21221166.7834
  23893148.672    -5381073.721 8  -4183492.78345  23893148.667    23893168.4674
  22222270.540     5888879.787 8   4589225.89946  22222270.012    22222283.7064
  24468651.002    -2979774.507 8  -2312662.69645  24468650.706    24468667.8044
  21280477.388      926157.573 9    723691.01247  21280476.702    21280488.3164
  24219191.389    -5922762.196 8  -4608431.96045  24219190.663    24219208.4884
  20479349.981   -24506330.670 9 -19083931.73048  20479349.222    20479359.2454
  24307617.773    16104764.801 8  12550431.63245  24307617.946    24307635.0114
 00  2 29 18 49  0.0000000  0  9 26 02 04 27 09 08 11 07 13
  22505104.616   -13071107.261 8 -10170647.22446  22505104.620    22505116.4024
  21223027.698    -7517028.099 9  -5801748.78147  21223026.944    21223037.7764
  23873267.091    -5485550.563 8  -4264902.96045  23873267.131    23873286.8304
  22239163.045     5977649.718 8   4658397.06446  22239162.548    22239176.2564
  24449506.249    -3080380.956 7  -2391057.23445  24449505.780    24449522.8834
  21294811.176     1001481.743 9    782385.05447  21294810.479    21294822.1054
  24228393.911    -5874402.804 7  -4570749.37745  24228393.252    24228410.9674
  20478255.928   -24512080.004 9 -19088411.72148  20478255.179    20478265.2014
  24327025.072    16206748.929 8  12629899.42045  24327025.150    24327042.3154
 00  2 29 18 49 30.0000000  0  9 26 02 04 27 09 08 11 07 13
  22508673.842   -13052350.695 8 -10156031.73646  22508673.889    22508685.6994
  21224922.415    -7507071.202 9  -5793990.20647  21224921.663    21224932.5284
  23853387.695    -5590016.881 7  -4346304.94445  23853387.674    23853407.1744
  22256126.926     6066794.741 8   4727860.52846  22256126.424    22256140.1864
  24430370.205    -3180941.167 7  -2469415.72745  24430369.697    24430386.6664
  21309220.777     1077204.140 9    841389.40447  21309220.094    21309231.7154
  24237689.089    -5825556.613 8  -4532687.45745  24237688.407    24237706.2264
  20477251.768   -24517356.867 9 -19092523.55548  20477251.034    20477261.0624
  24346425.118    16308694.671 8  12709337.31145  24346425.010    24346442.1924
 00  2 29 18 50  0.0000000  0  9 26 02 04 27 09 08 11 07 13
  22512338.719   -13033092.024 8 -10141025.01846  22512338.692    22512350.5574
  21226841.717    -7496985.264 9  -5786131.08747  21226841.004    21226851.8624
  23833513.182    -5694456.848 8  -4427686.38345  23833513.182    23833532.6364
  22273165.000     6156329.739 8   4797627.86146  22273164.519    22273178.3564
  24411245.078    -3281444.122 7  -2547729.64945  24411244.558    24411261.5794
  21323705.373     1153320.587 9    900700.79347  21323704.646    21323716.2814
  24247076.594    -5776225.626 7  -4494247.80145  24247075.889    24247093.5594
  20476338.019   -24522158.753 9 -19096265.28348  20476337.267    20476347.2914
  24365819.720    16410612.783 8  12788753.64945  24365819.744    24365836.9514
 00  2 29 18 50 30.0000000  0  9 26 02 04 27 09 08 11 07 13
  22516097.097   -13013341.779 8 -10125635.25546  22516097.090    22516108.9304
  21228789.502    -7486749.882 9  -5778155.51347  21228788.785    21228799.6304
  23813645.109    -5798863.025 8  -4509041.49745  23813645.078    23813664.4484
  22290273.041     6246232.349 8   4867681.63346  22290272.545    22290286.4634
  24392133.026    -3381878.004 7  -2625989.72345  24392132.539    24392149.5594
  21338262.641     1229819.536 9    960310.23847  21338261.978    21338273.6344
  24256555.840    -5726411.508 7  -4455431.64645  24256555.117    24256572.8114
  20475512.949   -24526494.460 9 -19099643.75348  20475512.188    20475522.1904
  24385212.770    16512523.149 7  12868163.96645  24385212.828    24385230.1044
 00  2 29 18 51  0.0000000  0  9 26 02 04 27 09 08 11 07 13
  22519949.693   -12993095.177 8 -10109858.72746  22519949.863    22519961.7594
  21230767.555    -7476355.503 9  -5770056.04947  21230766.836    21230777.6884
  23793782.710    -5903238.491 7  -4590372.68045  23793782.728    23793802.0174
  22307449.038     6336492.063 8   4938013.65746  22307448.534    22307462.4914
  24373035.052    -3482237.345 7  -2704191.70945  24373034.729    24373051.5724
  21352888.973     1306680.940 9   1020202.10647  21352888.293    21352899.9764
  24266124.435    -5676128.047 7  -4416249.80445  24266123.732    24266141.5424
  20474772.808   -24530383.828 9 -19102674.43148  20474772.060    20474782.0384
  24404605.401    16614431.087 8  12947572.37745  24404605.641    24404622.9384
 00  2 29 18 51 30.0000000  0  9 26 02 04 27 09 08 11 07 13
  22523898.781   -12972343.352 8 -10093688.50746  22523898.829    22523910.7284
  21232773.785    -7465812.841 9  -5761841.04347  21232773.067    21232783.9354
  23773923.743    -6007596.053 8  -4671689.89945  23773923.756    23773943.0024
  22324689.357     6427089.866 8   5008609.13546  22324688.889    22324702.8634
  24353953.336    -3582511.499 7  -2782327.32645  24353953.129    24353969.8234
  21367582.618     1383895.925 9   1080369.49147  21367581.960    21367593.6704
  24275780.119    -5625387.640 7  -4376711.87045  24275779.268    24275797.0604
  20474116.284   -24533834.039 9 -19105362.91648  20474115.525    20474125.5124
  24423998.248    16716339.498 8  13026981.16445  24423998.387    24424016.0094
